<?xml version='1.0' encoding='UTF-8'?><gpx version="1.1" creator="JPX - https://github.com/jenetics/jpx" xmlns="http://www.topografix.com/GPX/1/1"><trk><trkseg><trkpt lat="43.3115767" lon="13.2388367"><ele>475.99999999999994</ele><time>2026-03-22T08:01:31.991Z</time></trkpt><trkpt lat="43.31151" lon="13.238835"><ele>476.0</ele><time>2026-03-22T08:01:33.991Z</time></trkpt><trkpt lat="43.3114267" lon="13.2387867"><ele>476.0</ele><time>2026-03-22T08:01:36.991Z</time></trkpt><trkpt lat="43.31138" lon="13.23871"><ele>476.0</ele><time>2026-03-22T08:01:38.991Z</time></trkpt><trkpt lat="43.3113217" lon="13.2386267"><ele>475.99999999999994</ele><time>2026-03-22T08:01:40.992Z</time></trkpt><trkpt lat="43.3112517" lon="13.2385383"><ele>476.0</ele><time>2026-03-22T08:01:42.992Z</time></trkpt><trkpt lat="43.3111583" lon="13.2384583"><ele>476.16666666666663</ele><time>2026-03-22T08:01:44.991Z</time></trkpt><trkpt lat="43.3111017" lon="13.238415"><ele>476.3333333333333</ele><time>2026-03-22T08:01:45.991Z</time></trkpt><trkpt lat="43.3110383" lon="13.2383667"><ele>476.5</ele><time>2026-03-22T08:01:46.991Z</time></trkpt><trkpt lat="43.310955" lon="13.23831"><ele>476.66666666666663</ele><time>2026-03-22T08:01:47.991Z</time></trkpt><trkpt lat="43.3108683" lon="13.2382533"><ele>476.8333333333333</ele><time>2026-03-22T08:01:48.991Z</time></trkpt><trkpt lat="43.310785" lon="13.2382117"><ele>477.0</ele><time>2026-03-22T08:01:49.991Z</time></trkpt><trkpt lat="43.3107017" lon="13.2381767"><ele>477.0</ele><time>2026-03-22T08:01:50.991Z</time></trkpt><trkpt lat="43.3106133" lon="13.2381367"><ele>477.0</ele><time>2026-03-22T08:01:51.991Z</time></trkpt><trkpt lat="43.3105267" lon="13.2380967"><ele>477.0</ele><time>2026-03-22T08:01:52.991Z</time></trkpt><trkpt lat="43.3104483" lon="13.2380767"><ele>477.0</ele><time>2026-03-22T08:01:53.991Z</time></trkpt><trkpt lat="43.310375" lon="13.2380733"><ele>477.0</ele><time>2026-03-22T08:01:54.991Z</time></trkpt><trkpt lat="43.3102883" lon="13.2380717"><ele>477.0</ele><time>2026-03-22T08:01:55.991Z</time></trkpt><trkpt lat="43.3102033" lon="13.23808"><ele>477.6</ele><time>2026-03-22T08:01:56.991Z</time></trkpt><trkpt lat="43.3101133" lon="13.2381"><ele>478.20000000000005</ele><time>2026-03-22T08:01:57.991Z</time></trkpt><trkpt lat="43.3100217" lon="13.238125"><ele>478.8</ele><time>2026-03-22T08:01:58.991Z</time></trkpt><trkpt lat="43.3099283" lon="13.2381467"><ele>479.4</ele><time>2026-03-22T08:01:59.991Z</time></trkpt><trkpt lat="43.3098367" lon="13.238165"><ele>480.0</ele><time>2026-03-22T08:02:00.991Z</time></trkpt><trkpt lat="43.309725" lon="13.2381933"><ele>482.75</ele><time>2026-03-22T08:02:01.991Z</time></trkpt><trkpt lat="43.30961" lon="13.2382267"><ele>485.5</ele><time>2026-03-22T08:02:02.991Z</time></trkpt><trkpt lat="43.3094717" lon="13.2382567"><ele>488.25</ele><time>2026-03-22T08:02:03.991Z</time></trkpt><trkpt lat="43.3093367" lon="13.2382817"><ele>491.0</ele><time>2026-03-22T08:02:04.991Z</time></trkpt><trkpt lat="43.309215" lon="13.2383133"><ele>491.0</ele><time>2026-03-22T08:02:05.992Z</time></trkpt><trkpt lat="43.30911" lon="13.2383367"><ele>491.0</ele><time>2026-03-22T08:02:06.992Z</time></trkpt><trkpt lat="43.3090133" lon="13.23835"><ele>491.0</ele><time>2026-03-22T08:02:07.991Z</time></trkpt><trkpt lat="43.30891" lon="13.238375"><ele>491.0</ele><time>2026-03-22T08:02:08.992Z</time></trkpt><trkpt lat="43.3087983" lon="13.2383767"><ele>491.0</ele><time>2026-03-22T08:02:09.991Z</time></trkpt><trkpt lat="43.3086833" lon="13.238375"><ele>494.0</ele><time>2026-03-22T08:02:10.991Z</time></trkpt><trkpt lat="43.3085667" lon="13.23838"><ele>497.0</ele><time>2026-03-22T08:02:11.991Z</time></trkpt><trkpt lat="43.3084417" lon="13.2383733"><ele>500.0</ele><time>2026-03-22T08:02:12.991Z</time></trkpt><trkpt lat="43.30833" lon="13.2383583"><ele>503.0</ele><time>2026-03-22T08:02:13.991Z</time></trkpt><trkpt lat="43.3082283" lon="13.2383433"><ele>503.0</ele><time>2026-03-22T08:02:14.991Z</time></trkpt><trkpt lat="43.30813" lon="13.2383333"><ele>502.99999999999994</ele><time>2026-03-22T08:02:15.991Z</time></trkpt><trkpt lat="43.3080267" lon="13.2383283"><ele>502.99999999999994</ele><time>2026-03-22T08:02:16.99Z</time></trkpt><trkpt lat="43.30792" lon="13.2383233"><ele>503.0</ele><time>2026-03-22T08:02:17.991Z</time></trkpt><trkpt lat="43.3078133" lon="13.2383017"><ele>503.0</ele><time>2026-03-22T08:02:18.991Z</time></trkpt><trkpt lat="43.3077" lon="13.2382783"><ele>506.5</ele><time>2026-03-22T08:02:19.991Z</time></trkpt><trkpt lat="43.30758" lon="13.2382717"><ele>510.0</ele><time>2026-03-22T08:02:20.992Z</time></trkpt><trkpt lat="43.30746" lon="13.2382567"><ele>513.5</ele><time>2026-03-22T08:02:21.991Z</time></trkpt><trkpt lat="43.3073367" lon="13.238245"><ele>517.0</ele><time>2026-03-22T08:02:22.991Z</time></trkpt><trkpt lat="43.3072267" lon="13.2382433"><ele>520.6</ele><time>2026-03-22T08:02:23.991Z</time></trkpt><trkpt lat="43.3071217" lon="13.2382433"><ele>524.2</ele><time>2026-03-22T08:02:24.991Z</time></trkpt><trkpt lat="43.3070183" lon="13.2382517"><ele>527.8</ele><time>2026-03-22T08:02:25.991Z</time></trkpt><trkpt lat="43.3069183" lon="13.2382583"><ele>531.4</ele><time>2026-03-22T08:02:26.991Z</time></trkpt><trkpt lat="43.3068233" lon="13.2382667"><ele>535.0</ele><time>2026-03-22T08:02:27.991Z</time></trkpt><trkpt lat="43.3067233" lon="13.2382817"><ele>535.0</ele><time>2026-03-22T08:02:28.992Z</time></trkpt><trkpt lat="43.306625" lon="13.2382933"><ele>535.0</ele><time>2026-03-22T08:02:29.992Z</time></trkpt><trkpt lat="43.3065317" lon="13.2383"><ele>535.0</ele><time>2026-03-22T08:02:30.991Z</time></trkpt><trkpt lat="43.3064383" lon="13.238305"><ele>535.0</ele><time>2026-03-22T08:02:31.991Z</time></trkpt><trkpt lat="43.3063433" lon="13.238305"><ele>535.0</ele><time>2026-03-22T08:02:32.991Z</time></trkpt><trkpt lat="43.3062517" lon="13.238315"><ele>537.3333333333334</ele><time>2026-03-22T08:02:33.991Z</time></trkpt><trkpt lat="43.306165" lon="13.2383317"><ele>539.6666666666667</ele><time>2026-03-22T08:02:34.992Z</time></trkpt><trkpt lat="43.3060833" lon="13.238345"><ele>542.0</ele><time>2026-03-22T08:02:35.991Z</time></trkpt><trkpt lat="43.3060117" lon="13.238365"><ele>544.3333333333334</ele><time>2026-03-22T08:02:36.991Z</time></trkpt><trkpt lat="43.305905" lon="13.2383767"><ele>546.6666666666666</ele><time>2026-03-22T08:02:38.991Z</time></trkpt><trkpt lat="43.305825" lon="13.23833"><ele>549.0</ele><time>2026-03-22T08:02:40.991Z</time></trkpt><trkpt lat="43.3057633" lon="13.2381867"><ele>551.4285714285714</ele><time>2026-03-22T08:02:42.991Z</time></trkpt><trkpt lat="43.3057483" lon="13.238085"><ele>553.8571428571429</ele><time>2026-03-22T08:02:43.991Z</time></trkpt><trkpt lat="43.30574" lon="13.2379783"><ele>556.2857142857143</ele><time>2026-03-22T08:02:44.991Z</time></trkpt><trkpt lat="43.3057333" lon="13.2378683"><ele>558.7142857142858</ele><time>2026-03-22T08:02:45.991Z</time></trkpt><trkpt lat="43.3057283" lon="13.2377733"><ele>561.1428571428572</ele><time>2026-03-22T08:02:46.992Z</time></trkpt><trkpt lat="43.305745" lon="13.23768"><ele>563.5714285714286</ele><time>2026-03-22T08:02:47.991Z</time></trkpt><trkpt lat="43.3057733" lon="13.237595"><ele>566.0</ele><time>2026-03-22T08:02:48.991Z</time></trkpt><trkpt lat="43.3058167" lon="13.237515"><ele>566.0</ele><time>2026-03-22T08:02:49.992Z</time></trkpt><trkpt lat="43.3058733" lon="13.2374333"><ele>566.0</ele><time>2026-03-22T08:02:50.992Z</time></trkpt><trkpt lat="43.3059317" lon="13.237355"><ele>566.0</ele><time>2026-03-22T08:02:51.991Z</time></trkpt><trkpt lat="43.3059917" lon="13.2372783"><ele>566.0</ele><time>2026-03-22T08:02:52.991Z</time></trkpt><trkpt lat="43.3060433" lon="13.237185"><ele>566.0</ele><time>2026-03-22T08:02:53.991Z</time></trkpt><trkpt lat="43.3060917" lon="13.2370783"><ele>566.0</ele><time>2026-03-22T08:02:54.991Z</time></trkpt><trkpt lat="43.3061233" lon="13.2369667"><ele>568.5</ele><time>2026-03-22T08:02:55.991Z</time></trkpt><trkpt lat="43.30615" lon="13.2368517"><ele>571.0</ele><time>2026-03-22T08:02:56.991Z</time></trkpt><trkpt lat="43.3061517" lon="13.236735"><ele>573.5</ele><time>2026-03-22T08:02:57.991Z</time></trkpt><trkpt lat="43.3061417" lon="13.2366167"><ele>576.0</ele><time>2026-03-22T08:02:58.991Z</time></trkpt><trkpt lat="43.306135" lon="13.2364917"><ele>578.5</ele><time>2026-03-22T08:02:59.991Z</time></trkpt><trkpt lat="43.3061283" lon="13.2363617"><ele>581.0</ele><time>2026-03-22T08:03:00.991Z</time></trkpt><trkpt lat="43.30611" lon="13.2362283"><ele>581.5</ele><time>2026-03-22T08:03:01.991Z</time></trkpt><trkpt lat="43.3061017" lon="13.2361133"><ele>582.0</ele><time>2026-03-22T08:03:02.992Z</time></trkpt><trkpt lat="43.30609" lon="13.2360067"><ele>582.5</ele><time>2026-03-22T08:03:03.991Z</time></trkpt><trkpt lat="43.306075" lon="13.2359083"><ele>583.0</ele><time>2026-03-22T08:03:04.992Z</time></trkpt><trkpt lat="43.30606" lon="13.2358067"><ele>583.5</ele><time>2026-03-22T08:03:05.992Z</time></trkpt><trkpt lat="43.30605" lon="13.2357067"><ele>584.0</ele><time>2026-03-22T08:03:06.992Z</time></trkpt><trkpt lat="43.306025" lon="13.2356117"><ele>584.0</ele><time>2026-03-22T08:03:07.991Z</time></trkpt><trkpt lat="43.3060083" lon="13.2355133"><ele>584.0</ele><time>2026-03-22T08:03:08.991Z</time></trkpt><trkpt lat="43.3059867" lon="13.2354133"><ele>584.0</ele><time>2026-03-22T08:03:09.991Z</time></trkpt><trkpt lat="43.305955" lon="13.235305"><ele>584.0</ele><time>2026-03-22T08:03:10.992Z</time></trkpt><trkpt lat="43.3059167" lon="13.235185"><ele>584.0</ele><time>2026-03-22T08:03:11.991Z</time></trkpt><trkpt lat="43.3058767" lon="13.2350617"><ele>584.0</ele><time>2026-03-22T08:03:12.991Z</time></trkpt><trkpt lat="43.3058283" lon="13.234925"><ele>581.5</ele><time>2026-03-22T08:03:13.991Z</time></trkpt><trkpt lat="43.3057833" lon="13.23478"><ele>579.0</ele><time>2026-03-22T08:03:14.991Z</time></trkpt><trkpt lat="43.3057267" lon="13.234635"><ele>576.5</ele><time>2026-03-22T08:03:15.992Z</time></trkpt><trkpt lat="43.30567" lon="13.23449"><ele>574.0</ele><time>2026-03-22T08:03:16.991Z</time></trkpt><trkpt lat="43.3056083" lon="13.2343417"><ele>582.75</ele><time>2026-03-22T08:03:17.991Z</time></trkpt><trkpt lat="43.3055583" lon="13.2341867"><ele>591.5</ele><time>2026-03-22T08:03:18.992Z</time></trkpt><trkpt lat="43.3055017" lon="13.2340133"><ele>600.25</ele><time>2026-03-22T08:03:19.992Z</time></trkpt><trkpt lat="43.305445" lon="13.2338383"><ele>609.0</ele><time>2026-03-22T08:03:20.992Z</time></trkpt><trkpt lat="43.3053883" lon="13.2336583"><ele>609.0</ele><time>2026-03-22T08:03:21.991Z</time></trkpt><trkpt lat="43.305335" lon="13.23346"><ele>609.0</ele><time>2026-03-22T08:03:22.992Z</time></trkpt><trkpt lat="43.3052783" lon="13.2332683"><ele>609.0</ele><time>2026-03-22T08:03:23.991Z</time></trkpt><trkpt lat="43.3052233" lon="13.2330583"><ele>609.0</ele><time>2026-03-22T08:03:24.991Z</time></trkpt><trkpt lat="43.3051633" lon="13.23285"><ele>609.0</ele><time>2026-03-22T08:03:25.991Z</time></trkpt><trkpt lat="43.30512" lon="13.2326433"><ele>609.0</ele><time>2026-03-22T08:03:26.991Z</time></trkpt><trkpt lat="43.305075" lon="13.23243"><ele>608.25</ele><time>2026-03-22T08:03:27.991Z</time></trkpt><trkpt lat="43.305035" lon="13.2322467"><ele>607.5</ele><time>2026-03-22T08:03:28.991Z</time></trkpt><trkpt lat="43.304995" lon="13.2320817"><ele>606.75</ele><time>2026-03-22T08:03:29.991Z</time></trkpt><trkpt lat="43.30497" lon="13.231925"><ele>606.0</ele><time>2026-03-22T08:03:30.991Z</time></trkpt><trkpt lat="43.3049483" lon="13.231765"><ele>606.0</ele><time>2026-03-22T08:03:31.992Z</time></trkpt><trkpt lat="43.3049233" lon="13.2316083"><ele>606.0</ele><time>2026-03-22T08:03:32.992Z</time></trkpt><trkpt lat="43.304895" lon="13.2314417"><ele>606.0</ele><time>2026-03-22T08:03:33.991Z</time></trkpt><trkpt lat="43.3048617" lon="13.2312867"><ele>606.0</ele><time>2026-03-22T08:03:34.991Z</time></trkpt><trkpt lat="43.304805" lon="13.2311367"><ele>606.75</ele><time>2026-03-22T08:03:35.991Z</time></trkpt><trkpt lat="43.3047467" lon="13.2309917"><ele>607.5</ele><time>2026-03-22T08:03:36.991Z</time></trkpt><trkpt lat="43.3046933" lon="13.2308433"><ele>608.25</ele><time>2026-03-22T08:03:37.991Z</time></trkpt><trkpt lat="43.3046467" lon="13.2306933"><ele>609.0</ele><time>2026-03-22T08:03:38.992Z</time></trkpt><trkpt lat="43.3045967" lon="13.2305667"><ele>611.6666666666666</ele><time>2026-03-22T08:03:39.991Z</time></trkpt><trkpt lat="43.3045483" lon="13.2304683"><ele>614.3333333333334</ele><time>2026-03-22T08:03:40.991Z</time></trkpt><trkpt lat="43.3045017" lon="13.230385"><ele>617.0</ele><time>2026-03-22T08:03:41.991Z</time></trkpt><trkpt lat="43.30445" lon="13.230315"><ele>619.6666666666667</ele><time>2026-03-22T08:03:42.992Z</time></trkpt><trkpt lat="43.3043867" lon="13.2302733"><ele>622.3333333333334</ele><time>2026-03-22T08:03:43.992Z</time></trkpt><trkpt lat="43.3043183" lon="13.2302617"><ele>625.0</ele><time>2026-03-22T08:03:44.991Z</time></trkpt><trkpt lat="43.304235" lon="13.2302633"><ele>625.0</ele><time>2026-03-22T08:03:45.991Z</time></trkpt><trkpt lat="43.304155" lon="13.2302517"><ele>625.0</ele><time>2026-03-22T08:03:46.991Z</time></trkpt><trkpt lat="43.30407" lon="13.2302267"><ele>625.0</ele><time>2026-03-22T08:03:47.992Z</time></trkpt><trkpt lat="43.30399" lon="13.2301783"><ele>625.0</ele><time>2026-03-22T08:03:48.992Z</time></trkpt><trkpt lat="43.30392" lon="13.2301167"><ele>625.0</ele><time>2026-03-22T08:03:49.991Z</time></trkpt><trkpt lat="43.303845" lon="13.2300517"><ele>625.0</ele><time>2026-03-22T08:03:50.991Z</time></trkpt><trkpt lat="43.3037683" lon="13.2299733"><ele>627.2</ele><time>2026-03-22T08:03:51.991Z</time></trkpt><trkpt lat="43.3036883" lon="13.22989"><ele>629.4</ele><time>2026-03-22T08:03:52.991Z</time></trkpt><trkpt lat="43.3036233" lon="13.22981"><ele>631.6</ele><time>2026-03-22T08:03:53.991Z</time></trkpt><trkpt lat="43.3035717" lon="13.2297217"><ele>633.8</ele><time>2026-03-22T08:03:54.991Z</time></trkpt><trkpt lat="43.30352" lon="13.2296467"><ele>636.0</ele><time>2026-03-22T08:03:55.992Z</time></trkpt><trkpt lat="43.3034667" lon="13.22952"><ele>636.0</ele><time>2026-03-22T08:03:57.992Z</time></trkpt><trkpt lat="43.30343" lon="13.2294483"><ele>636.0</ele><time>2026-03-22T08:03:59.991Z</time></trkpt><trkpt lat="43.3033333" lon="13.229485"><ele>636.0</ele><time>2026-03-22T08:04:02.992Z</time></trkpt><trkpt lat="43.30323" lon="13.2295133"><ele>636.0</ele><time>2026-03-22T08:04:04.991Z</time></trkpt><trkpt lat="43.3031" lon="13.22952"><ele>636.0</ele><time>2026-03-22T08:04:06.991Z</time></trkpt><trkpt lat="43.303025" lon="13.2295283"><ele>638.6666666666666</ele><time>2026-03-22T08:04:07.991Z</time></trkpt><trkpt lat="43.3029383" lon="13.2295267"><ele>641.3333333333334</ele><time>2026-03-22T08:04:08.991Z</time></trkpt><trkpt lat="43.3028517" lon="13.22953"><ele>644.0</ele><time>2026-03-22T08:04:09.992Z</time></trkpt><trkpt lat="43.3027667" lon="13.229545"><ele>646.6666666666667</ele><time>2026-03-22T08:04:10.991Z</time></trkpt><trkpt lat="43.30268" lon="13.2295667"><ele>649.3333333333334</ele><time>2026-03-22T08:04:11.991Z</time></trkpt><trkpt lat="43.3026067" lon="13.229585"><ele>652.0</ele><time>2026-03-22T08:04:12.991Z</time></trkpt><trkpt lat="43.3025417" lon="13.229605"><ele>652.0</ele><time>2026-03-22T08:04:13.991Z</time></trkpt><trkpt lat="43.3024767" lon="13.2296183"><ele>652.0</ele><time>2026-03-22T08:04:14.991Z</time></trkpt><trkpt lat="43.3024067" lon="13.2296183"><ele>652.0</ele><time>2026-03-22T08:04:15.992Z</time></trkpt><trkpt lat="43.30234" lon="13.2296183"><ele>652.0</ele><time>2026-03-22T08:04:16.992Z</time></trkpt><trkpt lat="43.3022717" lon="13.2296233"><ele>652.0</ele><time>2026-03-22T08:04:17.991Z</time></trkpt><trkpt lat="43.3021967" lon="13.229625"><ele>652.0</ele><time>2026-03-22T08:04:18.991Z</time></trkpt><trkpt lat="43.3021183" lon="13.22963"><ele>652.0</ele><time>2026-03-22T08:04:19.991Z</time></trkpt><trkpt lat="43.3020483" lon="13.22964"><ele>654.0</ele><time>2026-03-22T08:04:20.991Z</time></trkpt><trkpt lat="43.3019417" lon="13.2296933"><ele>656.0</ele><time>2026-03-22T08:04:22.992Z</time></trkpt><trkpt lat="43.301885" lon="13.22974"><ele>658.0</ele><time>2026-03-22T08:04:23.991Z</time></trkpt><trkpt lat="43.301825" lon="13.2297917"><ele>660.0</ele><time>2026-03-22T08:04:24.992Z</time></trkpt><trkpt lat="43.3017617" lon="13.2298467"><ele>662.0</ele><time>2026-03-22T08:04:25.991Z</time></trkpt><trkpt lat="43.3016883" lon="13.2299167"><ele>664.0</ele><time>2026-03-22T08:04:26.991Z</time></trkpt><trkpt lat="43.3016233" lon="13.2299867"><ele>664.6</ele><time>2026-03-22T08:04:27.991Z</time></trkpt><trkpt lat="43.3015633" lon="13.2300833"><ele>665.2</ele><time>2026-03-22T08:04:28.992Z</time></trkpt><trkpt lat="43.3014967" lon="13.2301833"><ele>665.8000000000001</ele><time>2026-03-22T08:04:29.991Z</time></trkpt><trkpt lat="43.3014317" lon="13.2302783"><ele>666.4000000000001</ele><time>2026-03-22T08:04:30.992Z</time></trkpt><trkpt lat="43.3013667" lon="13.2303633"><ele>667.0</ele><time>2026-03-22T08:04:31.991Z</time></trkpt><trkpt lat="43.3013117" lon="13.2304433"><ele>667.4285714285714</ele><time>2026-03-22T08:04:32.991Z</time></trkpt><trkpt lat="43.3012633" lon="13.2305183"><ele>667.8571428571429</ele><time>2026-03-22T08:04:33.991Z</time></trkpt><trkpt lat="43.3012183" lon="13.2305917"><ele>668.2857142857142</ele><time>2026-03-22T08:04:34.991Z</time></trkpt><trkpt lat="43.3011733" lon="13.2306567"><ele>668.7142857142858</ele><time>2026-03-22T08:04:35.991Z</time></trkpt><trkpt lat="43.301095" lon="13.2307433"><ele>669.1428571428571</ele><time>2026-03-22T08:04:37.991Z</time></trkpt><trkpt lat="43.3010433" lon="13.2308067"><ele>669.5714285714286</ele><time>2026-03-22T08:04:39.991Z</time></trkpt><trkpt lat="43.300985" lon="13.2308517"><ele>670.0</ele><time>2026-03-22T08:04:43.991Z</time></trkpt><trkpt lat="43.30094" lon="13.230965"><ele>670.0</ele><time>2026-03-22T08:07:45.992Z</time></trkpt><trkpt lat="43.30101" lon="13.2309733"><ele>670.0</ele><time>2026-03-22T08:20:57.991Z</time></trkpt><trkpt lat="43.3010817" lon="13.2308583"><ele>670.0</ele><time>2026-03-22T08:21:49.991Z</time></trkpt><trkpt lat="43.3010417" lon="13.2307583"><ele>670.0</ele><time>2026-03-22T08:21:57.991Z</time></trkpt><trkpt lat="43.3010267" lon="13.2306667"><ele>670.0</ele><time>2026-03-22T08:22:00.991Z</time></trkpt><trkpt lat="43.300995" lon="13.2305633"><ele>670.0</ele><time>2026-03-22T08:22:02.991Z</time></trkpt><trkpt lat="43.3009517" lon="13.2304683"><ele>670.3333333333334</ele><time>2026-03-22T08:22:04.991Z</time></trkpt><trkpt lat="43.3009383" lon="13.23038"><ele>670.6666666666667</ele><time>2026-03-22T08:22:06.991Z</time></trkpt><trkpt lat="43.30087" lon="13.2303017"><ele>671.0</ele><time>2026-03-22T08:22:09.991Z</time></trkpt><trkpt lat="43.30081" lon="13.23027"><ele>671.3333333333334</ele><time>2026-03-22T08:22:11.991Z</time></trkpt><trkpt lat="43.3007317" lon="13.2302533"><ele>671.6666666666666</ele><time>2026-03-22T08:22:13.991Z</time></trkpt><trkpt lat="43.3006417" lon="13.23023"><ele>672.0</ele><time>2026-03-22T08:22:15.992Z</time></trkpt><trkpt lat="43.30054" lon="13.2301733"><ele>671.5</ele><time>2026-03-22T08:22:17.991Z</time></trkpt><trkpt lat="43.30043" lon="13.230105"><ele>671.0</ele><time>2026-03-22T08:22:19.991Z</time></trkpt><trkpt lat="43.300355" lon="13.2300417"><ele>670.5</ele><time>2026-03-22T08:22:21.991Z</time></trkpt><trkpt lat="43.3003017" lon="13.229965"><ele>670.0</ele><time>2026-03-22T08:22:23.991Z</time></trkpt><trkpt lat="43.3002633" lon="13.2298533"><ele>669.5</ele><time>2026-03-22T08:22:26.991Z</time></trkpt><trkpt lat="43.3002183" lon="13.2297767"><ele>669.0</ele><time>2026-03-22T08:22:28.991Z</time></trkpt><trkpt lat="43.3001717" lon="13.2296833"><ele>669.0</ele><time>2026-03-22T08:22:30.991Z</time></trkpt><trkpt lat="43.300125" lon="13.2295967"><ele>669.0</ele><time>2026-03-22T08:22:32.991Z</time></trkpt><trkpt lat="43.30007" lon="13.2295267"><ele>669.0</ele><time>2026-03-22T08:22:34.991Z</time></trkpt><trkpt lat="43.3000117" lon="13.229425"><ele>669.0</ele><time>2026-03-22T08:22:37.992Z</time></trkpt><trkpt lat="43.2999583" lon="13.2293783"><ele>669.0</ele><time>2026-03-22T08:22:39.991Z</time></trkpt><trkpt lat="43.2999" lon="13.229285"><ele>669.0</ele><time>2026-03-22T08:22:41.992Z</time></trkpt><trkpt lat="43.2998417" lon="13.2292033"><ele>669.0</ele><time>2026-03-22T08:22:43.991Z</time></trkpt><trkpt lat="43.2997817" lon="13.229155"><ele>669.0</ele><time>2026-03-22T08:22:45.991Z</time></trkpt><trkpt lat="43.299705" lon="13.22912"><ele>669.0</ele><time>2026-03-22T08:22:48.991Z</time></trkpt><trkpt lat="43.2996483" lon="13.2291767"><ele>669.0</ele><time>2026-03-22T08:22:52.991Z</time></trkpt><trkpt lat="43.2996667" lon="13.2292833"><ele>669.0</ele><time>2026-03-22T08:22:55.992Z</time></trkpt><trkpt lat="43.2996317" lon="13.2293983"><ele>669.0</ele><time>2026-03-22T08:22:58.991Z</time></trkpt><trkpt lat="43.2995617" lon="13.229385"><ele>664.8333333333334</ele><time>2026-03-22T08:23:02.991Z</time></trkpt><trkpt lat="43.29949" lon="13.2293283"><ele>660.6666666666666</ele><time>2026-03-22T08:23:05.991Z</time></trkpt><trkpt lat="43.2994217" lon="13.2293183"><ele>656.5</ele><time>2026-03-22T08:23:09.992Z</time></trkpt><trkpt lat="43.299345" lon="13.2293367"><ele>652.3333333333333</ele><time>2026-03-22T08:23:13.991Z</time></trkpt><trkpt lat="43.299305" lon="13.2294183"><ele>648.1666666666666</ele><time>2026-03-22T08:23:16.991Z</time></trkpt><trkpt lat="43.29925" lon="13.22948"><ele>644.0</ele><time>2026-03-22T08:23:20.991Z</time></trkpt><trkpt lat="43.299185" lon="13.229565"><ele>644.0</ele><time>2026-03-22T08:23:23.991Z</time></trkpt><trkpt lat="43.2991483" lon="13.22968"><ele>644.0</ele><time>2026-03-22T08:23:25.991Z</time></trkpt><trkpt lat="43.29913" lon="13.2298083"><ele>644.0</ele><time>2026-03-22T08:23:27.991Z</time></trkpt><trkpt lat="43.2991067" lon="13.2298983"><ele>644.0</ele><time>2026-03-22T08:23:29.991Z</time></trkpt><trkpt lat="43.2990367" lon="13.2298867"><ele>644.0</ele><time>2026-03-22T08:23:32.991Z</time></trkpt><trkpt lat="43.2989617" lon="13.2298333"><ele>644.0</ele><time>2026-03-22T08:23:35.991Z</time></trkpt><trkpt lat="43.2988783" lon="13.2298617"><ele>638.0</ele><time>2026-03-22T08:23:38.991Z</time></trkpt><trkpt lat="43.2987983" lon="13.229905"><ele>632.0</ele><time>2026-03-22T08:23:41.991Z</time></trkpt><trkpt lat="43.2987333" lon="13.2298617"><ele>626.0</ele><time>2026-03-22T08:23:44.992Z</time></trkpt><trkpt lat="43.2986867" lon="13.2297783"><ele>620.0</ele><time>2026-03-22T08:23:47.991Z</time></trkpt><trkpt lat="43.2986117" lon="13.229735"><ele>614.0</ele><time>2026-03-22T08:23:50.992Z</time></trkpt><trkpt lat="43.2985583" lon="13.22963"><ele>608.0</ele><time>2026-03-22T08:23:53.992Z</time></trkpt><trkpt lat="43.2985117" lon="13.2294967"><ele>608.0</ele><time>2026-03-22T08:23:55.991Z</time></trkpt><trkpt lat="43.2984567" lon="13.2293467"><ele>608.0</ele><time>2026-03-22T08:23:57.991Z</time></trkpt><trkpt lat="43.2984183" lon="13.22926"><ele>608.0</ele><time>2026-03-22T08:23:58.991Z</time></trkpt><trkpt lat="43.2983883" lon="13.2291683"><ele>608.0</ele><time>2026-03-22T08:23:59.991Z</time></trkpt><trkpt lat="43.2983633" lon="13.229085"><ele>608.0</ele><time>2026-03-22T08:24:00.991Z</time></trkpt><trkpt lat="43.2983167" lon="13.229"><ele>608.0</ele><time>2026-03-22T08:24:02.991Z</time></trkpt><trkpt lat="43.298255" lon="13.22897"><ele>608.1666666666666</ele><time>2026-03-22T08:24:05.991Z</time></trkpt><trkpt lat="43.298215" lon="13.228865"><ele>608.3333333333333</ele><time>2026-03-22T08:24:09.992Z</time></trkpt><trkpt lat="43.2981617" lon="13.228765"><ele>608.5</ele><time>2026-03-22T08:24:12.992Z</time></trkpt><trkpt lat="43.2980883" lon="13.2287133"><ele>608.6666666666666</ele><time>2026-03-22T08:24:15.991Z</time></trkpt><trkpt lat="43.2980217" lon="13.2286967"><ele>608.8333333333334</ele><time>2026-03-22T08:24:18.991Z</time></trkpt><trkpt lat="43.2979583" lon="13.2287183"><ele>609.0</ele><time>2026-03-22T08:24:33.991Z</time></trkpt><trkpt lat="43.2978883" lon="13.2287233"><ele>604.6666666666666</ele><time>2026-03-22T08:24:36.992Z</time></trkpt><trkpt lat="43.2978233" lon="13.2287883"><ele>600.3333333333334</ele><time>2026-03-22T08:24:39.991Z</time></trkpt><trkpt lat="43.297735" lon="13.22885"><ele>596.0</ele><time>2026-03-22T08:24:42.991Z</time></trkpt><trkpt lat="43.297665" lon="13.228855"><ele>591.6666666666667</ele><time>2026-03-22T08:24:44.991Z</time></trkpt><trkpt lat="43.2975933" lon="13.2288333"><ele>587.3333333333334</ele><time>2026-03-22T08:24:46.991Z</time></trkpt><trkpt lat="43.2975367" lon="13.2287867"><ele>583.0</ele><time>2026-03-22T08:24:49.991Z</time></trkpt><trkpt lat="43.2974717" lon="13.2287083"><ele>583.0</ele><time>2026-03-22T08:24:52.992Z</time></trkpt><trkpt lat="43.2973767" lon="13.2287217"><ele>583.0</ele><time>2026-03-22T08:24:55.992Z</time></trkpt><trkpt lat="43.2972817" lon="13.2287533"><ele>583.0</ele><time>2026-03-22T08:24:57.992Z</time></trkpt><trkpt lat="43.29721" lon="13.2287783"><ele>583.0</ele><time>2026-03-22T08:24:59.991Z</time></trkpt><trkpt lat="43.2971217" lon="13.22873"><ele>583.0</ele><time>2026-03-22T08:25:02.991Z</time></trkpt><trkpt lat="43.2970667" lon="13.22867"><ele>583.0</ele><time>2026-03-22T08:25:04.991Z</time></trkpt><trkpt lat="43.2969833" lon="13.228635"><ele>580.0000000000001</ele><time>2026-03-22T08:25:07.991Z</time></trkpt><trkpt lat="43.2969067" lon="13.2286283"><ele>577.0</ele><time>2026-03-22T08:25:10.991Z</time></trkpt><trkpt lat="43.29685" lon="13.2285717"><ele>574.0</ele><time>2026-03-22T08:25:18.991Z</time></trkpt><trkpt lat="43.2968017" lon="13.228515"><ele>571.0</ele><time>2026-03-22T08:25:22.991Z</time></trkpt><trkpt lat="43.2967383" lon="13.2285"><ele>568.0</ele><time>2026-03-22T08:25:25.991Z</time></trkpt><trkpt lat="43.29667" lon="13.22848"><ele>565.0000000000001</ele><time>2026-03-22T08:25:28.992Z</time></trkpt><trkpt lat="43.2965933" lon="13.2284933"><ele>562.0</ele><time>2026-03-22T08:25:31.991Z</time></trkpt><trkpt lat="43.2964883" lon="13.2284717"><ele>562.0</ele><time>2026-03-22T08:25:36.991Z</time></trkpt><trkpt lat="43.2964217" lon="13.22846"><ele>562.0</ele><time>2026-03-22T08:25:38.991Z</time></trkpt><trkpt lat="43.296345" lon="13.2284267"><ele>562.0</ele><time>2026-03-22T08:25:40.991Z</time></trkpt><trkpt lat="43.2962817" lon="13.22838"><ele>562.0</ele><time>2026-03-22T08:25:42.991Z</time></trkpt><trkpt lat="43.29621" lon="13.2283417"><ele>562.0</ele><time>2026-03-22T08:25:44.992Z</time></trkpt><trkpt lat="43.2961267" lon="13.2283283"><ele>562.0</ele><time>2026-03-22T08:25:46.991Z</time></trkpt><trkpt lat="43.296045" lon="13.2283683"><ele>558.5</ele><time>2026-03-22T08:25:49.991Z</time></trkpt><trkpt lat="43.29602" lon="13.2284833"><ele>555.0</ele><time>2026-03-22T08:25:51.991Z</time></trkpt><trkpt lat="43.29598" lon="13.22856"><ele>551.5</ele><time>2026-03-22T08:25:53.991Z</time></trkpt><trkpt lat="43.2959117" lon="13.2286"><ele>548.0</ele><time>2026-03-22T08:25:55.991Z</time></trkpt><trkpt lat="43.2958383" lon="13.2286417"><ele>544.5</ele><time>2026-03-22T08:25:57.991Z</time></trkpt><trkpt lat="43.295775" lon="13.2287183"><ele>541.0</ele><time>2026-03-22T08:25:59.991Z</time></trkpt><trkpt lat="43.295715" lon="13.22876"><ele>541.0000000000001</ele><time>2026-03-22T08:26:01.991Z</time></trkpt><trkpt lat="43.295645" lon="13.22876"><ele>541.0</ele><time>2026-03-22T08:26:03.992Z</time></trkpt><trkpt lat="43.2955833" lon="13.2287233"><ele>541.0</ele><time>2026-03-22T08:26:05.991Z</time></trkpt><trkpt lat="43.2955267" lon="13.228665"><ele>541.0</ele><time>2026-03-22T08:26:07.991Z</time></trkpt><trkpt lat="43.295475" lon="13.2285933"><ele>541.0</ele><time>2026-03-22T08:26:09.991Z</time></trkpt><trkpt lat="43.2954233" lon="13.22852"><ele>541.0000000000001</ele><time>2026-03-22T08:26:11.991Z</time></trkpt><trkpt lat="43.295375" lon="13.2284417"><ele>541.0</ele><time>2026-03-22T08:26:13.991Z</time></trkpt><trkpt lat="43.295335" lon="13.2283633"><ele>537.3333333333334</ele><time>2026-03-22T08:26:15.991Z</time></trkpt><trkpt lat="43.2952817" lon="13.2282567"><ele>533.6666666666667</ele><time>2026-03-22T08:26:18.992Z</time></trkpt><trkpt lat="43.2952667" lon="13.2281233"><ele>530.0</ele><time>2026-03-22T08:26:21.992Z</time></trkpt><trkpt lat="43.2952517" lon="13.2280233"><ele>526.3333333333334</ele><time>2026-03-22T08:26:23.991Z</time></trkpt><trkpt lat="43.2951817" lon="13.2280083"><ele>522.6666666666666</ele><time>2026-03-22T08:26:27.991Z</time></trkpt><trkpt lat="43.2951333" lon="13.2280683"><ele>519.0</ele><time>2026-03-22T08:26:29.992Z</time></trkpt><trkpt lat="43.2950667" lon="13.228125"><ele>518.8333333333334</ele><time>2026-03-22T08:26:32.992Z</time></trkpt><trkpt lat="43.2950333" lon="13.2282467"><ele>518.6666666666666</ele><time>2026-03-22T08:26:35.992Z</time></trkpt><trkpt lat="43.29499" lon="13.2283267"><ele>518.5</ele><time>2026-03-22T08:26:37.991Z</time></trkpt><trkpt lat="43.2949233" lon="13.228365"><ele>518.3333333333333</ele><time>2026-03-22T08:26:39.991Z</time></trkpt><trkpt lat="43.29486" lon="13.2283917"><ele>518.1666666666666</ele><time>2026-03-22T08:26:41.992Z</time></trkpt><trkpt lat="43.2948183" lon="13.2284917"><ele>518.0</ele><time>2026-03-22T08:26:44.991Z</time></trkpt><trkpt lat="43.294755" lon="13.2285233"><ele>512.5</ele><time>2026-03-22T08:26:48.992Z</time></trkpt><trkpt lat="43.2946733" lon="13.22849"><ele>507.0</ele><time>2026-03-22T08:26:51.991Z</time></trkpt><trkpt lat="43.2945983" lon="13.2285483"><ele>501.5</ele><time>2026-03-22T08:26:54.991Z</time></trkpt><trkpt lat="43.294545" lon="13.228605"><ele>496.0</ele><time>2026-03-22T08:26:56.991Z</time></trkpt><trkpt lat="43.2945017" lon="13.2286767"><ele>490.49999999999994</ele><time>2026-03-22T08:26:58.991Z</time></trkpt><trkpt lat="43.2944517" lon="13.2287683"><ele>485.0</ele><time>2026-03-22T08:27:00.991Z</time></trkpt><trkpt lat="43.2944" lon="13.22889"><ele>484.66666666666663</ele><time>2026-03-22T08:27:02.991Z</time></trkpt><trkpt lat="43.294375" lon="13.22898"><ele>484.3333333333333</ele><time>2026-03-22T08:27:04.992Z</time></trkpt><trkpt lat="43.2943217" lon="13.22906"><ele>484.0</ele><time>2026-03-22T08:27:06.991Z</time></trkpt><trkpt lat="43.2942483" lon="13.229165"><ele>483.66666666666663</ele><time>2026-03-22T08:27:08.991Z</time></trkpt><trkpt lat="43.2941683" lon="13.2292717"><ele>483.3333333333333</ele><time>2026-03-22T08:27:10.991Z</time></trkpt><trkpt lat="43.2941133" lon="13.2293517"><ele>483.0</ele><time>2026-03-22T08:27:12.991Z</time></trkpt><trkpt lat="43.2940567" lon="13.22942"><ele>483.0</ele><time>2026-03-22T08:27:14.992Z</time></trkpt><trkpt lat="43.2940083" lon="13.2294817"><ele>483.0</ele><time>2026-03-22T08:27:16.991Z</time></trkpt><trkpt lat="43.2939783" lon="13.22958"><ele>483.0</ele><time>2026-03-22T08:27:19.991Z</time></trkpt><trkpt lat="43.2939417" lon="13.2296567"><ele>483.0</ele><time>2026-03-22T08:27:22.991Z</time></trkpt><trkpt lat="43.2938417" lon="13.2298217"><ele>483.0</ele><time>2026-03-22T08:27:39.991Z</time></trkpt><trkpt lat="43.293805" lon="13.2298983"><ele>483.0</ele><time>2026-03-22T08:27:42.991Z</time></trkpt><trkpt lat="43.2937367" lon="13.229935"><ele>477.5</ele><time>2026-03-22T08:27:46.991Z</time></trkpt><trkpt lat="43.2936717" lon="13.229995"><ele>472.0</ele><time>2026-03-22T08:27:49.991Z</time></trkpt><trkpt lat="43.2936133" lon="13.2300717"><ele>466.5</ele><time>2026-03-22T08:27:52.991Z</time></trkpt><trkpt lat="43.2935933" lon="13.2301867"><ele>461.0</ele><time>2026-03-22T08:27:55.992Z</time></trkpt><trkpt lat="43.2935283" lon="13.23023"><ele>455.5</ele><time>2026-03-22T08:27:58.991Z</time></trkpt><trkpt lat="43.293465" lon="13.2301517"><ele>450.0</ele><time>2026-03-22T08:28:02.991Z</time></trkpt><trkpt lat="43.29338" lon="13.2301233"><ele>450.0</ele><time>2026-03-22T08:28:05.991Z</time></trkpt><trkpt lat="43.2933133" lon="13.2300833"><ele>450.0</ele><time>2026-03-22T08:28:08.991Z</time></trkpt><trkpt lat="43.29324" lon="13.2300333"><ele>450.0</ele><time>2026-03-22T08:28:11.991Z</time></trkpt><trkpt lat="43.293175" lon="13.2299767"><ele>450.0</ele><time>2026-03-22T08:28:14.991Z</time></trkpt><trkpt lat="43.2931083" lon="13.22993"><ele>450.0</ele><time>2026-03-22T08:28:17.991Z</time></trkpt><trkpt lat="43.29303" lon="13.22989"><ele>450.0</ele><time>2026-03-22T08:28:21.992Z</time></trkpt><trkpt lat="43.2929667" lon="13.2298667"><ele>445.8333333333333</ele><time>2026-03-22T08:28:24.991Z</time></trkpt><trkpt lat="43.2928683" lon="13.22985"><ele>441.66666666666663</ele><time>2026-03-22T08:28:28.991Z</time></trkpt><trkpt lat="43.2927967" lon="13.2298183"><ele>437.5</ele><time>2026-03-22T08:28:31.991Z</time></trkpt><trkpt lat="43.292715" lon="13.229805"><ele>433.3333333333333</ele><time>2026-03-22T08:28:35.992Z</time></trkpt><trkpt lat="43.2926417" lon="13.2297733"><ele>429.16666666666663</ele><time>2026-03-22T08:28:38.991Z</time></trkpt><trkpt lat="43.2925683" lon="13.2297433"><ele>425.0</ele><time>2026-03-22T08:28:41.992Z</time></trkpt><trkpt lat="43.292505" lon="13.2297267"><ele>424.49999999999994</ele><time>2026-03-22T08:28:43.992Z</time></trkpt><trkpt lat="43.2924367" lon="13.2297267"><ele>424.0</ele><time>2026-03-22T08:28:45.991Z</time></trkpt><trkpt lat="43.2923717" lon="13.2297017"><ele>423.5</ele><time>2026-03-22T08:28:49.992Z</time></trkpt><trkpt lat="43.2922917" lon="13.229555"><ele>423.0</ele><time>2026-03-22T08:30:12.992Z</time></trkpt><trkpt lat="43.2922383" lon="13.2294883"><ele>422.49999999999994</ele><time>2026-03-22T08:30:15.991Z</time></trkpt><trkpt lat="43.2922" lon="13.2294117"><ele>422.0</ele><time>2026-03-22T08:30:17.991Z</time></trkpt><trkpt lat="43.292135" lon="13.2293433"><ele>417.6</ele><time>2026-03-22T08:30:19.991Z</time></trkpt><trkpt lat="43.2920417" lon="13.2292883"><ele>413.20000000000005</ele><time>2026-03-22T08:30:21.991Z</time></trkpt><trkpt lat="43.29195" lon="13.2292267"><ele>408.8</ele><time>2026-03-22T08:30:23.992Z</time></trkpt><trkpt lat="43.2918683" lon="13.2291583"><ele>404.4</ele><time>2026-03-22T08:30:25.992Z</time></trkpt><trkpt lat="43.2917583" lon="13.229095"><ele>400.0</ele><time>2026-03-22T08:30:27.991Z</time></trkpt><trkpt lat="43.2916517" lon="13.2290567"><ele>400.0</ele><time>2026-03-22T08:30:29.991Z</time></trkpt><trkpt lat="43.2915717" lon="13.2289783"><ele>400.0</ele><time>2026-03-22T08:30:31.991Z</time></trkpt><trkpt lat="43.2914983" lon="13.228905"><ele>400.0</ele><time>2026-03-22T08:30:33.991Z</time></trkpt><trkpt lat="43.2914133" lon="13.228845"><ele>400.0</ele><time>2026-03-22T08:30:35.991Z</time></trkpt><trkpt lat="43.29134" lon="13.2287767"><ele>400.0</ele><time>2026-03-22T08:30:37.991Z</time></trkpt><trkpt lat="43.2913167" lon="13.2286717"><ele>397.00000000000006</ele><time>2026-03-22T08:30:40.992Z</time></trkpt><trkpt lat="43.291275" lon="13.2285917"><ele>394.0</ele><time>2026-03-22T08:30:43.991Z</time></trkpt><trkpt lat="43.291205" lon="13.2285517"><ele>391.0</ele><time>2026-03-22T08:30:45.991Z</time></trkpt><trkpt lat="43.2911433" lon="13.2284983"><ele>388.0</ele><time>2026-03-22T08:30:47.991Z</time></trkpt><trkpt lat="43.29109" lon="13.2284083"><ele>385.0</ele><time>2026-03-22T08:30:49.991Z</time></trkpt><trkpt lat="43.29103" lon="13.228275"><ele>382.0</ele><time>2026-03-22T08:30:51.991Z</time></trkpt><trkpt lat="43.2910083" lon="13.2281333"><ele>380.40000000000003</ele><time>2026-03-22T08:30:53.992Z</time></trkpt><trkpt lat="43.2910033" lon="13.2279833"><ele>378.8</ele><time>2026-03-22T08:30:55.992Z</time></trkpt><trkpt lat="43.2910483" lon="13.22784"><ele>377.2</ele><time>2026-03-22T08:30:57.992Z</time></trkpt><trkpt lat="43.2910783" lon="13.2277533"><ele>375.6</ele><time>2026-03-22T08:30:58.992Z</time></trkpt><trkpt lat="43.2911083" lon="13.2276617"><ele>374.0</ele><time>2026-03-22T08:30:59.992Z</time></trkpt><trkpt lat="43.2911417" lon="13.227495"><ele>374.0</ele><time>2026-03-22T08:31:01.992Z</time></trkpt><trkpt lat="43.29119" lon="13.2273417"><ele>374.0</ele><time>2026-03-22T08:31:03.991Z</time></trkpt><trkpt lat="43.2912267" lon="13.2272633"><ele>374.0</ele><time>2026-03-22T08:31:04.991Z</time></trkpt><trkpt lat="43.291265" lon="13.2271867"><ele>374.0</ele><time>2026-03-22T08:31:05.992Z</time></trkpt><trkpt lat="43.29131" lon="13.2271167"><ele>374.0</ele><time>2026-03-22T08:31:06.991Z</time></trkpt><trkpt lat="43.29139" lon="13.2269717"><ele>376.4</ele><time>2026-03-22T08:31:08.992Z</time></trkpt><trkpt lat="43.2914617" lon="13.2268333"><ele>378.79999999999995</ele><time>2026-03-22T08:31:10.991Z</time></trkpt><trkpt lat="43.29152" lon="13.2266983"><ele>381.20000000000005</ele><time>2026-03-22T08:31:12.991Z</time></trkpt><trkpt lat="43.2915783" lon="13.2265967"><ele>383.6</ele><time>2026-03-22T08:31:14.991Z</time></trkpt><trkpt lat="43.2916483" lon="13.2265383"><ele>386.0</ele><time>2026-03-22T08:31:16.991Z</time></trkpt><trkpt lat="43.2917117" lon="13.2265017"><ele>385.99999999999994</ele><time>2026-03-22T08:31:18.992Z</time></trkpt><trkpt lat="43.2917983" lon="13.2265417"><ele>386.0</ele><time>2026-03-22T08:31:21.991Z</time></trkpt><trkpt lat="43.2919117" lon="13.22652"><ele>386.0</ele><time>2026-03-22T08:31:23.991Z</time></trkpt><trkpt lat="43.2919817" lon="13.2265067"><ele>386.0</ele><time>2026-03-22T08:31:24.992Z</time></trkpt><trkpt lat="43.29204" lon="13.2264633"><ele>385.99999999999994</ele><time>2026-03-22T08:31:25.991Z</time></trkpt><trkpt lat="43.292095" lon="13.2264017"><ele>386.0</ele><time>2026-03-22T08:31:26.992Z</time></trkpt><trkpt lat="43.2921533" lon="13.226345"><ele>385.49999999999994</ele><time>2026-03-22T08:31:27.991Z</time></trkpt><trkpt lat="43.292215" lon="13.22628"><ele>385.0</ele><time>2026-03-22T08:31:28.991Z</time></trkpt><trkpt lat="43.2922817" lon="13.22621"><ele>384.5</ele><time>2026-03-22T08:31:29.992Z</time></trkpt><trkpt lat="43.292345" lon="13.22614"><ele>384.0</ele><time>2026-03-22T08:31:30.992Z</time></trkpt><trkpt lat="43.29241" lon="13.226075"><ele>383.5</ele><time>2026-03-22T08:31:31.991Z</time></trkpt><trkpt lat="43.2924733" lon="13.2260183"><ele>383.0</ele><time>2026-03-22T08:31:32.991Z</time></trkpt><trkpt lat="43.2925417" lon="13.225955"><ele>385.2857142857143</ele><time>2026-03-22T08:31:33.991Z</time></trkpt><trkpt lat="43.292615" lon="13.2258983"><ele>387.57142857142856</ele><time>2026-03-22T08:31:34.991Z</time></trkpt><trkpt lat="43.29268" lon="13.22584"><ele>389.8571428571429</ele><time>2026-03-22T08:31:35.991Z</time></trkpt><trkpt lat="43.2927317" lon="13.2257833"><ele>392.1428571428571</ele><time>2026-03-22T08:31:36.991Z</time></trkpt><trkpt lat="43.2927883" lon="13.2257333"><ele>394.42857142857144</ele><time>2026-03-22T08:31:37.991Z</time></trkpt><trkpt lat="43.29285" lon="13.2256767"><ele>396.7142857142857</ele><time>2026-03-22T08:31:38.991Z</time></trkpt><trkpt lat="43.2929117" lon="13.2256217"><ele>399.0</ele><time>2026-03-22T08:31:39.992Z</time></trkpt><trkpt lat="43.2929683" lon="13.2255583"><ele>399.0</ele><time>2026-03-22T08:31:40.992Z</time></trkpt><trkpt lat="43.2930233" lon="13.2255083"><ele>399.0</ele><time>2026-03-22T08:31:41.991Z</time></trkpt><trkpt lat="43.2930733" lon="13.225455"><ele>399.0</ele><time>2026-03-22T08:31:42.991Z</time></trkpt><trkpt lat="43.293125" lon="13.2253983"><ele>399.0</ele><time>2026-03-22T08:31:43.991Z</time></trkpt><trkpt lat="43.293185" lon="13.2253517"><ele>399.0</ele><time>2026-03-22T08:31:44.991Z</time></trkpt><trkpt lat="43.293245" lon="13.2252917"><ele>399.0</ele><time>2026-03-22T08:31:45.991Z</time></trkpt><trkpt lat="43.29331" lon="13.2252383"><ele>399.0</ele><time>2026-03-22T08:31:46.991Z</time></trkpt><trkpt lat="43.2933633" lon="13.2251783"><ele>402.0</ele><time>2026-03-22T08:31:47.992Z</time></trkpt><trkpt lat="43.2934233" lon="13.225125"><ele>405.0</ele><time>2026-03-22T08:31:48.991Z</time></trkpt><trkpt lat="43.2934817" lon="13.2250683"><ele>408.0</ele><time>2026-03-22T08:31:49.991Z</time></trkpt><trkpt lat="43.29354" lon="13.2250217"><ele>411.0</ele><time>2026-03-22T08:31:50.992Z</time></trkpt><trkpt lat="43.2936383" lon="13.2249333"><ele>414.0</ele><time>2026-03-22T08:31:52.991Z</time></trkpt><trkpt lat="43.2937317" lon="13.2248483"><ele>417.0</ele><time>2026-03-22T08:31:54.991Z</time></trkpt><trkpt lat="43.293775" lon="13.2247833"><ele>417.0</ele><time>2026-03-22T08:31:55.991Z</time></trkpt><trkpt lat="43.2938317" lon="13.2247183"><ele>417.0</ele><time>2026-03-22T08:31:56.991Z</time></trkpt><trkpt lat="43.2938867" lon="13.2246517"><ele>417.0</ele><time>2026-03-22T08:31:57.991Z</time></trkpt><trkpt lat="43.2939417" lon="13.2245817"><ele>417.0</ele><time>2026-03-22T08:31:58.992Z</time></trkpt><trkpt lat="43.2940017" lon="13.2245333"><ele>417.0</ele><time>2026-03-22T08:31:59.991Z</time></trkpt><trkpt lat="43.2940533" lon="13.2244817"><ele>417.0</ele><time>2026-03-22T08:32:00.991Z</time></trkpt><trkpt lat="43.2941017" lon="13.2244133"><ele>417.0</ele><time>2026-03-22T08:32:01.992Z</time></trkpt><trkpt lat="43.2942033" lon="13.2243117"><ele>420.40000000000003</ele><time>2026-03-22T08:32:03.991Z</time></trkpt><trkpt lat="43.2943" lon="13.22422"><ele>423.8</ele><time>2026-03-22T08:32:05.992Z</time></trkpt><trkpt lat="43.2943467" lon="13.2241583"><ele>427.2</ele><time>2026-03-22T08:32:06.991Z</time></trkpt><trkpt lat="43.2944367" lon="13.2240533"><ele>430.6</ele><time>2026-03-22T08:32:08.991Z</time></trkpt><trkpt lat="43.2945217" lon="13.2239333"><ele>434.0</ele><time>2026-03-22T08:32:10.991Z</time></trkpt><trkpt lat="43.2945967" lon="13.22381"><ele>434.0</ele><time>2026-03-22T08:32:12.992Z</time></trkpt><trkpt lat="43.2946933" lon="13.2237133"><ele>434.0</ele><time>2026-03-22T08:32:14.991Z</time></trkpt><trkpt lat="43.2948033" lon="13.2236683"><ele>434.0</ele><time>2026-03-22T08:32:16.991Z</time></trkpt><trkpt lat="43.2949051" lon="13.2236783"><ele>434.0</ele><time>2026-03-22T08:32:18.991Z</time></trkpt><trkpt lat="43.2950093" lon="13.2237006"><ele>434.0</ele><time>2026-03-22T08:32:20.991Z</time></trkpt><trkpt lat="43.2950996" lon="13.2237407"><ele>441.6</ele><time>2026-03-22T08:32:22.991Z</time></trkpt><trkpt lat="43.2951787" lon="13.2237868"><ele>449.2</ele><time>2026-03-22T08:32:24.991Z</time></trkpt><trkpt lat="43.2952594" lon="13.2238085"><ele>456.80000000000007</ele><time>2026-03-22T08:32:26.991Z</time></trkpt><trkpt lat="43.295357" lon="13.2238054"><ele>464.40000000000003</ele><time>2026-03-22T08:32:28.991Z</time></trkpt><trkpt lat="43.2954572" lon="13.223803"><ele>472.0</ele><time>2026-03-22T08:32:30.991Z</time></trkpt><trkpt lat="43.2955534" lon="13.223778"><ele>476.50000000000006</ele><time>2026-03-22T08:32:32.992Z</time></trkpt><trkpt lat="43.2956505" lon="13.2237337"><ele>481.0</ele><time>2026-03-22T08:32:34.991Z</time></trkpt><trkpt lat="43.2957198" lon="13.2237135"><ele>485.5</ele><time>2026-03-22T08:32:36.991Z</time></trkpt><trkpt lat="43.2958086" lon="13.2237142"><ele>490.0</ele><time>2026-03-22T08:32:39.991Z</time></trkpt><trkpt lat="43.2958748" lon="13.2237206"><ele>494.50000000000006</ele><time>2026-03-22T08:32:41.991Z</time></trkpt><trkpt lat="43.2959348" lon="13.2237482"><ele>499.0</ele><time>2026-03-22T08:32:48.991Z</time></trkpt><trkpt lat="43.2960054" lon="13.2237555"><ele>499.00000000000006</ele><time>2026-03-22T08:33:00.991Z</time></trkpt><trkpt lat="43.2960523" lon="13.2236931"><ele>499.0</ele><time>2026-03-22T08:33:22.992Z</time></trkpt><trkpt lat="43.2960425" lon="13.2235822"><ele>499.0</ele><time>2026-03-22T08:33:26.992Z</time></trkpt><trkpt lat="43.2960279" lon="13.2234941"><ele>499.0</ele><time>2026-03-22T08:33:28.991Z</time></trkpt><trkpt lat="43.2959995" lon="13.2233813"><ele>499.00000000000006</ele><time>2026-03-22T08:33:30.991Z</time></trkpt><trkpt lat="43.2959565" lon="13.2232505"><ele>499.0</ele><time>2026-03-22T08:33:32.991Z</time></trkpt><trkpt lat="43.295931" lon="13.2231531"><ele>495.83333333333337</ele><time>2026-03-22T08:33:35.991Z</time></trkpt><trkpt lat="43.2958709" lon="13.2231004"><ele>492.6666666666667</ele><time>2026-03-22T08:33:39.992Z</time></trkpt><trkpt lat="43.295832" lon="13.2230126"><ele>489.5</ele><time>2026-03-22T08:33:42.991Z</time></trkpt><trkpt lat="43.2958035" lon="13.2229095"><ele>486.33333333333337</ele><time>2026-03-22T08:33:45.992Z</time></trkpt><trkpt lat="43.2957602" lon="13.2228426"><ele>483.1666666666667</ele><time>2026-03-22T08:33:47.991Z</time></trkpt><trkpt lat="43.295698" lon="13.2227003"><ele>480.0</ele><time>2026-03-22T08:33:56.991Z</time></trkpt><trkpt lat="43.2956528" lon="13.2226078"><ele>480.0</ele><time>2026-03-22T08:33:58.991Z</time></trkpt><trkpt lat="43.295609" lon="13.2225355"><ele>480.0</ele><time>2026-03-22T08:34:00.991Z</time></trkpt><trkpt lat="43.2955699" lon="13.2224451"><ele>480.0</ele><time>2026-03-22T08:34:02.992Z</time></trkpt><trkpt lat="43.2955174" lon="13.2223479"><ele>480.0</ele><time>2026-03-22T08:34:05.992Z</time></trkpt><trkpt lat="43.2954472" lon="13.2222809"><ele>480.0</ele><time>2026-03-22T08:34:08.991Z</time></trkpt><trkpt lat="43.2953943" lon="13.2222326"><ele>480.0</ele><time>2026-03-22T08:34:11.991Z</time></trkpt><trkpt lat="43.2953351" lon="13.2221897"><ele>480.0</ele><time>2026-03-22T08:34:14.991Z</time></trkpt><trkpt lat="43.2952664" lon="13.2221262"><ele>473.5714285714286</ele><time>2026-03-22T08:34:17.991Z</time></trkpt><trkpt lat="43.2951936" lon="13.2220974"><ele>467.1428571428571</ele><time>2026-03-22T08:34:20.991Z</time></trkpt><trkpt lat="43.2951362" lon="13.2220531"><ele>460.7142857142857</ele><time>2026-03-22T08:34:23.991Z</time></trkpt><trkpt lat="43.2950798" lon="13.2220117"><ele>454.28571428571433</ele><time>2026-03-22T08:34:25.991Z</time></trkpt><trkpt lat="43.2950456" lon="13.2219372"><ele>447.8571428571429</ele><time>2026-03-22T08:34:29.991Z</time></trkpt><trkpt lat="43.2950213" lon="13.2218244"><ele>441.42857142857144</ele><time>2026-03-22T08:34:33.991Z</time></trkpt><trkpt lat="43.2949735" lon="13.2217533"><ele>435.0</ele><time>2026-03-22T08:34:36.991Z</time></trkpt><trkpt lat="43.2949961" lon="13.2216562"><ele>435.0</ele><time>2026-03-22T08:34:50.991Z</time></trkpt><trkpt lat="43.2950421" lon="13.2215751"><ele>435.0</ele><time>2026-03-22T08:34:54.991Z</time></trkpt><trkpt lat="43.2951015" lon="13.2215164"><ele>435.0</ele><time>2026-03-22T08:34:57.991Z</time></trkpt><trkpt lat="43.2951597" lon="13.221469"><ele>435.0</ele><time>2026-03-22T08:35:01.991Z</time></trkpt><trkpt lat="43.2952225" lon="13.2214425"><ele>435.0</ele><time>2026-03-22T08:35:06.991Z</time></trkpt><trkpt lat="43.2952856" lon="13.221407"><ele>435.0</ele><time>2026-03-22T08:37:08.991Z</time></trkpt><trkpt lat="43.29541" lon="13.2214167"><ele>439.6</ele><time>2026-03-22T08:39:24.991Z</time></trkpt><trkpt lat="43.29552" lon="13.221405"><ele>444.2</ele><time>2026-03-22T08:44:45.991Z</time></trkpt><trkpt lat="43.2955967" lon="13.221495"><ele>448.79999999999995</ele><time>2026-03-22T08:47:04.991Z</time></trkpt><trkpt lat="43.2956567" lon="13.2214217"><ele>453.4</ele><time>2026-03-22T08:48:52.991Z</time></trkpt><trkpt lat="43.29568" lon="13.2212983"><ele>458.0</ele><time>2026-03-22T08:49:49.991Z</time></trkpt><trkpt lat="43.2957733" lon="13.22124"><ele>458.4</ele><time>2026-03-22T09:13:34.991Z</time></trkpt><trkpt lat="43.29588" lon="13.22121"><ele>458.79999999999995</ele><time>2026-03-22T09:13:54.991Z</time></trkpt><trkpt lat="43.2959517" lon="13.221195"><ele>459.2</ele><time>2026-03-22T09:15:01.99Z</time></trkpt><trkpt lat="43.2960683" lon="13.22116"><ele>459.6</ele><time>2026-03-22T09:15:46.99Z</time></trkpt><trkpt lat="43.29615" lon="13.22116"><ele>460.0</ele><time>2026-03-22T09:15:56.99Z</time></trkpt><trkpt lat="43.2962667" lon="13.2211017"><ele>460.0</ele><time>2026-03-22T09:18:33.991Z</time></trkpt><trkpt lat="43.2964" lon="13.2210983"><ele>460.0</ele><time>2026-03-22T09:19:46.99Z</time></trkpt><trkpt lat="43.2964917" lon="13.2210933"><ele>460.0</ele><time>2026-03-22T09:21:50.991Z</time></trkpt><trkpt lat="43.2965783" lon="13.2211583"><ele>460.0</ele><time>2026-03-22T09:23:33.991Z</time></trkpt><trkpt lat="43.2966917" lon="13.2211667"><ele>460.0</ele><time>2026-03-22T09:28:22.99Z</time></trkpt><trkpt lat="43.296795" lon="13.22118"><ele>462.4</ele><time>2026-03-22T09:28:40.99Z</time></trkpt><trkpt lat="43.2968717" lon="13.2211933"><ele>464.8</ele><time>2026-03-22T09:28:45.99Z</time></trkpt><trkpt lat="43.2969767" lon="13.221135"><ele>467.20000000000005</ele><time>2026-03-22T09:30:04.991Z</time></trkpt><trkpt lat="43.2971233" lon="13.2211417"><ele>469.6</ele><time>2026-03-22T09:31:59.99Z</time></trkpt><trkpt lat="43.2972133" lon="13.2211017"><ele>472.0</ele><time>2026-03-22T09:33:49.99Z</time></trkpt><trkpt lat="43.297275" lon="13.2211233"><ele>473.50000000000006</ele><time>2026-03-22T09:34:18.99Z</time></trkpt><trkpt lat="43.2973967" lon="13.2211017"><ele>475.0</ele><time>2026-03-22T09:38:35.99Z</time></trkpt><trkpt lat="43.2974633" lon="13.2210567"><ele>476.5</ele><time>2026-03-22T09:38:43.989Z</time></trkpt><trkpt lat="43.297525" lon="13.2210867"><ele>478.0</ele><time>2026-03-22T09:39:00.989Z</time></trkpt><trkpt lat="43.297605" lon="13.22108"><ele>479.50000000000006</ele><time>2026-03-22T09:39:03.989Z</time></trkpt><trkpt lat="43.2977033" lon="13.221095"><ele>481.0</ele><time>2026-03-22T09:39:07.989Z</time></trkpt><trkpt lat="43.29781" lon="13.2211383"><ele>481.00000000000006</ele><time>2026-03-22T09:40:26.989Z</time></trkpt><trkpt lat="43.2978817" lon="13.2211583"><ele>481.0</ele><time>2026-03-22T09:40:30.989Z</time></trkpt><trkpt lat="43.297945" lon="13.2211617"><ele>481.0</ele><time>2026-03-22T09:40:33.989Z</time></trkpt><trkpt lat="43.2980133" lon="13.2211833"><ele>481.0</ele><time>2026-03-22T09:40:36.989Z</time></trkpt><trkpt lat="43.2981283" lon="13.2211883"><ele>481.00000000000006</ele><time>2026-03-22T09:40:42.989Z</time></trkpt><trkpt lat="43.2982067" lon="13.2211633"><ele>481.0</ele><time>2026-03-22T09:40:45.989Z</time></trkpt><trkpt lat="43.2982733" lon="13.2211633"><ele>482.1666666666667</ele><time>2026-03-22T09:40:47.989Z</time></trkpt><trkpt lat="43.2983383" lon="13.2211533"><ele>483.33333333333337</ele><time>2026-03-22T09:40:50.989Z</time></trkpt><trkpt lat="43.29841" lon="13.221155"><ele>484.5</ele><time>2026-03-22T09:40:53.989Z</time></trkpt><trkpt lat="43.2984817" lon="13.22115"><ele>485.66666666666663</ele><time>2026-03-22T09:40:55.989Z</time></trkpt><trkpt lat="43.2985633" lon="13.221135"><ele>486.8333333333333</ele><time>2026-03-22T09:40:57.989Z</time></trkpt><trkpt lat="43.2986583" lon="13.2211017"><ele>488.0</ele><time>2026-03-22T09:40:59.99Z</time></trkpt><trkpt lat="43.29875" lon="13.22109"><ele>487.99999999999994</ele><time>2026-03-22T09:41:01.989Z</time></trkpt><trkpt lat="43.29884" lon="13.221055"><ele>488.0</ele><time>2026-03-22T09:41:03.989Z</time></trkpt><trkpt lat="43.2989167" lon="13.2210233"><ele>488.0</ele><time>2026-03-22T09:41:05.989Z</time></trkpt><trkpt lat="43.298985" lon="13.22102"><ele>488.0</ele><time>2026-03-22T09:41:07.989Z</time></trkpt><trkpt lat="43.299065" lon="13.221025"><ele>487.99999999999994</ele><time>2026-03-22T09:41:10.99Z</time></trkpt><trkpt lat="43.29915" lon="13.22105"><ele>488.0</ele><time>2026-03-22T09:41:14.99Z</time></trkpt><trkpt lat="43.2992133" lon="13.2210683"><ele>489.1428571428571</ele><time>2026-03-22T09:41:16.989Z</time></trkpt><trkpt lat="43.29928" lon="13.2210733"><ele>490.2857142857143</ele><time>2026-03-22T09:41:18.99Z</time></trkpt><trkpt lat="43.299345" lon="13.2210833"><ele>491.42857142857144</ele><time>2026-03-22T09:41:21.99Z</time></trkpt><trkpt lat="43.2994267" lon="13.22107"><ele>492.57142857142856</ele><time>2026-03-22T09:41:24.989Z</time></trkpt><trkpt lat="43.2994983" lon="13.2210967"><ele>493.7142857142858</ele><time>2026-03-22T09:41:28.99Z</time></trkpt><trkpt lat="43.29956" lon="13.2211233"><ele>494.8571428571429</ele><time>2026-03-22T09:41:32.99Z</time></trkpt><trkpt lat="43.2996367" lon="13.221135"><ele>496.0</ele><time>2026-03-22T09:41:36.99Z</time></trkpt><trkpt lat="43.2997067" lon="13.2211533"><ele>497.33333333333337</ele><time>2026-03-22T09:41:39.99Z</time></trkpt><trkpt lat="43.2997783" lon="13.2211683"><ele>498.6666666666667</ele><time>2026-03-22T09:41:41.99Z</time></trkpt><trkpt lat="43.2998567" lon="13.22119"><ele>500.0</ele><time>2026-03-22T09:41:44.989Z</time></trkpt><trkpt lat="43.29992" lon="13.2212383"><ele>501.33333333333337</ele><time>2026-03-22T09:42:05.989Z</time></trkpt><trkpt lat="43.2999867" lon="13.2212567"><ele>502.6666666666667</ele><time>2026-03-22T09:42:07.989Z</time></trkpt><trkpt lat="43.3000533" lon="13.2212733"><ele>504.0</ele><time>2026-03-22T09:42:09.99Z</time></trkpt><trkpt lat="43.3001367" lon="13.2213167"><ele>504.0</ele><time>2026-03-22T09:42:12.989Z</time></trkpt><trkpt lat="43.3002033" lon="13.22132"><ele>504.0</ele><time>2026-03-22T09:42:14.989Z</time></trkpt><trkpt lat="43.3002733" lon="13.2213267"><ele>504.0</ele><time>2026-03-22T09:42:17.989Z</time></trkpt><trkpt lat="43.3003317" lon="13.221365"><ele>504.0</ele><time>2026-03-22T09:42:19.99Z</time></trkpt><trkpt lat="43.300455" lon="13.22134"><ele>504.0</ele><time>2026-03-22T09:58:45.989Z</time></trkpt><trkpt lat="43.3005033" lon="13.2212367"><ele>504.0</ele><time>2026-03-22T09:58:56.989Z</time></trkpt><trkpt lat="43.3005433" lon="13.2211467"><ele>505.8333333333333</ele><time>2026-03-22T09:58:58.989Z</time></trkpt><trkpt lat="43.3005867" lon="13.2210667"><ele>507.66666666666663</ele><time>2026-03-22T09:59:01.989Z</time></trkpt><trkpt lat="43.300635" lon="13.22096"><ele>509.5</ele><time>2026-03-22T09:59:19.99Z</time></trkpt><trkpt lat="43.3007183" lon="13.22092"><ele>511.3333333333333</ele><time>2026-03-22T09:59:23.989Z</time></trkpt><trkpt lat="43.3008" lon="13.2209133"><ele>513.1666666666666</ele><time>2026-03-22T09:59:26.99Z</time></trkpt><trkpt lat="43.3008833" lon="13.2209467"><ele>515.0</ele><time>2026-03-22T09:59:41.989Z</time></trkpt><trkpt lat="43.3009617" lon="13.2209833"><ele>515.0</ele><time>2026-03-22T09:59:44.989Z</time></trkpt><trkpt lat="43.3010267" lon="13.22098"><ele>515.0</ele><time>2026-03-22T09:59:46.989Z</time></trkpt><trkpt lat="43.3011" lon="13.2209783"><ele>515.0</ele><time>2026-03-22T09:59:48.99Z</time></trkpt><trkpt lat="43.3011767" lon="13.220985"><ele>515.0</ele><time>2026-03-22T09:59:50.989Z</time></trkpt><trkpt lat="43.30125" lon="13.2209983"><ele>515.0</ele><time>2026-03-22T09:59:52.989Z</time></trkpt><trkpt lat="43.3013267" lon="13.2209767"><ele>515.0</ele><time>2026-03-22T09:59:54.989Z</time></trkpt><trkpt lat="43.301405" lon="13.2209233"><ele>517.4</ele><time>2026-03-22T09:59:56.989Z</time></trkpt><trkpt lat="43.301475" lon="13.22086"><ele>519.8</ele><time>2026-03-22T09:59:58.989Z</time></trkpt><trkpt lat="43.3015583" lon="13.2207733"><ele>522.2</ele><time>2026-03-22T10:00:00.989Z</time></trkpt><trkpt lat="43.3016317" lon="13.2207033"><ele>524.6</ele><time>2026-03-22T10:00:02.989Z</time></trkpt><trkpt lat="43.3017283" lon="13.2206067"><ele>527.0</ele><time>2026-03-22T10:00:25.989Z</time></trkpt><trkpt lat="43.3018" lon="13.22057"><ele>527.0</ele><time>2026-03-22T10:00:34.99Z</time></trkpt><trkpt lat="43.301875" lon="13.2206033"><ele>527.0</ele><time>2026-03-22T10:00:36.989Z</time></trkpt><trkpt lat="43.3019683" lon="13.2206133"><ele>527.0</ele><time>2026-03-22T10:00:38.989Z</time></trkpt><trkpt lat="43.3020317" lon="13.2206767"><ele>527.0</ele><time>2026-03-22T10:00:41.989Z</time></trkpt><trkpt lat="43.3019833" lon="13.220775"><ele>527.0</ele><time>2026-03-22T10:00:45.989Z</time></trkpt><trkpt lat="43.30196" lon="13.2208617"><ele>527.0</ele><time>2026-03-22T10:01:05.989Z</time></trkpt><trkpt lat="43.3019767" lon="13.2209617"><ele>527.0</ele><time>2026-03-22T10:01:08.989Z</time></trkpt><trkpt lat="43.3019217" lon="13.2210467"><ele>527.0</ele><time>2026-03-22T10:01:11.989Z</time></trkpt><trkpt lat="43.3019317" lon="13.2212333"><ele>527.0</ele><time>2026-03-22T10:01:35.99Z</time></trkpt><trkpt lat="43.3019383" lon="13.2213333"><ele>527.0</ele><time>2026-03-22T10:01:37.99Z</time></trkpt><trkpt lat="43.30194" lon="13.2214583"><ele>527.0</ele><time>2026-03-22T10:01:39.989Z</time></trkpt><trkpt lat="43.30195" lon="13.2215767"><ele>526.5</ele><time>2026-03-22T10:01:41.99Z</time></trkpt><trkpt lat="43.3019117" lon="13.2216767"><ele>526.0</ele><time>2026-03-22T10:02:22.989Z</time></trkpt><trkpt lat="43.301845" lon="13.221615"><ele>525.5</ele><time>2026-03-22T10:02:25.989Z</time></trkpt><trkpt lat="43.301775" lon="13.2215983"><ele>525.0</ele><time>2026-03-22T10:02:27.989Z</time></trkpt><trkpt lat="43.3017017" lon="13.2216017"><ele>524.5</ele><time>2026-03-22T10:02:29.989Z</time></trkpt><trkpt lat="43.3016383" lon="13.2215533"><ele>524.0</ele><time>2026-03-22T10:02:32.989Z</time></trkpt><trkpt lat="43.30158" lon="13.2214933"><ele>524.0</ele><time>2026-03-22T10:02:34.989Z</time></trkpt><trkpt lat="43.3015" lon="13.2215117"><ele>524.0</ele><time>2026-03-22T10:02:36.989Z</time></trkpt><trkpt lat="43.3014733" lon="13.2216133"><ele>524.0</ele><time>2026-03-22T10:02:39.99Z</time></trkpt><trkpt lat="43.3015333" lon="13.2217283"><ele>524.0</ele><time>2026-03-22T10:02:41.99Z</time></trkpt><trkpt lat="43.3016017" lon="13.221805"><ele>524.0</ele><time>2026-03-22T10:02:43.989Z</time></trkpt><trkpt lat="43.3016567" lon="13.22191"><ele>524.0</ele><time>2026-03-22T10:02:46.989Z</time></trkpt><trkpt lat="43.301725" lon="13.2219817"><ele>524.0</ele><time>2026-03-22T10:02:48.99Z</time></trkpt><trkpt lat="43.3017367" lon="13.2220817"><ele>524.0</ele><time>2026-03-22T10:02:51.989Z</time></trkpt><trkpt lat="43.3016283" lon="13.2220833"><ele>524.0</ele><time>2026-03-22T10:02:54.99Z</time></trkpt><trkpt lat="43.3015217" lon="13.2220717"><ele>524.0</ele><time>2026-03-22T10:02:56.989Z</time></trkpt><trkpt lat="43.3014217" lon="13.2220233"><ele>524.0</ele><time>2026-03-22T10:02:58.99Z</time></trkpt><trkpt lat="43.3013617" lon="13.2219833"><ele>521.4</ele><time>2026-03-22T10:02:59.989Z</time></trkpt><trkpt lat="43.3012617" lon="13.2218967"><ele>518.8</ele><time>2026-03-22T10:03:01.99Z</time></trkpt><trkpt lat="43.30116" lon="13.2218383"><ele>516.2</ele><time>2026-03-22T10:03:03.989Z</time></trkpt><trkpt lat="43.3010617" lon="13.2218083"><ele>513.6</ele><time>2026-03-22T10:03:05.99Z</time></trkpt><trkpt lat="43.301015" lon="13.2217433"><ele>511.0</ele><time>2026-03-22T10:03:08.989Z</time></trkpt><trkpt lat="43.3010633" lon="13.2216817"><ele>511.0</ele><time>2026-03-22T10:03:10.99Z</time></trkpt><trkpt lat="43.3011683" lon="13.221605"><ele>511.0</ele><time>2026-03-22T10:03:12.989Z</time></trkpt><trkpt lat="43.30125" lon="13.22151"><ele>511.0</ele><time>2026-03-22T10:03:14.989Z</time></trkpt><trkpt lat="43.3013283" lon="13.221435"><ele>511.0</ele><time>2026-03-22T10:03:16.989Z</time></trkpt><trkpt lat="43.3014267" lon="13.221415"><ele>511.0</ele><time>2026-03-22T10:03:18.99Z</time></trkpt><trkpt lat="43.3015067" lon="13.2214333"><ele>511.0</ele><time>2026-03-22T10:03:20.989Z</time></trkpt><trkpt lat="43.301445" lon="13.2214"><ele>511.0</ele><time>2026-03-22T10:03:25.989Z</time></trkpt><trkpt lat="43.3013433" lon="13.2214083"><ele>511.0</ele><time>2026-03-22T10:03:27.989Z</time></trkpt><trkpt lat="43.3012483" lon="13.2214517"><ele>511.0</ele><time>2026-03-22T10:03:29.989Z</time></trkpt><trkpt lat="43.3011233" lon="13.22151"><ele>511.0</ele><time>2026-03-22T10:03:31.99Z</time></trkpt><trkpt lat="43.3010617" lon="13.2215333"><ele>511.00000000000006</ele><time>2026-03-22T10:03:32.989Z</time></trkpt><trkpt lat="43.3009383" lon="13.2215683"><ele>511.0</ele><time>2026-03-22T10:03:34.99Z</time></trkpt><trkpt lat="43.300875" lon="13.2215833"><ele>511.0</ele><time>2026-03-22T10:03:35.989Z</time></trkpt><trkpt lat="43.3007783" lon="13.2216017"><ele>511.0</ele><time>2026-03-22T10:03:37.989Z</time></trkpt><trkpt lat="43.3007117" lon="13.2216383"><ele>511.00000000000006</ele><time>2026-03-22T10:03:39.99Z</time></trkpt><trkpt lat="43.3006317" lon="13.2215967"><ele>511.0</ele><time>2026-03-22T10:05:09.989Z</time></trkpt><trkpt lat="43.300555" lon="13.2215817"><ele>509.83333333333337</ele><time>2026-03-22T10:05:11.99Z</time></trkpt><trkpt lat="43.30043" lon="13.2215367"><ele>508.6666666666667</ele><time>2026-03-22T10:05:13.989Z</time></trkpt><trkpt lat="43.30036" lon="13.2215167"><ele>507.5</ele><time>2026-03-22T10:05:14.989Z</time></trkpt><trkpt lat="43.300295" lon="13.2214983"><ele>506.33333333333337</ele><time>2026-03-22T10:05:15.989Z</time></trkpt><trkpt lat="43.3002233" lon="13.2214833"><ele>505.1666666666667</ele><time>2026-03-22T10:05:16.989Z</time></trkpt><trkpt lat="43.30015" lon="13.2214817"><ele>504.0</ele><time>2026-03-22T10:05:17.989Z</time></trkpt><trkpt lat="43.3000733" lon="13.2214867"><ele>503.8333333333333</ele><time>2026-03-22T10:05:18.989Z</time></trkpt><trkpt lat="43.2999967" lon="13.2214983"><ele>503.66666666666663</ele><time>2026-03-22T10:05:19.99Z</time></trkpt><trkpt lat="43.2999233" lon="13.2215167"><ele>503.5</ele><time>2026-03-22T10:05:20.989Z</time></trkpt><trkpt lat="43.2998433" lon="13.2215217"><ele>503.3333333333333</ele><time>2026-03-22T10:05:21.989Z</time></trkpt><trkpt lat="43.2997717" lon="13.2215333"><ele>503.16666666666663</ele><time>2026-03-22T10:05:22.989Z</time></trkpt><trkpt lat="43.2996933" lon="13.2215517"><ele>503.0</ele><time>2026-03-22T10:05:23.99Z</time></trkpt><trkpt lat="43.2996183" lon="13.2215933"><ele>502.2</ele><time>2026-03-22T10:05:24.989Z</time></trkpt><trkpt lat="43.29953" lon="13.2216317"><ele>501.4</ele><time>2026-03-22T10:05:25.989Z</time></trkpt><trkpt lat="43.2994517" lon="13.2216867"><ele>500.59999999999997</ele><time>2026-03-22T10:05:26.989Z</time></trkpt><trkpt lat="43.2993767" lon="13.22175"><ele>499.79999999999995</ele><time>2026-03-22T10:05:27.99Z</time></trkpt><trkpt lat="43.2992967" lon="13.221805"><ele>499.0</ele><time>2026-03-22T10:05:28.989Z</time></trkpt><trkpt lat="43.2992033" lon="13.22183"><ele>499.0</ele><time>2026-03-22T10:05:29.99Z</time></trkpt><trkpt lat="43.2991033" lon="13.2218467"><ele>499.0</ele><time>2026-03-22T10:05:30.989Z</time></trkpt><trkpt lat="43.2990117" lon="13.2218567"><ele>499.0</ele><time>2026-03-22T10:05:31.989Z</time></trkpt><trkpt lat="43.298915" lon="13.2218583"><ele>499.0</ele><time>2026-03-22T10:05:32.99Z</time></trkpt><trkpt lat="43.2988217" lon="13.22187"><ele>499.0</ele><time>2026-03-22T10:05:33.99Z</time></trkpt><trkpt lat="43.2987233" lon="13.22187"><ele>497.6666666666667</ele><time>2026-03-22T10:05:34.989Z</time></trkpt><trkpt lat="43.2986467" lon="13.2218933"><ele>496.33333333333337</ele><time>2026-03-22T10:05:35.989Z</time></trkpt><trkpt lat="43.2985817" lon="13.22192"><ele>495.0</ele><time>2026-03-22T10:05:36.99Z</time></trkpt><trkpt lat="43.2985117" lon="13.2219433"><ele>493.66666666666663</ele><time>2026-03-22T10:05:37.989Z</time></trkpt><trkpt lat="43.298435" lon="13.221965"><ele>492.3333333333333</ele><time>2026-03-22T10:05:38.989Z</time></trkpt><trkpt lat="43.29835" lon="13.2219967"><ele>491.0</ele><time>2026-03-22T10:05:39.989Z</time></trkpt><trkpt lat="43.2982517" lon="13.2220467"><ele>491.0</ele><time>2026-03-22T10:05:40.989Z</time></trkpt><trkpt lat="43.2981567" lon="13.2220967"><ele>491.0</ele><time>2026-03-22T10:05:41.99Z</time></trkpt><trkpt lat="43.2980617" lon="13.2221483"><ele>491.0</ele><time>2026-03-22T10:05:42.989Z</time></trkpt><trkpt lat="43.297975" lon="13.222205"><ele>491.0</ele><time>2026-03-22T10:05:43.99Z</time></trkpt><trkpt lat="43.2978867" lon="13.2222583"><ele>491.0</ele><time>2026-03-22T10:05:44.989Z</time></trkpt><trkpt lat="43.2978017" lon="13.2223183"><ele>493.8</ele><time>2026-03-22T10:05:45.989Z</time></trkpt><trkpt lat="43.297715" lon="13.2223767"><ele>496.6</ele><time>2026-03-22T10:05:46.989Z</time></trkpt><trkpt lat="43.2976267" lon="13.222435"><ele>499.4</ele><time>2026-03-22T10:05:47.99Z</time></trkpt><trkpt lat="43.2975283" lon="13.2224933"><ele>502.2</ele><time>2026-03-22T10:05:48.989Z</time></trkpt><trkpt lat="43.2974267" lon="13.22256"><ele>505.0</ele><time>2026-03-22T10:05:49.99Z</time></trkpt><trkpt lat="43.2973283" lon="13.2226267"><ele>503.2</ele><time>2026-03-22T10:05:50.989Z</time></trkpt><trkpt lat="43.2972333" lon="13.2226917"><ele>501.4</ele><time>2026-03-22T10:05:51.99Z</time></trkpt><trkpt lat="43.2971433" lon="13.222755"><ele>499.6</ele><time>2026-03-22T10:05:52.99Z</time></trkpt><trkpt lat="43.2970483" lon="13.222825"><ele>497.8</ele><time>2026-03-22T10:05:53.989Z</time></trkpt><trkpt lat="43.29695" lon="13.2228867"><ele>496.0</ele><time>2026-03-22T10:05:54.989Z</time></trkpt><trkpt lat="43.2968483" lon="13.2229617"><ele>496.0</ele><time>2026-03-22T10:05:55.99Z</time></trkpt><trkpt lat="43.2967617" lon="13.2230517"><ele>496.0</ele><time>2026-03-22T10:05:56.989Z</time></trkpt><trkpt lat="43.2966817" lon="13.2231333"><ele>496.0</ele><time>2026-03-22T10:05:57.99Z</time></trkpt><trkpt lat="43.2966" lon="13.223215"><ele>496.0</ele><time>2026-03-22T10:05:58.99Z</time></trkpt><trkpt lat="43.29651" lon="13.2233067"><ele>496.0</ele><time>2026-03-22T10:05:59.99Z</time></trkpt><trkpt lat="43.2964183" lon="13.2234033"><ele>496.6</ele><time>2026-03-22T10:06:00.989Z</time></trkpt><trkpt lat="43.296315" lon="13.2235017"><ele>497.20000000000005</ele><time>2026-03-22T10:06:01.989Z</time></trkpt><trkpt lat="43.2962217" lon="13.2235917"><ele>497.79999999999995</ele><time>2026-03-22T10:06:02.989Z</time></trkpt><trkpt lat="43.2961267" lon="13.2236667"><ele>498.4</ele><time>2026-03-22T10:06:03.989Z</time></trkpt><trkpt lat="43.29604" lon="13.2237133"><ele>499.0</ele><time>2026-03-22T10:06:04.989Z</time></trkpt><trkpt lat="43.295955" lon="13.2237233"><ele>499.00000000000006</ele><time>2026-03-22T10:06:05.989Z</time></trkpt><trkpt lat="43.2958767" lon="13.2237317"><ele>499.0</ele><time>2026-03-22T10:06:06.989Z</time></trkpt><trkpt lat="43.2958117" lon="13.2237433"><ele>499.0</ele><time>2026-03-22T10:06:07.989Z</time></trkpt><trkpt lat="43.2957067" lon="13.2238133"><ele>499.0</ele><time>2026-03-22T10:06:09.989Z</time></trkpt><trkpt lat="43.295645" lon="13.2238683"><ele>499.00000000000006</ele><time>2026-03-22T10:06:10.989Z</time></trkpt><trkpt lat="43.2955767" lon="13.2239283"><ele>499.0</ele><time>2026-03-22T10:06:11.989Z</time></trkpt><trkpt lat="43.2955067" lon="13.224"><ele>497.50000000000006</ele><time>2026-03-22T10:06:12.989Z</time></trkpt><trkpt lat="43.2954367" lon="13.22407"><ele>496.0</ele><time>2026-03-22T10:06:13.989Z</time></trkpt><trkpt lat="43.2953717" lon="13.2241383"><ele>494.5</ele><time>2026-03-22T10:06:14.989Z</time></trkpt><trkpt lat="43.2953217" lon="13.2242"><ele>493.0</ele><time>2026-03-22T10:06:15.989Z</time></trkpt><trkpt lat="43.2952667" lon="13.2243017"><ele>491.50000000000006</ele><time>2026-03-22T10:06:17.99Z</time></trkpt><trkpt lat="43.2952467" lon="13.2243883"><ele>490.0</ele><time>2026-03-22T10:06:19.989Z</time></trkpt><trkpt lat="43.2952383" lon="13.22449"><ele>490.0</ele><time>2026-03-22T10:06:21.989Z</time></trkpt><trkpt lat="43.2952483" lon="13.2246317"><ele>490.0</ele><time>2026-03-22T10:06:23.99Z</time></trkpt><trkpt lat="43.29522" lon="13.2248033"><ele>490.0</ele><time>2026-03-22T10:06:25.989Z</time></trkpt><trkpt lat="43.2952017" lon="13.2249067"><ele>490.0</ele><time>2026-03-22T10:06:26.989Z</time></trkpt><trkpt lat="43.2951817" lon="13.22502"><ele>490.0</ele><time>2026-03-22T10:06:27.989Z</time></trkpt><trkpt lat="43.2951633" lon="13.2251333"><ele>493.0</ele><time>2026-03-22T10:06:28.989Z</time></trkpt><trkpt lat="43.2951433" lon="13.2252517"><ele>496.0</ele><time>2026-03-22T10:06:29.989Z</time></trkpt><trkpt lat="43.2951283" lon="13.2253733"><ele>499.0</ele><time>2026-03-22T10:06:30.99Z</time></trkpt><trkpt lat="43.295125" lon="13.2255083"><ele>502.0</ele><time>2026-03-22T10:06:31.989Z</time></trkpt><trkpt lat="43.295125" lon="13.22565"><ele>505.0</ele><time>2026-03-22T10:06:32.99Z</time></trkpt><trkpt lat="43.2951367" lon="13.225795"><ele>507.2</ele><time>2026-03-22T10:06:33.989Z</time></trkpt><trkpt lat="43.295155" lon="13.225925"><ele>509.4</ele><time>2026-03-22T10:06:34.989Z</time></trkpt><trkpt lat="43.295175" lon="13.2260333"><ele>511.6</ele><time>2026-03-22T10:06:35.989Z</time></trkpt><trkpt lat="43.2952117" lon="13.22614"><ele>513.8</ele><time>2026-03-22T10:06:36.989Z</time></trkpt><trkpt lat="43.2952683" lon="13.2262417"><ele>516.0</ele><time>2026-03-22T10:06:37.989Z</time></trkpt><trkpt lat="43.2953417" lon="13.226325"><ele>516.0</ele><time>2026-03-22T10:06:38.989Z</time></trkpt><trkpt lat="43.2954133" lon="13.2263933"><ele>516.0</ele><time>2026-03-22T10:06:39.989Z</time></trkpt><trkpt lat="43.2954917" lon="13.2264333"><ele>516.0</ele><time>2026-03-22T10:06:40.99Z</time></trkpt><trkpt lat="43.295575" lon="13.2264483"><ele>516.0</ele><time>2026-03-22T10:06:41.99Z</time></trkpt><trkpt lat="43.2956717" lon="13.2264217"><ele>516.0</ele><time>2026-03-22T10:06:42.989Z</time></trkpt><trkpt lat="43.2957967" lon="13.2263817"><ele>522.25</ele><time>2026-03-22T10:06:43.989Z</time></trkpt><trkpt lat="43.295945" lon="13.2262817"><ele>528.5</ele><time>2026-03-22T10:06:44.99Z</time></trkpt><trkpt lat="43.296065" lon="13.2262417"><ele>534.75</ele><time>2026-03-22T10:06:45.99Z</time></trkpt><trkpt lat="43.2961883" lon="13.2261967"><ele>541.0</ele><time>2026-03-22T10:06:46.99Z</time></trkpt><trkpt lat="43.2963117" lon="13.2261667"><ele>544.5</ele><time>2026-03-22T10:06:47.99Z</time></trkpt><trkpt lat="43.29643" lon="13.2261283"><ele>548.0</ele><time>2026-03-22T10:06:48.99Z</time></trkpt><trkpt lat="43.2965567" lon="13.22609"><ele>551.5</ele><time>2026-03-22T10:06:49.99Z</time></trkpt><trkpt lat="43.2966817" lon="13.2260533"><ele>555.0</ele><time>2026-03-22T10:06:50.99Z</time></trkpt><trkpt lat="43.2968033" lon="13.2260217"><ele>555.0</ele><time>2026-03-22T10:06:51.989Z</time></trkpt><trkpt lat="43.2969017" lon="13.2260067"><ele>555.0</ele><time>2026-03-22T10:06:52.989Z</time></trkpt><trkpt lat="43.29699" lon="13.2260067"><ele>555.0</ele><time>2026-03-22T10:06:53.99Z</time></trkpt><trkpt lat="43.2970617" lon="13.22602"><ele>555.0</ele><time>2026-03-22T10:06:54.989Z</time></trkpt><trkpt lat="43.2970717" lon="13.2261283"><ele>555.0</ele><time>2026-03-22T10:06:56.989Z</time></trkpt><trkpt lat="43.297025" lon="13.226215"><ele>555.0</ele><time>2026-03-22T10:07:04.989Z</time></trkpt><trkpt lat="43.2970867" lon="13.226195"><ele>555.0</ele><time>2026-03-22T10:07:06.989Z</time></trkpt><trkpt lat="43.2972233" lon="13.2261633"><ele>555.0</ele><time>2026-03-22T10:07:08.99Z</time></trkpt><trkpt lat="43.297315" lon="13.22614"><ele>555.0</ele><time>2026-03-22T10:07:09.989Z</time></trkpt><trkpt lat="43.2974133" lon="13.22611"><ele>555.0</ele><time>2026-03-22T10:07:10.989Z</time></trkpt><trkpt lat="43.297505" lon="13.22606"><ele>555.0</ele><time>2026-03-22T10:07:11.989Z</time></trkpt><trkpt lat="43.2976017" lon="13.22601"><ele>558.8</ele><time>2026-03-22T10:07:12.989Z</time></trkpt><trkpt lat="43.2977" lon="13.2259583"><ele>562.6</ele><time>2026-03-22T10:07:13.989Z</time></trkpt><trkpt lat="43.2978" lon="13.2259067"><ele>566.4</ele><time>2026-03-22T10:07:14.99Z</time></trkpt><trkpt lat="43.2979017" lon="13.2258583"><ele>570.2</ele><time>2026-03-22T10:07:15.989Z</time></trkpt><trkpt lat="43.298" lon="13.225815"><ele>574.0</ele><time>2026-03-22T10:07:16.99Z</time></trkpt><trkpt lat="43.298095" lon="13.22578"><ele>578.2</ele><time>2026-03-22T10:07:17.989Z</time></trkpt><trkpt lat="43.2981933" lon="13.2257567"><ele>582.4</ele><time>2026-03-22T10:07:18.99Z</time></trkpt><trkpt lat="43.298295" lon="13.2257517"><ele>586.6</ele><time>2026-03-22T10:07:19.99Z</time></trkpt><trkpt lat="43.298395" lon="13.2257517"><ele>590.8</ele><time>2026-03-22T10:07:20.989Z</time></trkpt><trkpt lat="43.2984833" lon="13.22576"><ele>595.0</ele><time>2026-03-22T10:07:21.989Z</time></trkpt><trkpt lat="43.2985633" lon="13.2257717"><ele>595.0</ele><time>2026-03-22T10:07:22.989Z</time></trkpt><trkpt lat="43.2986417" lon="13.225785"><ele>595.0</ele><time>2026-03-22T10:07:23.989Z</time></trkpt><trkpt lat="43.2987233" lon="13.2257867"><ele>595.0</ele><time>2026-03-22T10:07:24.989Z</time></trkpt><trkpt lat="43.2988167" lon="13.2257917"><ele>595.0</ele><time>2026-03-22T10:07:25.989Z</time></trkpt><trkpt lat="43.29892" lon="13.2258033"><ele>595.0</ele><time>2026-03-22T10:07:26.989Z</time></trkpt><trkpt lat="43.2990283" lon="13.2258083"><ele>596.8</ele><time>2026-03-22T10:07:27.99Z</time></trkpt><trkpt lat="43.2991333" lon="13.2257917"><ele>598.6</ele><time>2026-03-22T10:07:28.989Z</time></trkpt><trkpt lat="43.299235" lon="13.2257733"><ele>600.4</ele><time>2026-03-22T10:07:29.989Z</time></trkpt><trkpt lat="43.2993367" lon="13.2257333"><ele>602.2</ele><time>2026-03-22T10:07:30.989Z</time></trkpt><trkpt lat="43.2994333" lon="13.2256933"><ele>604.0</ele><time>2026-03-22T10:07:31.989Z</time></trkpt><trkpt lat="43.2995417" lon="13.2256517"><ele>601.8</ele><time>2026-03-22T10:07:32.989Z</time></trkpt><trkpt lat="43.2996533" lon="13.2256117"><ele>599.5999999999999</ele><time>2026-03-22T10:07:33.989Z</time></trkpt><trkpt lat="43.2997583" lon="13.2255767"><ele>597.4</ele><time>2026-03-22T10:07:34.989Z</time></trkpt><trkpt lat="43.2998667" lon="13.2255433"><ele>595.1999999999999</ele><time>2026-03-22T10:07:35.989Z</time></trkpt><trkpt lat="43.2999717" lon="13.22551"><ele>593.0</ele><time>2026-03-22T10:07:36.989Z</time></trkpt><trkpt lat="43.300075" lon="13.2254817"><ele>593.0</ele><time>2026-03-22T10:07:37.989Z</time></trkpt><trkpt lat="43.300175" lon="13.2254617"><ele>593.0</ele><time>2026-03-22T10:07:38.99Z</time></trkpt><trkpt lat="43.3002883" lon="13.225445"><ele>593.0</ele><time>2026-03-22T10:07:39.989Z</time></trkpt><trkpt lat="43.3004017" lon="13.2254367"><ele>593.0</ele><time>2026-03-22T10:07:40.989Z</time></trkpt><trkpt lat="43.3005117" lon="13.2254383"><ele>593.0</ele><time>2026-03-22T10:07:41.99Z</time></trkpt><trkpt lat="43.3006233" lon="13.2254317"><ele>594.8</ele><time>2026-03-22T10:07:42.989Z</time></trkpt><trkpt lat="43.3007233" lon="13.2254267"><ele>596.5999999999999</ele><time>2026-03-22T10:07:43.99Z</time></trkpt><trkpt lat="43.300825" lon="13.22543"><ele>598.4000000000001</ele><time>2026-03-22T10:07:44.989Z</time></trkpt><trkpt lat="43.3009317" lon="13.2254533"><ele>600.2</ele><time>2026-03-22T10:07:45.989Z</time></trkpt><trkpt lat="43.3010317" lon="13.2254883"><ele>602.0</ele><time>2026-03-22T10:07:46.99Z</time></trkpt><trkpt lat="43.3011267" lon="13.2255467"><ele>602.0</ele><time>2026-03-22T10:07:47.989Z</time></trkpt><trkpt lat="43.301225" lon="13.225625"><ele>602.0</ele><time>2026-03-22T10:07:48.99Z</time></trkpt><trkpt lat="43.3013217" lon="13.22571"><ele>602.0</ele><time>2026-03-22T10:07:49.989Z</time></trkpt><trkpt lat="43.3014083" lon="13.225805"><ele>602.0</ele><time>2026-03-22T10:07:50.989Z</time></trkpt><trkpt lat="43.3014967" lon="13.225905"><ele>606.8000000000001</ele><time>2026-03-22T10:07:51.989Z</time></trkpt><trkpt lat="43.3015767" lon="13.2260133"><ele>611.6</ele><time>2026-03-22T10:07:52.989Z</time></trkpt><trkpt lat="43.30165" lon="13.2261183"><ele>616.4000000000001</ele><time>2026-03-22T10:07:53.989Z</time></trkpt><trkpt lat="43.30171" lon="13.2262117"><ele>621.2</ele><time>2026-03-22T10:07:54.989Z</time></trkpt><trkpt lat="43.3017583" lon="13.2262833"><ele>626.0</ele><time>2026-03-22T10:07:55.989Z</time></trkpt><trkpt lat="43.3018283" lon="13.2263917"><ele>626.0</ele><time>2026-03-22T10:07:57.989Z</time></trkpt><trkpt lat="43.3019017" lon="13.2263617"><ele>626.0</ele><time>2026-03-22T10:08:08.989Z</time></trkpt><trkpt lat="43.3019567" lon="13.2262617"><ele>626.0</ele><time>2026-03-22T10:08:10.989Z</time></trkpt><trkpt lat="43.302025" lon="13.2261433"><ele>626.0</ele><time>2026-03-22T10:08:12.989Z</time></trkpt><trkpt lat="43.302075" lon="13.2260617"><ele>626.0</ele><time>2026-03-22T10:08:13.99Z</time></trkpt><trkpt lat="43.302135" lon="13.2259817"><ele>626.0</ele><time>2026-03-22T10:08:14.989Z</time></trkpt><trkpt lat="43.30219" lon="13.22592"><ele>627.6</ele><time>2026-03-22T10:08:15.989Z</time></trkpt><trkpt lat="43.3022583" lon="13.22587"><ele>629.2</ele><time>2026-03-22T10:08:16.99Z</time></trkpt><trkpt lat="43.3023483" lon="13.22581"><ele>630.8</ele><time>2026-03-22T10:08:17.989Z</time></trkpt><trkpt lat="43.3024333" lon="13.22575"><ele>632.4</ele><time>2026-03-22T10:08:18.99Z</time></trkpt><trkpt lat="43.30252" lon="13.2256867"><ele>634.0</ele><time>2026-03-22T10:08:19.989Z</time></trkpt><trkpt lat="43.3026183" lon="13.2256217"><ele>634.0</ele><time>2026-03-22T10:08:20.989Z</time></trkpt><trkpt lat="43.3027167" lon="13.2255567"><ele>634.0</ele><time>2026-03-22T10:08:21.989Z</time></trkpt><trkpt lat="43.30281" lon="13.2254983"><ele>634.0</ele><time>2026-03-22T10:08:22.989Z</time></trkpt><trkpt lat="43.3029067" lon="13.2254533"><ele>634.0</ele><time>2026-03-22T10:08:23.989Z</time></trkpt><trkpt lat="43.3029817" lon="13.2254067"><ele>634.0</ele><time>2026-03-22T10:08:24.989Z</time></trkpt><trkpt lat="43.303065" lon="13.2253533"><ele>638.2</ele><time>2026-03-22T10:08:25.989Z</time></trkpt><trkpt lat="43.3031467" lon="13.2252983"><ele>642.4</ele><time>2026-03-22T10:08:26.989Z</time></trkpt><trkpt lat="43.303235" lon="13.225245"><ele>646.6</ele><time>2026-03-22T10:08:27.99Z</time></trkpt><trkpt lat="43.30333" lon="13.2251917"><ele>650.8</ele><time>2026-03-22T10:08:28.989Z</time></trkpt><trkpt lat="43.3034167" lon="13.2251433"><ele>655.0</ele><time>2026-03-22T10:08:29.989Z</time></trkpt><trkpt lat="43.3034983" lon="13.2251033"><ele>655.0</ele><time>2026-03-22T10:08:30.989Z</time></trkpt><trkpt lat="43.30358" lon="13.2250783"><ele>655.0</ele><time>2026-03-22T10:08:31.99Z</time></trkpt><trkpt lat="43.3036717" lon="13.22508"><ele>655.0</ele><time>2026-03-22T10:08:32.989Z</time></trkpt><trkpt lat="43.303755" lon="13.225075"><ele>655.0</ele><time>2026-03-22T10:08:33.989Z</time></trkpt><trkpt lat="43.30383" lon="13.2250483"><ele>655.0</ele><time>2026-03-22T10:08:34.989Z</time></trkpt><trkpt lat="43.303905" lon="13.22499"><ele>655.0</ele><time>2026-03-22T10:08:35.99Z</time></trkpt><trkpt lat="43.3039783" lon="13.22491"><ele>656.0</ele><time>2026-03-22T10:08:36.989Z</time></trkpt><trkpt lat="43.30405" lon="13.224835"><ele>657.0</ele><time>2026-03-22T10:08:37.989Z</time></trkpt><trkpt lat="43.3041267" lon="13.224755"><ele>658.0</ele><time>2026-03-22T10:08:38.99Z</time></trkpt><trkpt lat="43.3042" lon="13.22467"><ele>659.0</ele><time>2026-03-22T10:08:39.99Z</time></trkpt><trkpt lat="43.3042783" lon="13.2245783"><ele>660.0</ele><time>2026-03-22T10:08:40.989Z</time></trkpt><trkpt lat="43.304355" lon="13.2244967"><ele>660.0</ele><time>2026-03-22T10:08:41.99Z</time></trkpt><trkpt lat="43.3044283" lon="13.2244183"><ele>660.0</ele><time>2026-03-22T10:08:42.989Z</time></trkpt><trkpt lat="43.3044917" lon="13.224345"><ele>660.0</ele><time>2026-03-22T10:08:43.989Z</time></trkpt><trkpt lat="43.3045467" lon="13.2242783"><ele>660.0</ele><time>2026-03-22T10:08:44.989Z</time></trkpt><trkpt lat="43.3045967" lon="13.224225"><ele>660.0</ele><time>2026-03-22T10:08:45.989Z</time></trkpt><trkpt lat="43.3046588" lon="13.2241172"><ele>660.0</ele><time>2026-03-22T10:08:47.989Z</time></trkpt><trkpt lat="43.3046524" lon="13.2240058"><ele>658.8333333333334</ele><time>2026-03-22T10:08:49.989Z</time></trkpt><trkpt lat="43.3046036" lon="13.2238646"><ele>657.6666666666666</ele><time>2026-03-22T10:08:51.99Z</time></trkpt><trkpt lat="43.3045876" lon="13.2237689"><ele>656.5</ele><time>2026-03-22T10:08:52.989Z</time></trkpt><trkpt lat="43.3045748" lon="13.223658"><ele>655.3333333333333</ele><time>2026-03-22T10:08:53.989Z</time></trkpt><trkpt lat="43.3045675" lon="13.2235353"><ele>654.1666666666666</ele><time>2026-03-22T10:08:54.989Z</time></trkpt><trkpt lat="43.3045617" lon="13.2234093"><ele>653.0</ele><time>2026-03-22T10:08:55.99Z</time></trkpt><trkpt lat="43.3045609" lon="13.2232895"><ele>653.0</ele><time>2026-03-22T10:08:56.99Z</time></trkpt><trkpt lat="43.3045676" lon="13.2231676"><ele>653.0</ele><time>2026-03-22T10:08:57.989Z</time></trkpt><trkpt lat="43.304583" lon="13.2230395"><ele>653.0</ele><time>2026-03-22T10:08:58.989Z</time></trkpt><trkpt lat="43.3046094" lon="13.2228986"><ele>653.0</ele><time>2026-03-22T10:08:59.989Z</time></trkpt><trkpt lat="43.3046403" lon="13.2227466"><ele>653.0</ele><time>2026-03-22T10:09:00.99Z</time></trkpt><trkpt lat="43.3046703" lon="13.2225907"><ele>652.5999999999999</ele><time>2026-03-22T10:09:01.989Z</time></trkpt><trkpt lat="43.3046956" lon="13.2224331"><ele>652.1999999999999</ele><time>2026-03-22T10:09:02.99Z</time></trkpt><trkpt lat="43.3047142" lon="13.2222878"><ele>651.8</ele><time>2026-03-22T10:09:03.989Z</time></trkpt><trkpt lat="43.3047362" lon="13.2221485"><ele>651.4</ele><time>2026-03-22T10:09:04.989Z</time></trkpt><trkpt lat="43.3047611" lon="13.2220037"><ele>651.0</ele><time>2026-03-22T10:09:05.989Z</time></trkpt><trkpt lat="43.3047874" lon="13.2218479"><ele>659.5999999999999</ele><time>2026-03-22T10:09:06.99Z</time></trkpt><trkpt lat="43.3048063" lon="13.2216981"><ele>668.2</ele><time>2026-03-22T10:09:07.989Z</time></trkpt><trkpt lat="43.3048175" lon="13.2215537"><ele>676.8</ele><time>2026-03-22T10:09:08.989Z</time></trkpt><trkpt lat="43.3048216" lon="13.2214129"><ele>685.4000000000001</ele><time>2026-03-22T10:09:09.99Z</time></trkpt><trkpt lat="43.3048226" lon="13.221276"><ele>694.0</ele><time>2026-03-22T10:09:10.989Z</time></trkpt><trkpt lat="43.3048218" lon="13.2211447"><ele>695.0</ele><time>2026-03-22T10:09:11.989Z</time></trkpt><trkpt lat="43.304817" lon="13.2210041"><ele>696.0</ele><time>2026-03-22T10:09:12.99Z</time></trkpt><trkpt lat="43.3048059" lon="13.2208556"><ele>697.0</ele><time>2026-03-22T10:09:13.989Z</time></trkpt><trkpt lat="43.304797" lon="13.2207069"><ele>698.0</ele><time>2026-03-22T10:09:14.99Z</time></trkpt><trkpt lat="43.3047924" lon="13.2205727"><ele>699.0</ele><time>2026-03-22T10:09:15.989Z</time></trkpt><trkpt lat="43.3047878" lon="13.2204565"><ele>699.4000000000001</ele><time>2026-03-22T10:09:16.989Z</time></trkpt><trkpt lat="43.304777" lon="13.2203589"><ele>699.8</ele><time>2026-03-22T10:09:17.99Z</time></trkpt><trkpt lat="43.3047506" lon="13.2202084"><ele>700.2</ele><time>2026-03-22T10:09:19.989Z</time></trkpt><trkpt lat="43.3047175" lon="13.2200961"><ele>700.5999999999999</ele><time>2026-03-22T10:09:21.99Z</time></trkpt><trkpt lat="43.3046824" lon="13.2199491"><ele>701.0</ele><time>2026-03-22T10:09:23.99Z</time></trkpt><trkpt lat="43.3046683" lon="13.2198526"><ele>695.6666666666666</ele><time>2026-03-22T10:09:24.989Z</time></trkpt><trkpt lat="43.3046438" lon="13.2197516"><ele>690.3333333333333</ele><time>2026-03-22T10:09:25.989Z</time></trkpt><trkpt lat="43.3046052" lon="13.2196437"><ele>685.0</ele><time>2026-03-22T10:09:26.989Z</time></trkpt><trkpt lat="43.3045632" lon="13.2195405"><ele>679.6666666666666</ele><time>2026-03-22T10:09:27.989Z</time></trkpt><trkpt lat="43.3045232" lon="13.219436"><ele>674.3333333333334</ele><time>2026-03-22T10:09:28.989Z</time></trkpt><trkpt lat="43.3044847" lon="13.2193242"><ele>669.0</ele><time>2026-03-22T10:09:29.99Z</time></trkpt><trkpt lat="43.3044431" lon="13.2192123"><ele>669.0</ele><time>2026-03-22T10:09:30.989Z</time></trkpt><trkpt lat="43.3044089" lon="13.2191067"><ele>669.0</ele><time>2026-03-22T10:09:31.989Z</time></trkpt><trkpt lat="43.3043824" lon="13.2189899"><ele>669.0</ele><time>2026-03-22T10:09:32.989Z</time></trkpt><trkpt lat="43.3043623" lon="13.2188583"><ele>669.0</ele><time>2026-03-22T10:09:33.989Z</time></trkpt><trkpt lat="43.3043553" lon="13.2187148"><ele>669.0</ele><time>2026-03-22T10:09:34.989Z</time></trkpt><trkpt lat="43.3043578" lon="13.2185629"><ele>669.25</ele><time>2026-03-22T10:09:35.989Z</time></trkpt><trkpt lat="43.3043722" lon="13.2183951"><ele>669.5</ele><time>2026-03-22T10:09:36.99Z</time></trkpt><trkpt lat="43.3043891" lon="13.218224"><ele>669.75</ele><time>2026-03-22T10:09:37.989Z</time></trkpt><trkpt lat="43.3044071" lon="13.218063"><ele>670.0</ele><time>2026-03-22T10:09:38.99Z</time></trkpt><trkpt lat="43.3044256" lon="13.2179127"><ele>669.4</ele><time>2026-03-22T10:09:39.989Z</time></trkpt><trkpt lat="43.3044351" lon="13.2177719"><ele>668.8</ele><time>2026-03-22T10:09:40.989Z</time></trkpt><trkpt lat="43.3044367" lon="13.217635"><ele>668.2</ele><time>2026-03-22T10:09:41.989Z</time></trkpt><trkpt lat="43.3044324" lon="13.217509"><ele>667.6</ele><time>2026-03-22T10:09:42.99Z</time></trkpt><trkpt lat="43.3044272" lon="13.2173864"><ele>667.0</ele><time>2026-03-22T10:09:43.989Z</time></trkpt><trkpt lat="43.3044271" lon="13.2172667"><ele>665.3333333333334</ele><time>2026-03-22T10:09:44.989Z</time></trkpt><trkpt lat="43.3044323" lon="13.2171478"><ele>663.6666666666667</ele><time>2026-03-22T10:09:45.99Z</time></trkpt><trkpt lat="43.3044404" lon="13.217034"><ele>662.0</ele><time>2026-03-22T10:09:46.99Z</time></trkpt><trkpt lat="43.3044581" lon="13.2169321"><ele>660.3333333333334</ele><time>2026-03-22T10:09:47.989Z</time></trkpt><trkpt lat="43.3044836" lon="13.2168407"><ele>658.6666666666666</ele><time>2026-03-22T10:09:48.989Z</time></trkpt><trkpt lat="43.3045202" lon="13.216756"><ele>657.0</ele><time>2026-03-22T10:09:49.989Z</time></trkpt><trkpt lat="43.3045766" lon="13.2166884"><ele>657.0</ele><time>2026-03-22T10:09:50.989Z</time></trkpt><trkpt lat="43.3046458" lon="13.2166289"><ele>657.0</ele><time>2026-03-22T10:09:51.989Z</time></trkpt><trkpt lat="43.3047176" lon="13.216573"><ele>657.0</ele><time>2026-03-22T10:09:52.989Z</time></trkpt><trkpt lat="43.3047871" lon="13.216518"><ele>657.0</ele><time>2026-03-22T10:09:53.99Z</time></trkpt><trkpt lat="43.3048517" lon="13.2164633"><ele>657.0</ele><time>2026-03-22T10:09:54.989Z</time></trkpt><trkpt lat="43.3049083" lon="13.21634"><ele>657.0</ele><time>2026-03-22T10:09:56.99Z</time></trkpt><trkpt lat="43.3048867" lon="13.21622"><ele>656.8</ele><time>2026-03-22T10:09:58.99Z</time></trkpt><trkpt lat="43.3048167" lon="13.216165"><ele>656.6</ele><time>2026-03-22T10:09:59.989Z</time></trkpt><trkpt lat="43.3047233" lon="13.2160933"><ele>656.4</ele><time>2026-03-22T10:10:00.99Z</time></trkpt><trkpt lat="43.3046233" lon="13.21601"><ele>656.1999999999999</ele><time>2026-03-22T10:10:01.989Z</time></trkpt><trkpt lat="43.304545" lon="13.215925"><ele>656.0</ele><time>2026-03-22T10:10:02.99Z</time></trkpt><trkpt lat="43.30449" lon="13.21584"><ele>656.0</ele><time>2026-03-22T10:10:03.989Z</time></trkpt><trkpt lat="43.3044517" lon="13.215765"><ele>656.0</ele><time>2026-03-22T10:10:04.989Z</time></trkpt><trkpt lat="43.30441" lon="13.2156467"><ele>656.0</ele><time>2026-03-22T10:10:06.99Z</time></trkpt><trkpt lat="43.3043783" lon="13.2155533"><ele>656.0</ele><time>2026-03-22T10:10:08.989Z</time></trkpt><trkpt lat="43.3043417" lon="13.2154783"><ele>656.0</ele><time>2026-03-22T10:10:10.99Z</time></trkpt><trkpt lat="43.3043017" lon="13.2154067"><ele>656.0</ele><time>2026-03-22T10:10:12.989Z</time></trkpt><trkpt lat="43.3042283" lon="13.215315"><ele>656.0</ele><time>2026-03-22T10:10:14.989Z</time></trkpt><trkpt lat="43.3041217" lon="13.2151917"><ele>656.0</ele><time>2026-03-22T10:10:16.989Z</time></trkpt><trkpt lat="43.304065" lon="13.215125"><ele>656.0</ele><time>2026-03-22T10:10:17.989Z</time></trkpt><trkpt lat="43.3040033" lon="13.215075"><ele>656.0</ele><time>2026-03-22T10:10:18.989Z</time></trkpt><trkpt lat="43.3039467" lon="13.2150267"><ele>656.0</ele><time>2026-03-22T10:10:19.99Z</time></trkpt><trkpt lat="43.3039" lon="13.214965"><ele>656.0</ele><time>2026-03-22T10:10:20.989Z</time></trkpt><trkpt lat="43.3038583" lon="13.2148967"><ele>653.3333333333333</ele><time>2026-03-22T10:10:21.989Z</time></trkpt><trkpt lat="43.3038133" lon="13.2147617"><ele>650.6666666666666</ele><time>2026-03-22T10:10:23.989Z</time></trkpt><trkpt lat="43.3038367" lon="13.2146733"><ele>648.0</ele><time>2026-03-22T10:10:25.989Z</time></trkpt><trkpt lat="43.3038733" lon="13.2145917"><ele>645.3333333333334</ele><time>2026-03-22T10:10:27.989Z</time></trkpt><trkpt lat="43.3039233" lon="13.214505"><ele>642.6666666666667</ele><time>2026-03-22T10:10:29.99Z</time></trkpt><trkpt lat="43.3039633" lon="13.2143883"><ele>640.0</ele><time>2026-03-22T10:10:31.99Z</time></trkpt><trkpt lat="43.304005" lon="13.2142583"><ele>640.0</ele><time>2026-03-22T10:10:33.989Z</time></trkpt><trkpt lat="43.3040567" lon="13.2141483"><ele>640.0</ele><time>2026-03-22T10:10:35.989Z</time></trkpt><trkpt lat="43.30414" lon="13.2140133"><ele>640.0</ele><time>2026-03-22T10:10:37.989Z</time></trkpt><trkpt lat="43.3042383" lon="13.2139117"><ele>640.0</ele><time>2026-03-22T10:10:39.99Z</time></trkpt><trkpt lat="43.3042983" lon="13.21387"><ele>640.0</ele><time>2026-03-22T10:10:40.989Z</time></trkpt><trkpt lat="43.3043683" lon="13.21383"><ele>636.3333333333334</ele><time>2026-03-22T10:10:41.989Z</time></trkpt><trkpt lat="43.3044483" lon="13.2137933"><ele>632.6666666666667</ele><time>2026-03-22T10:10:42.989Z</time></trkpt><trkpt lat="43.30451" lon="13.2137483"><ele>629.0</ele><time>2026-03-22T10:10:43.99Z</time></trkpt><trkpt lat="43.30457" lon="13.2136317"><ele>625.3333333333334</ele><time>2026-03-22T10:10:45.989Z</time></trkpt><trkpt lat="43.3046" lon="13.2135367"><ele>621.6666666666666</ele><time>2026-03-22T10:10:47.99Z</time></trkpt><trkpt lat="43.3046467" lon="13.2134583"><ele>618.0</ele><time>2026-03-22T10:10:49.989Z</time></trkpt><trkpt lat="43.3046983" lon="13.213355"><ele>618.0</ele><time>2026-03-22T10:10:51.989Z</time></trkpt><trkpt lat="43.3047417" lon="13.21329"><ele>618.0</ele><time>2026-03-22T10:10:52.989Z</time></trkpt><trkpt lat="43.3047967" lon="13.2132233"><ele>618.0</ele><time>2026-03-22T10:10:53.989Z</time></trkpt><trkpt lat="43.3048567" lon="13.2131717"><ele>618.0</ele><time>2026-03-22T10:10:54.989Z</time></trkpt><trkpt lat="43.30496" lon="13.2131433"><ele>618.0</ele><time>2026-03-22T10:10:56.989Z</time></trkpt><trkpt lat="43.305055" lon="13.2131983"><ele>618.0</ele><time>2026-03-22T10:10:58.989Z</time></trkpt><trkpt lat="43.3051283" lon="13.213235"><ele>617.8</ele><time>2026-03-22T10:11:00.989Z</time></trkpt><trkpt lat="43.3051483" lon="13.21314"><ele>617.5999999999999</ele><time>2026-03-22T10:11:02.989Z</time></trkpt><trkpt lat="43.3051683" lon="13.21296"><ele>617.4000000000001</ele><time>2026-03-22T10:11:04.989Z</time></trkpt><trkpt lat="43.305185" lon="13.2128567"><ele>617.2</ele><time>2026-03-22T10:11:05.99Z</time></trkpt><trkpt lat="43.3051933" lon="13.21271"><ele>617.0</ele><time>2026-03-22T10:11:07.989Z</time></trkpt><trkpt lat="43.3051567" lon="13.2126333"><ele>617.0</ele><time>2026-03-22T10:11:08.989Z</time></trkpt><trkpt lat="43.3050683" lon="13.2125617"><ele>617.0</ele><time>2026-03-22T10:11:09.99Z</time></trkpt><trkpt lat="43.304975" lon="13.2125067"><ele>617.0</ele><time>2026-03-22T10:11:10.99Z</time></trkpt><trkpt lat="43.3048733" lon="13.2124733"><ele>617.0</ele><time>2026-03-22T10:11:11.989Z</time></trkpt><trkpt lat="43.30476" lon="13.2124267"><ele>617.0</ele><time>2026-03-22T10:11:12.989Z</time></trkpt><trkpt lat="43.3046367" lon="13.21238"><ele>615.25</ele><time>2026-03-22T10:11:13.989Z</time></trkpt><trkpt lat="43.3045117" lon="13.2123117"><ele>613.5</ele><time>2026-03-22T10:11:14.989Z</time></trkpt><trkpt lat="43.3043817" lon="13.21224"><ele>611.75</ele><time>2026-03-22T10:11:15.989Z</time></trkpt><trkpt lat="43.30426" lon="13.21217"><ele>610.0</ele><time>2026-03-22T10:11:16.989Z</time></trkpt><trkpt lat="43.3041467" lon="13.21211"><ele>610.0</ele><time>2026-03-22T10:11:17.989Z</time></trkpt><trkpt lat="43.304055" lon="13.2120717"><ele>610.0</ele><time>2026-03-22T10:11:18.989Z</time></trkpt><trkpt lat="43.30396" lon="13.2120533"><ele>610.0</ele><time>2026-03-22T10:11:20.989Z</time></trkpt><trkpt lat="43.3038683" lon="13.2120567"><ele>610.0</ele><time>2026-03-22T10:11:22.989Z</time></trkpt><trkpt lat="43.3037867" lon="13.212045"><ele>610.0</ele><time>2026-03-22T10:11:23.989Z</time></trkpt><trkpt lat="43.3036967" lon="13.212025"><ele>609.0</ele><time>2026-03-22T10:11:24.989Z</time></trkpt><trkpt lat="43.3036333" lon="13.2119883"><ele>608.0</ele><time>2026-03-22T10:11:25.989Z</time></trkpt><trkpt lat="43.3035617" lon="13.2119233"><ele>607.0</ele><time>2026-03-22T10:11:27.989Z</time></trkpt><trkpt lat="43.30363" lon="13.2118717"><ele>606.0</ele><time>2026-03-22T10:11:29.989Z</time></trkpt><trkpt lat="43.3037083" lon="13.2118783"><ele>605.0</ele><time>2026-03-22T10:11:31.989Z</time></trkpt><trkpt lat="43.3037867" lon="13.211895"><ele>604.0</ele><time>2026-03-22T10:11:35.989Z</time></trkpt><trkpt lat="43.3038583" lon="13.2119"><ele>605.0</ele><time>2026-03-22T10:11:37.989Z</time></trkpt><trkpt lat="43.30393" lon="13.21191"><ele>606.0</ele><time>2026-03-22T10:11:39.989Z</time></trkpt><trkpt lat="43.3040033" lon="13.2119167"><ele>607.0</ele><time>2026-03-22T10:11:41.989Z</time></trkpt><trkpt lat="43.304095" lon="13.2119267"><ele>608.0</ele><time>2026-03-22T10:11:43.989Z</time></trkpt><trkpt lat="43.3041583" lon="13.2119367"><ele>609.0</ele><time>2026-03-22T10:11:44.99Z</time></trkpt><trkpt lat="43.3042333" lon="13.2119467"><ele>610.0</ele><time>2026-03-22T10:11:45.99Z</time></trkpt><trkpt lat="43.304325" lon="13.2119567"><ele>610.0</ele><time>2026-03-22T10:11:46.989Z</time></trkpt><trkpt lat="43.3044283" lon="13.21198"><ele>610.0</ele><time>2026-03-22T10:11:47.989Z</time></trkpt><trkpt lat="43.304525" lon="13.2119883"><ele>610.0</ele><time>2026-03-22T10:11:48.989Z</time></trkpt><trkpt lat="43.3046167" lon="13.2119983"><ele>610.0</ele><time>2026-03-22T10:11:49.989Z</time></trkpt><trkpt lat="43.3047083" lon="13.2120117"><ele>610.0</ele><time>2026-03-22T10:11:50.989Z</time></trkpt><trkpt lat="43.3048" lon="13.2120233"><ele>611.6</ele><time>2026-03-22T10:11:51.99Z</time></trkpt><trkpt lat="43.3049" lon="13.2120467"><ele>613.2</ele><time>2026-03-22T10:11:52.99Z</time></trkpt><trkpt lat="43.304995" lon="13.2120683"><ele>614.8</ele><time>2026-03-22T10:11:53.989Z</time></trkpt><trkpt lat="43.3050817" lon="13.21209"><ele>616.4</ele><time>2026-03-22T10:11:54.989Z</time></trkpt><trkpt lat="43.3051733" lon="13.212115"><ele>618.0</ele><time>2026-03-22T10:11:55.989Z</time></trkpt><trkpt lat="43.3052683" lon="13.2121283"><ele>618.0</ele><time>2026-03-22T10:11:56.99Z</time></trkpt><trkpt lat="43.3053717" lon="13.2121317"><ele>618.0</ele><time>2026-03-22T10:11:57.989Z</time></trkpt><trkpt lat="43.3054817" lon="13.2121317"><ele>618.0</ele><time>2026-03-22T10:11:58.989Z</time></trkpt><trkpt lat="43.3055967" lon="13.2121367"><ele>618.0</ele><time>2026-03-22T10:11:59.989Z</time></trkpt><trkpt lat="43.3057183" lon="13.2121567"><ele>620.25</ele><time>2026-03-22T10:12:00.989Z</time></trkpt><trkpt lat="43.305845" lon="13.212185"><ele>622.5</ele><time>2026-03-22T10:12:01.989Z</time></trkpt><trkpt lat="43.3059683" lon="13.2122167"><ele>624.75</ele><time>2026-03-22T10:12:02.989Z</time></trkpt><trkpt lat="43.306095" lon="13.2122417"><ele>627.0</ele><time>2026-03-22T10:12:03.989Z</time></trkpt><trkpt lat="43.3062217" lon="13.2122467"><ele>627.0</ele><time>2026-03-22T10:12:04.99Z</time></trkpt><trkpt lat="43.3063483" lon="13.21225"><ele>627.0</ele><time>2026-03-22T10:12:05.99Z</time></trkpt><trkpt lat="43.3064733" lon="13.212255"><ele>627.0</ele><time>2026-03-22T10:12:06.989Z</time></trkpt><trkpt lat="43.3065983" lon="13.2122683"><ele>627.0</ele><time>2026-03-22T10:12:07.989Z</time></trkpt><trkpt lat="43.3067333" lon="13.2122883"><ele>631.0</ele><time>2026-03-22T10:12:08.989Z</time></trkpt><trkpt lat="43.30687" lon="13.2123267"><ele>635.0</ele><time>2026-03-22T10:12:09.989Z</time></trkpt><trkpt lat="43.3070017" lon="13.2123817"><ele>639.0</ele><time>2026-03-22T10:12:10.99Z</time></trkpt><trkpt lat="43.30714" lon="13.2124333"><ele>643.0</ele><time>2026-03-22T10:12:11.989Z</time></trkpt><trkpt lat="43.3072783" lon="13.2124933"><ele>646.5</ele><time>2026-03-22T10:12:12.99Z</time></trkpt><trkpt lat="43.307405" lon="13.2125633"><ele>650.0</ele><time>2026-03-22T10:12:13.99Z</time></trkpt><trkpt lat="43.3075183" lon="13.2126183"><ele>653.5</ele><time>2026-03-22T10:12:14.99Z</time></trkpt><trkpt lat="43.3076317" lon="13.212665"><ele>657.0</ele><time>2026-03-22T10:12:15.99Z</time></trkpt><trkpt lat="43.3077433" lon="13.2127"><ele>657.0</ele><time>2026-03-22T10:12:16.99Z</time></trkpt><trkpt lat="43.3078567" lon="13.2127233"><ele>657.0</ele><time>2026-03-22T10:12:17.989Z</time></trkpt><trkpt lat="43.3079517" lon="13.21275"><ele>657.0</ele><time>2026-03-22T10:12:18.989Z</time></trkpt><trkpt lat="43.3080367" lon="13.2127817"><ele>657.0</ele><time>2026-03-22T10:12:19.989Z</time></trkpt><trkpt lat="43.308115" lon="13.2128167"><ele>657.0</ele><time>2026-03-22T10:12:20.99Z</time></trkpt><trkpt lat="43.3081783" lon="13.2128467"><ele>657.0</ele><time>2026-03-22T10:12:21.989Z</time></trkpt><trkpt lat="43.3082567" lon="13.212875"><ele>658.3333333333334</ele><time>2026-03-22T10:12:23.989Z</time></trkpt><trkpt lat="43.3083233" lon="13.2128467"><ele>659.6666666666666</ele><time>2026-03-22T10:12:25.99Z</time></trkpt><trkpt lat="43.3084017" lon="13.2127583"><ele>661.0</ele><time>2026-03-22T10:12:27.99Z</time></trkpt><trkpt lat="43.30846" lon="13.2127217"><ele>662.3333333333333</ele><time>2026-03-22T10:12:28.989Z</time></trkpt><trkpt lat="43.308535" lon="13.2127033"><ele>663.6666666666666</ele><time>2026-03-22T10:12:29.989Z</time></trkpt><trkpt lat="43.3086333" lon="13.2126867"><ele>665.0</ele><time>2026-03-22T10:12:30.989Z</time></trkpt><trkpt lat="43.30874" lon="13.212675"><ele>665.0</ele><time>2026-03-22T10:12:31.989Z</time></trkpt><trkpt lat="43.30885" lon="13.212655"><ele>665.0</ele><time>2026-03-22T10:12:32.989Z</time></trkpt><trkpt lat="43.308965" lon="13.2126417"><ele>665.0</ele><time>2026-03-22T10:12:33.989Z</time></trkpt><trkpt lat="43.3090717" lon="13.212645"><ele>665.0</ele><time>2026-03-22T10:12:34.989Z</time></trkpt><trkpt lat="43.30918" lon="13.2126517"><ele>665.0</ele><time>2026-03-22T10:12:35.99Z</time></trkpt><trkpt lat="43.309285" lon="13.21265"><ele>665.25</ele><time>2026-03-22T10:12:36.99Z</time></trkpt><trkpt lat="43.3093917" lon="13.2126133"><ele>665.5</ele><time>2026-03-22T10:12:37.99Z</time></trkpt><trkpt lat="43.3094983" lon="13.2125333"><ele>665.75</ele><time>2026-03-22T10:12:38.989Z</time></trkpt><trkpt lat="43.3096" lon="13.212425"><ele>666.0</ele><time>2026-03-22T10:12:39.989Z</time></trkpt><trkpt lat="43.3097" lon="13.2122967"><ele>662.25</ele><time>2026-03-22T10:12:40.99Z</time></trkpt><trkpt lat="43.3097883" lon="13.2121667"><ele>658.5</ele><time>2026-03-22T10:12:41.989Z</time></trkpt><trkpt lat="43.30987" lon="13.2120333"><ele>654.75</ele><time>2026-03-22T10:12:42.989Z</time></trkpt><trkpt lat="43.3099533" lon="13.2119"><ele>651.0</ele><time>2026-03-22T10:12:43.989Z</time></trkpt><trkpt lat="43.3100467" lon="13.2117833"><ele>651.0</ele><time>2026-03-22T10:12:44.989Z</time></trkpt><trkpt lat="43.310145" lon="13.211695"><ele>651.0</ele><time>2026-03-22T10:12:45.99Z</time></trkpt><trkpt lat="43.31025" lon="13.2116317"><ele>651.0</ele><time>2026-03-22T10:12:46.989Z</time></trkpt><trkpt lat="43.3103583" lon="13.2115733"><ele>651.0</ele><time>2026-03-22T10:12:47.99Z</time></trkpt><trkpt lat="43.3104583" lon="13.21149"><ele>647.0</ele><time>2026-03-22T10:12:48.989Z</time></trkpt><trkpt lat="43.3105517" lon="13.2113833"><ele>643.0</ele><time>2026-03-22T10:12:49.989Z</time></trkpt><trkpt lat="43.310635" lon="13.21126"><ele>639.0</ele><time>2026-03-22T10:12:50.99Z</time></trkpt><trkpt lat="43.3107167" lon="13.21115"><ele>635.0</ele><time>2026-03-22T10:12:51.989Z</time></trkpt><trkpt lat="43.3108067" lon="13.2110483"><ele>635.0</ele><time>2026-03-22T10:12:52.989Z</time></trkpt><trkpt lat="43.3109" lon="13.21095"><ele>635.0</ele><time>2026-03-22T10:12:53.989Z</time></trkpt><trkpt lat="43.311005" lon="13.21087"><ele>635.0</ele><time>2026-03-22T10:12:54.99Z</time></trkpt><trkpt lat="43.3111233" lon="13.2107817"><ele>635.0</ele><time>2026-03-22T10:12:55.989Z</time></trkpt><trkpt lat="43.31124" lon="13.2106983"><ele>632.0</ele><time>2026-03-22T10:12:56.989Z</time></trkpt><trkpt lat="43.3113567" lon="13.210625"><ele>629.0</ele><time>2026-03-22T10:12:57.99Z</time></trkpt><trkpt lat="43.311475" lon="13.2105283"><ele>626.0</ele><time>2026-03-22T10:12:58.99Z</time></trkpt><trkpt lat="43.311585" lon="13.2104267"><ele>623.0</ele><time>2026-03-22T10:12:59.99Z</time></trkpt><trkpt lat="43.3116867" lon="13.21031"><ele>623.0</ele><time>2026-03-22T10:13:00.989Z</time></trkpt><trkpt lat="43.3117783" lon="13.210175"><ele>623.0</ele><time>2026-03-22T10:13:01.989Z</time></trkpt><trkpt lat="43.311875" lon="13.2100333"><ele>623.0</ele><time>2026-03-22T10:13:02.989Z</time></trkpt><trkpt lat="43.3119667" lon="13.2098933"><ele>623.0</ele><time>2026-03-22T10:13:03.99Z</time></trkpt><trkpt lat="43.31205" lon="13.20977"><ele>621.8333333333333</ele><time>2026-03-22T10:13:04.989Z</time></trkpt><trkpt lat="43.3121317" lon="13.20966"><ele>620.6666666666666</ele><time>2026-03-22T10:13:05.989Z</time></trkpt><trkpt lat="43.3121983" lon="13.2095583"><ele>619.5</ele><time>2026-03-22T10:13:06.989Z</time></trkpt><trkpt lat="43.3122633" lon="13.2094667"><ele>618.3333333333334</ele><time>2026-03-22T10:13:07.989Z</time></trkpt><trkpt lat="43.3123183" lon="13.2093967"><ele>617.1666666666667</ele><time>2026-03-22T10:13:08.99Z</time></trkpt><trkpt lat="43.3123617" lon="13.2093333"><ele>616.0</ele><time>2026-03-22T10:13:09.989Z</time></trkpt><trkpt lat="43.3124283" lon="13.2093"><ele>616.0</ele><time>2026-03-22T10:13:11.99Z</time></trkpt><trkpt lat="43.3125" lon="13.209325"><ele>616.0</ele><time>2026-03-22T10:13:14.989Z</time></trkpt><trkpt lat="43.31257" lon="13.209345"><ele>616.0</ele><time>2026-03-22T10:13:16.989Z</time></trkpt><trkpt lat="43.3125183" lon="13.2094567"><ele>616.0</ele><time>2026-03-22T10:15:15.989Z</time></trkpt><trkpt lat="43.31246" lon="13.209495"><ele>616.0</ele><time>2026-03-22T10:15:16.989Z</time></trkpt><trkpt lat="43.3123917" lon="13.2095483"><ele>616.0</ele><time>2026-03-22T10:15:17.989Z</time></trkpt><trkpt lat="43.312315" lon="13.20962"><ele>614.8333333333334</ele><time>2026-03-22T10:15:18.99Z</time></trkpt><trkpt lat="43.3122383" lon="13.2097017"><ele>613.6666666666667</ele><time>2026-03-22T10:15:19.989Z</time></trkpt><trkpt lat="43.3121717" lon="13.209775"><ele>612.5</ele><time>2026-03-22T10:15:20.989Z</time></trkpt><trkpt lat="43.31213" lon="13.2098517"><ele>611.3333333333334</ele><time>2026-03-22T10:15:21.989Z</time></trkpt><trkpt lat="43.312105" lon="13.2099317"><ele>610.1666666666666</ele><time>2026-03-22T10:15:22.989Z</time></trkpt><trkpt lat="43.3121017" lon="13.2100283"><ele>609.0</ele><time>2026-03-22T10:15:23.989Z</time></trkpt><trkpt lat="43.3121083" lon="13.210135"><ele>611.3333333333334</ele><time>2026-03-22T10:15:24.989Z</time></trkpt><trkpt lat="43.3121167" lon="13.2102333"><ele>613.6666666666666</ele><time>2026-03-22T10:15:25.989Z</time></trkpt><trkpt lat="43.3121117" lon="13.2103367"><ele>616.0</ele><time>2026-03-22T10:15:26.989Z</time></trkpt><trkpt lat="43.3121183" lon="13.210425"><ele>618.3333333333333</ele><time>2026-03-22T10:15:27.989Z</time></trkpt><trkpt lat="43.312115" lon="13.2105383"><ele>620.6666666666666</ele><time>2026-03-22T10:15:29.989Z</time></trkpt><trkpt lat="43.3121" lon="13.210655"><ele>623.0</ele><time>2026-03-22T10:15:31.989Z</time></trkpt><trkpt lat="43.3120983" lon="13.2108017"><ele>626.5999999999999</ele><time>2026-03-22T10:15:33.989Z</time></trkpt><trkpt lat="43.3120917" lon="13.2109167"><ele>630.1999999999999</ele><time>2026-03-22T10:15:35.989Z</time></trkpt><trkpt lat="43.3120733" lon="13.21103"><ele>633.8</ele><time>2026-03-22T10:15:37.99Z</time></trkpt><trkpt lat="43.312045" lon="13.21115"><ele>637.4</ele><time>2026-03-22T10:15:39.989Z</time></trkpt><trkpt lat="43.3120033" lon="13.2113083"><ele>641.0</ele><time>2026-03-22T10:15:41.989Z</time></trkpt><trkpt lat="43.3119483" lon="13.2114483"><ele>643.3333333333333</ele><time>2026-03-22T10:15:43.989Z</time></trkpt><trkpt lat="43.3119117" lon="13.211525"><ele>645.6666666666666</ele><time>2026-03-22T10:15:44.989Z</time></trkpt><trkpt lat="43.31187" lon="13.2116067"><ele>648.0</ele><time>2026-03-22T10:15:45.989Z</time></trkpt><trkpt lat="43.3118333" lon="13.2116833"><ele>650.3333333333334</ele><time>2026-03-22T10:15:46.99Z</time></trkpt><trkpt lat="43.311745" lon="13.2118233"><ele>652.6666666666667</ele><time>2026-03-22T10:15:48.989Z</time></trkpt><trkpt lat="43.3116967" lon="13.2118817"><ele>655.0</ele><time>2026-03-22T10:15:49.989Z</time></trkpt><trkpt lat="43.3116533" lon="13.211955"><ele>655.0</ele><time>2026-03-22T10:15:50.99Z</time></trkpt><trkpt lat="43.3116017" lon="13.2120383"><ele>655.0</ele><time>2026-03-22T10:15:51.989Z</time></trkpt><trkpt lat="43.31155" lon="13.2121267"><ele>655.0</ele><time>2026-03-22T10:15:52.989Z</time></trkpt><trkpt lat="43.3114967" lon="13.2122133"><ele>655.0</ele><time>2026-03-22T10:15:53.989Z</time></trkpt><trkpt lat="43.31145" lon="13.2123"><ele>655.0</ele><time>2026-03-22T10:15:54.989Z</time></trkpt><trkpt lat="43.3114" lon="13.2123867"><ele>655.0</ele><time>2026-03-22T10:15:55.99Z</time></trkpt><trkpt lat="43.3113467" lon="13.2124667"><ele>657.4285714285714</ele><time>2026-03-22T10:15:56.989Z</time></trkpt><trkpt lat="43.3113017" lon="13.21253"><ele>659.8571428571429</ele><time>2026-03-22T10:15:57.989Z</time></trkpt><trkpt lat="43.3112233" lon="13.2126233"><ele>662.2857142857142</ele><time>2026-03-22T10:15:59.989Z</time></trkpt><trkpt lat="43.3111733" lon="13.2126883"><ele>664.7142857142858</ele><time>2026-03-22T10:16:00.989Z</time></trkpt><trkpt lat="43.3111233" lon="13.21276"><ele>667.1428571428571</ele><time>2026-03-22T10:16:01.989Z</time></trkpt><trkpt lat="43.31108" lon="13.212835"><ele>669.5714285714286</ele><time>2026-03-22T10:16:02.989Z</time></trkpt><trkpt lat="43.3110317" lon="13.2129017"><ele>672.0</ele><time>2026-03-22T10:16:03.989Z</time></trkpt><trkpt lat="43.310965" lon="13.2130033"><ele>672.0</ele><time>2026-03-22T10:16:05.989Z</time></trkpt><trkpt lat="43.3109067" lon="13.2131417"><ele>672.0</ele><time>2026-03-22T10:16:07.99Z</time></trkpt><trkpt lat="43.310875" lon="13.2132317"><ele>672.0</ele><time>2026-03-22T10:16:08.989Z</time></trkpt><trkpt lat="43.3108453" lon="13.2133239"><ele>672.0</ele><time>2026-03-22T10:16:09.989Z</time></trkpt><trkpt lat="43.3108226" lon="13.2134158"><ele>672.0</ele><time>2026-03-22T10:16:10.989Z</time></trkpt><trkpt lat="43.3108113" lon="13.2135105"><ele>672.0</ele><time>2026-03-22T10:16:11.989Z</time></trkpt><trkpt lat="43.3108023" lon="13.2136504"><ele>674.4000000000001</ele><time>2026-03-22T10:16:13.989Z</time></trkpt><trkpt lat="43.3108002" lon="13.2137647"><ele>676.8000000000001</ele><time>2026-03-22T10:16:15.99Z</time></trkpt><trkpt lat="43.3108047" lon="13.2138767"><ele>679.2</ele><time>2026-03-22T10:16:17.989Z</time></trkpt><trkpt lat="43.3107944" lon="13.2140122"><ele>681.6</ele><time>2026-03-22T10:16:19.989Z</time></trkpt><trkpt lat="43.3107749" lon="13.2141702"><ele>684.0</ele><time>2026-03-22T10:16:21.989Z</time></trkpt><trkpt lat="43.3107553" lon="13.2143213"><ele>684.8333333333334</ele><time>2026-03-22T10:16:23.989Z</time></trkpt><trkpt lat="43.3107497" lon="13.2144486"><ele>685.6666666666666</ele><time>2026-03-22T10:16:25.99Z</time></trkpt><trkpt lat="43.3107454" lon="13.2145521"><ele>686.5</ele><time>2026-03-22T10:16:27.989Z</time></trkpt><trkpt lat="43.3107167" lon="13.2147145"><ele>687.3333333333333</ele><time>2026-03-22T10:16:56.99Z</time></trkpt><trkpt lat="43.3107713" lon="13.2147857"><ele>688.1666666666666</ele><time>2026-03-22T10:17:40.989Z</time></trkpt><trkpt lat="43.3108463" lon="13.21478"><ele>689.0</ele><time>2026-03-22T10:17:42.989Z</time></trkpt><trkpt lat="43.3109089" lon="13.2147627"><ele>689.0</ele><time>2026-03-22T10:17:44.989Z</time></trkpt><trkpt lat="43.310948" lon="13.2146644"><ele>689.0</ele><time>2026-03-22T10:17:48.989Z</time></trkpt><trkpt lat="43.3109799" lon="13.2145496"><ele>689.0</ele><time>2026-03-22T10:18:27.989Z</time></trkpt><trkpt lat="43.3110138" lon="13.2144495"><ele>689.0</ele><time>2026-03-22T10:18:30.989Z</time></trkpt><trkpt lat="43.3110689" lon="13.2143494"><ele>689.0</ele><time>2026-03-22T10:18:32.989Z</time></trkpt><trkpt lat="43.3111285" lon="13.2142174"><ele>689.0</ele><time>2026-03-22T10:18:34.99Z</time></trkpt><trkpt lat="43.3111687" lon="13.2140659"><ele>689.0</ele><time>2026-03-22T10:18:36.989Z</time></trkpt><trkpt lat="43.3112015" lon="13.2139353"><ele>689.0</ele><time>2026-03-22T10:18:38.989Z</time></trkpt><trkpt lat="43.311252" lon="13.2138227"><ele>689.0</ele><time>2026-03-22T10:18:40.989Z</time></trkpt><trkpt lat="43.3113085" lon="13.2137194"><ele>689.0</ele><time>2026-03-22T10:18:42.99Z</time></trkpt><trkpt lat="43.3113486" lon="13.2136458"><ele>688.1666666666666</ele><time>2026-03-22T10:18:44.989Z</time></trkpt><trkpt lat="43.3113903" lon="13.2135577"><ele>687.3333333333333</ele><time>2026-03-22T10:18:47.989Z</time></trkpt><trkpt lat="43.3114186" lon="13.2134713"><ele>686.5</ele><time>2026-03-22T10:18:51.989Z</time></trkpt><trkpt lat="43.3114315" lon="13.2133837"><ele>685.6666666666666</ele><time>2026-03-22T10:18:55.989Z</time></trkpt><trkpt lat="43.3114609" lon="13.2133015"><ele>684.8333333333334</ele><time>2026-03-22T10:19:01.989Z</time></trkpt><trkpt lat="43.3115543" lon="13.2132034"><ele>684.0</ele><time>2026-03-22T10:19:11.99Z</time></trkpt><trkpt lat="43.3116182" lon="13.2131414"><ele>679.3333333333334</ele><time>2026-03-22T10:19:16.989Z</time></trkpt><trkpt lat="43.3116691" lon="13.2130694"><ele>674.6666666666666</ele><time>2026-03-22T10:19:20.99Z</time></trkpt><trkpt lat="43.3117502" lon="13.213036"><ele>670.0</ele><time>2026-03-22T10:19:29.989Z</time></trkpt><trkpt lat="43.31182" lon="13.2129936"><ele>665.3333333333333</ele><time>2026-03-22T10:19:32.99Z</time></trkpt><trkpt lat="43.3118893" lon="13.212953"><ele>660.6666666666666</ele><time>2026-03-22T10:19:37.989Z</time></trkpt><trkpt lat="43.3119644" lon="13.2129204"><ele>656.0</ele><time>2026-03-22T10:19:43.989Z</time></trkpt><trkpt lat="43.3120418" lon="13.2128818"><ele>656.0</ele><time>2026-03-22T10:19:47.989Z</time></trkpt><trkpt lat="43.3120941" lon="13.2127982"><ele>656.0</ele><time>2026-03-22T10:19:50.989Z</time></trkpt><trkpt lat="43.3121456" lon="13.2127378"><ele>656.0</ele><time>2026-03-22T10:19:54.99Z</time></trkpt><trkpt lat="43.3122113" lon="13.2126556"><ele>656.0</ele><time>2026-03-22T10:19:58.99Z</time></trkpt><trkpt lat="43.3122866" lon="13.2125779"><ele>656.0</ele><time>2026-03-22T10:20:00.99Z</time></trkpt><trkpt lat="43.31238" lon="13.2124734"><ele>649.5999999999999</ele><time>2026-03-22T10:20:02.99Z</time></trkpt><trkpt lat="43.3124582" lon="13.2123896"><ele>643.1999999999999</ele><time>2026-03-22T10:20:04.989Z</time></trkpt><trkpt lat="43.3125181" lon="13.212332"><ele>636.8</ele><time>2026-03-22T10:20:06.989Z</time></trkpt><trkpt lat="43.312615" lon="13.21231"><ele>630.4</ele><time>2026-03-22T10:33:46.989Z</time></trkpt><trkpt lat="43.3127217" lon="13.2123333"><ele>624.0</ele><time>2026-03-22T10:33:48.989Z</time></trkpt><trkpt lat="43.3127967" lon="13.2123267"><ele>624.0</ele><time>2026-03-22T10:33:49.989Z</time></trkpt><trkpt lat="43.3128783" lon="13.212325"><ele>624.0</ele><time>2026-03-22T10:33:50.989Z</time></trkpt><trkpt lat="43.3129583" lon="13.2123183"><ele>624.0</ele><time>2026-03-22T10:33:51.989Z</time></trkpt><trkpt lat="43.3130417" lon="13.2122983"><ele>624.0</ele><time>2026-03-22T10:33:52.989Z</time></trkpt><trkpt lat="43.3131217" lon="13.2122817"><ele>624.0</ele><time>2026-03-22T10:33:53.989Z</time></trkpt><trkpt lat="43.3131917" lon="13.21226"><ele>624.0</ele><time>2026-03-22T10:33:54.99Z</time></trkpt><trkpt lat="43.3132633" lon="13.2122283"><ele>619.8</ele><time>2026-03-22T10:33:55.99Z</time></trkpt><trkpt lat="43.3133317" lon="13.2121783"><ele>615.5999999999999</ele><time>2026-03-22T10:33:56.989Z</time></trkpt><trkpt lat="43.313405" lon="13.2121267"><ele>611.4</ele><time>2026-03-22T10:33:57.989Z</time></trkpt><trkpt lat="43.3135133" lon="13.21209"><ele>607.1999999999999</ele><time>2026-03-22T10:33:59.99Z</time></trkpt><trkpt lat="43.3135983" lon="13.21214"><ele>603.0</ele><time>2026-03-22T10:34:01.989Z</time></trkpt><trkpt lat="43.31362" lon="13.212265"><ele>607.0</ele><time>2026-03-22T10:34:03.989Z</time></trkpt><trkpt lat="43.3136" lon="13.212355"><ele>611.0</ele><time>2026-03-22T10:34:04.989Z</time></trkpt><trkpt lat="43.3135733" lon="13.21246"><ele>615.0</ele><time>2026-03-22T10:34:05.989Z</time></trkpt><trkpt lat="43.3135433" lon="13.2125767"><ele>619.0</ele><time>2026-03-22T10:34:06.989Z</time></trkpt><trkpt lat="43.313515" lon="13.2126833"><ele>623.0</ele><time>2026-03-22T10:34:07.989Z</time></trkpt><trkpt lat="43.3134967" lon="13.2127967"><ele>627.0</ele><time>2026-03-22T10:34:08.989Z</time></trkpt><trkpt lat="43.313485" lon="13.2129067"><ele>627.0</ele><time>2026-03-22T10:34:09.989Z</time></trkpt><trkpt lat="43.3134817" lon="13.2130083"><ele>627.0</ele><time>2026-03-22T10:34:10.989Z</time></trkpt><trkpt lat="43.313485" lon="13.213105"><ele>627.0</ele><time>2026-03-22T10:34:11.989Z</time></trkpt><trkpt lat="43.31348" lon="13.21321"><ele>627.0</ele><time>2026-03-22T10:34:12.989Z</time></trkpt><trkpt lat="43.3134883" lon="13.2133817"><ele>627.0</ele><time>2026-03-22T10:34:14.989Z</time></trkpt><trkpt lat="43.31351" lon="13.2134733"><ele>627.0</ele><time>2026-03-22T10:34:15.989Z</time></trkpt><trkpt lat="43.313535" lon="13.213555"><ele>631.8</ele><time>2026-03-22T10:34:16.99Z</time></trkpt><trkpt lat="43.3135733" lon="13.2137017"><ele>636.6</ele><time>2026-03-22T10:34:18.99Z</time></trkpt><trkpt lat="43.3135817" lon="13.21388"><ele>641.4</ele><time>2026-03-22T10:34:20.989Z</time></trkpt><trkpt lat="43.3135767" lon="13.21399"><ele>646.1999999999999</ele><time>2026-03-22T10:34:21.989Z</time></trkpt><trkpt lat="43.31358" lon="13.2141083"><ele>651.0</ele><time>2026-03-22T10:34:22.989Z</time></trkpt><trkpt lat="43.3136033" lon="13.21423"><ele>654.1999999999999</ele><time>2026-03-22T10:34:23.989Z</time></trkpt><trkpt lat="43.3136133" lon="13.2143867"><ele>657.4</ele><time>2026-03-22T10:34:24.989Z</time></trkpt><trkpt lat="43.3136333" lon="13.2145233"><ele>660.6</ele><time>2026-03-22T10:34:25.99Z</time></trkpt><trkpt lat="43.3136633" lon="13.21466"><ele>663.8</ele><time>2026-03-22T10:34:26.99Z</time></trkpt><trkpt lat="43.3136783" lon="13.21479"><ele>667.0</ele><time>2026-03-22T10:34:27.989Z</time></trkpt><trkpt lat="43.3136883" lon="13.214925"><ele>670.0</ele><time>2026-03-22T10:34:28.99Z</time></trkpt><trkpt lat="43.31369" lon="13.215075"><ele>673.0</ele><time>2026-03-22T10:34:29.989Z</time></trkpt><trkpt lat="43.3136917" lon="13.2152217"><ele>676.0</ele><time>2026-03-22T10:34:30.989Z</time></trkpt><trkpt lat="43.313695" lon="13.2153583"><ele>679.0</ele><time>2026-03-22T10:34:31.989Z</time></trkpt><trkpt lat="43.3137017" lon="13.2154667"><ele>682.0</ele><time>2026-03-22T10:34:32.989Z</time></trkpt><trkpt lat="43.3137267" lon="13.2155533"><ele>682.0</ele><time>2026-03-22T10:34:33.99Z</time></trkpt><trkpt lat="43.313775" lon="13.2156117"><ele>682.0</ele><time>2026-03-22T10:34:34.989Z</time></trkpt><trkpt lat="43.3138317" lon="13.2156617"><ele>682.0</ele><time>2026-03-22T10:34:35.989Z</time></trkpt><trkpt lat="43.313915" lon="13.2157017"><ele>682.0</ele><time>2026-03-22T10:34:37.989Z</time></trkpt><trkpt lat="43.3139933" lon="13.2155983"><ele>682.0</ele><time>2026-03-22T10:35:06.989Z</time></trkpt><trkpt lat="43.3139483" lon="13.2155233"><ele>682.0</ele><time>2026-03-22T10:35:10.989Z</time></trkpt><trkpt lat="43.3140233" lon="13.2154667"><ele>675.5714285714286</ele><time>2026-03-22T10:35:18.989Z</time></trkpt><trkpt lat="43.3140917" lon="13.2154517"><ele>669.1428571428571</ele><time>2026-03-22T10:35:22.989Z</time></trkpt><trkpt lat="43.3140717" lon="13.2153467"><ele>662.7142857142858</ele><time>2026-03-22T10:35:32.989Z</time></trkpt><trkpt lat="43.3140683" lon="13.2152383"><ele>656.2857142857142</ele><time>2026-03-22T10:35:36.99Z</time></trkpt><trkpt lat="43.31407" lon="13.2151467"><ele>649.8571428571429</ele><time>2026-03-22T10:35:40.99Z</time></trkpt><trkpt lat="43.3141283" lon="13.215075"><ele>643.4285714285714</ele><time>2026-03-22T10:35:44.99Z</time></trkpt><trkpt lat="43.3141717" lon="13.21499"><ele>637.0</ele><time>2026-03-22T10:35:47.989Z</time></trkpt><trkpt lat="43.3142133" lon="13.2149217"><ele>633.6666666666667</ele><time>2026-03-22T10:35:49.99Z</time></trkpt><trkpt lat="43.3142367" lon="13.2148133"><ele>630.3333333333334</ele><time>2026-03-22T10:35:52.989Z</time></trkpt><trkpt lat="43.3142267" lon="13.2147067"><ele>627.0</ele><time>2026-03-22T10:35:55.989Z</time></trkpt><trkpt lat="43.3142" lon="13.2146083"><ele>623.6666666666666</ele><time>2026-03-22T10:35:57.99Z</time></trkpt><trkpt lat="43.3141733" lon="13.2144883"><ele>620.3333333333333</ele><time>2026-03-22T10:35:59.99Z</time></trkpt><trkpt lat="43.3141317" lon="13.214365"><ele>617.0</ele><time>2026-03-22T10:36:01.989Z</time></trkpt><trkpt lat="43.3141083" lon="13.214225"><ele>617.0</ele><time>2026-03-22T10:36:03.989Z</time></trkpt><trkpt lat="43.3140933" lon="13.21408"><ele>617.0</ele><time>2026-03-22T10:36:05.99Z</time></trkpt><trkpt lat="43.31408" lon="13.2139267"><ele>617.0</ele><time>2026-03-22T10:36:07.989Z</time></trkpt><trkpt lat="43.3140817" lon="13.2137883"><ele>617.0</ele><time>2026-03-22T10:36:09.989Z</time></trkpt><trkpt lat="43.314085" lon="13.2136633"><ele>617.0</ele><time>2026-03-22T10:36:11.99Z</time></trkpt><trkpt lat="43.31408" lon="13.2135733"><ele>616.0</ele><time>2026-03-22T10:36:13.989Z</time></trkpt><trkpt lat="43.314055" lon="13.2134933"><ele>615.0</ele><time>2026-03-22T10:36:15.989Z</time></trkpt><trkpt lat="43.31406" lon="13.213395"><ele>614.0</ele><time>2026-03-22T10:36:17.989Z</time></trkpt><trkpt lat="43.31407" lon="13.213285"><ele>613.0</ele><time>2026-03-22T10:36:19.989Z</time></trkpt><trkpt lat="43.314085" lon="13.2131967"><ele>612.0</ele><time>2026-03-22T10:36:21.989Z</time></trkpt><trkpt lat="43.31415" lon="13.2132417"><ele>611.0</ele><time>2026-03-22T10:36:26.989Z</time></trkpt><trkpt lat="43.3141833" lon="13.2133183"><ele>610.0</ele><time>2026-03-22T10:36:29.989Z</time></trkpt><trkpt lat="43.3142033" lon="13.2134367"><ele>610.0</ele><time>2026-03-22T10:36:32.989Z</time></trkpt><trkpt lat="43.3142233" lon="13.2135433"><ele>610.0</ele><time>2026-03-22T10:36:43.99Z</time></trkpt><trkpt lat="43.3142467" lon="13.2136383"><ele>610.0</ele><time>2026-03-22T10:36:46.989Z</time></trkpt><trkpt lat="43.3142733" lon="13.2137583"><ele>610.0</ele><time>2026-03-22T10:36:51.989Z</time></trkpt><trkpt lat="43.3142983" lon="13.213885"><ele>610.0</ele><time>2026-03-22T10:36:54.989Z</time></trkpt><trkpt lat="43.3143367" lon="13.2139833"><ele>610.0</ele><time>2026-03-22T10:36:56.989Z</time></trkpt><trkpt lat="43.3143867" lon="13.2140883"><ele>610.0</ele><time>2026-03-22T10:36:59.989Z</time></trkpt><trkpt lat="43.3144817" lon="13.2142"><ele>610.0</ele><time>2026-03-22T10:37:06.989Z</time></trkpt><trkpt lat="43.314555" lon="13.2141483"><ele>610.0</ele><time>2026-03-22T10:37:09.989Z</time></trkpt><trkpt lat="43.3146083" lon="13.2140433"><ele>610.0</ele><time>2026-03-22T10:37:12.99Z</time></trkpt><trkpt lat="43.3146467" lon="13.213945"><ele>610.0</ele><time>2026-03-22T10:37:14.989Z</time></trkpt><trkpt lat="43.3146833" lon="13.2138633"><ele>603.3333333333334</ele><time>2026-03-22T10:37:16.989Z</time></trkpt><trkpt lat="43.3147417" lon="13.2137917"><ele>596.6666666666667</ele><time>2026-03-22T10:37:18.99Z</time></trkpt><trkpt lat="43.3147717" lon="13.21371"><ele>590.0</ele><time>2026-03-22T10:38:08.989Z</time></trkpt><trkpt lat="43.314845" lon="13.2136133"><ele>583.3333333333334</ele><time>2026-03-22T10:38:11.989Z</time></trkpt><trkpt lat="43.3148983" lon="13.2135483"><ele>576.6666666666666</ele><time>2026-03-22T10:38:13.989Z</time></trkpt><trkpt lat="43.3149733" lon="13.2134567"><ele>570.0</ele><time>2026-03-22T10:38:16.989Z</time></trkpt><trkpt lat="43.315035" lon="13.2133683"><ele>570.0</ele><time>2026-03-22T10:38:18.99Z</time></trkpt><trkpt lat="43.3150933" lon="13.21328"><ele>570.0</ele><time>2026-03-22T10:38:20.99Z</time></trkpt><trkpt lat="43.3151033" lon="13.2131833"><ele>570.0</ele><time>2026-03-22T10:38:23.989Z</time></trkpt><trkpt lat="43.3151233" lon="13.21309"><ele>570.0</ele><time>2026-03-22T10:38:27.989Z</time></trkpt><trkpt lat="43.3151617" lon="13.212985"><ele>570.0</ele><time>2026-03-22T10:38:32.989Z</time></trkpt><trkpt lat="43.315195" lon="13.212875"><ele>570.0</ele><time>2026-03-22T10:38:35.989Z</time></trkpt><trkpt lat="43.3152633" lon="13.2128133"><ele>567.5</ele><time>2026-03-22T10:38:38.989Z</time></trkpt><trkpt lat="43.3153333" lon="13.2127533"><ele>565.0</ele><time>2026-03-22T10:38:41.989Z</time></trkpt><trkpt lat="43.3153867" lon="13.2126683"><ele>562.5</ele><time>2026-03-22T10:38:44.989Z</time></trkpt><trkpt lat="43.3154517" lon="13.2125917"><ele>560.0</ele><time>2026-03-22T10:38:47.989Z</time></trkpt><trkpt lat="43.31549" lon="13.2124967"><ele>557.5</ele><time>2026-03-22T10:38:50.99Z</time></trkpt><trkpt lat="43.31554" lon="13.212415"><ele>555.0</ele><time>2026-03-22T10:38:54.989Z</time></trkpt><trkpt lat="43.31563" lon="13.21237"><ele>551.6</ele><time>2026-03-22T10:38:57.989Z</time></trkpt><trkpt lat="43.31571" lon="13.21236"><ele>548.2</ele><time>2026-03-22T10:38:59.989Z</time></trkpt><trkpt lat="43.3158" lon="13.2123633"><ele>544.8</ele><time>2026-03-22T10:39:01.99Z</time></trkpt><trkpt lat="43.3158883" lon="13.212355"><ele>541.4</ele><time>2026-03-22T10:39:03.989Z</time></trkpt><trkpt lat="43.3159917" lon="13.212345"><ele>538.0</ele><time>2026-03-22T10:39:05.989Z</time></trkpt><trkpt lat="43.31611" lon="13.2123233"><ele>538.1666666666667</ele><time>2026-03-22T10:39:07.989Z</time></trkpt><trkpt lat="43.31618" lon="13.21231"><ele>538.3333333333334</ele><time>2026-03-22T10:39:08.99Z</time></trkpt><trkpt lat="43.31626" lon="13.212295"><ele>538.5</ele><time>2026-03-22T10:39:09.989Z</time></trkpt><trkpt lat="43.316345" lon="13.2122817"><ele>538.6666666666666</ele><time>2026-03-22T10:39:10.989Z</time></trkpt><trkpt lat="43.316435" lon="13.212275"><ele>538.8333333333333</ele><time>2026-03-22T10:39:11.989Z</time></trkpt><trkpt lat="43.3165183" lon="13.2122733"><ele>539.0</ele><time>2026-03-22T10:39:12.989Z</time></trkpt><trkpt lat="43.31661" lon="13.212295"><ele>536.4</ele><time>2026-03-22T10:39:13.989Z</time></trkpt><trkpt lat="43.3167" lon="13.2123233"><ele>533.8</ele><time>2026-03-22T10:39:14.989Z</time></trkpt><trkpt lat="43.3168017" lon="13.21236"><ele>531.2</ele><time>2026-03-22T10:39:15.989Z</time></trkpt><trkpt lat="43.3169" lon="13.212405"><ele>528.6</ele><time>2026-03-22T10:39:16.99Z</time></trkpt><trkpt lat="43.316995" lon="13.2124583"><ele>526.0</ele><time>2026-03-22T10:39:17.989Z</time></trkpt><trkpt lat="43.3170867" lon="13.21253"><ele>526.0</ele><time>2026-03-22T10:39:18.989Z</time></trkpt><trkpt lat="43.3171833" lon="13.2126233"><ele>526.0</ele><time>2026-03-22T10:39:19.989Z</time></trkpt><trkpt lat="43.31727" lon="13.2127167"><ele>526.0</ele><time>2026-03-22T10:39:20.99Z</time></trkpt><trkpt lat="43.31737" lon="13.21281"><ele>526.0</ele><time>2026-03-22T10:39:21.989Z</time></trkpt><trkpt lat="43.317475" lon="13.2129"><ele>525.2</ele><time>2026-03-22T10:39:22.989Z</time></trkpt><trkpt lat="43.31757" lon="13.2129767"><ele>524.4000000000001</ele><time>2026-03-22T10:39:23.989Z</time></trkpt><trkpt lat="43.3176583" lon="13.2130483"><ele>523.6</ele><time>2026-03-22T10:39:24.99Z</time></trkpt><trkpt lat="43.31774" lon="13.213115"><ele>522.8000000000001</ele><time>2026-03-22T10:39:25.989Z</time></trkpt><trkpt lat="43.3178267" lon="13.2131733"><ele>522.0</ele><time>2026-03-22T10:39:26.989Z</time></trkpt><trkpt lat="43.31792" lon="13.2132083"><ele>522.0</ele><time>2026-03-22T10:39:27.989Z</time></trkpt><trkpt lat="43.3180183" lon="13.213235"><ele>522.0</ele><time>2026-03-22T10:39:28.99Z</time></trkpt><trkpt lat="43.3181117" lon="13.2132567"><ele>522.0</ele><time>2026-03-22T10:39:29.989Z</time></trkpt><trkpt lat="43.3182083" lon="13.21329"><ele>522.0</ele><time>2026-03-22T10:39:30.989Z</time></trkpt><trkpt lat="43.3183" lon="13.2133283"><ele>522.0</ele><time>2026-03-22T10:39:31.989Z</time></trkpt><trkpt lat="43.3183867" lon="13.2133633"><ele>519.0</ele><time>2026-03-22T10:39:32.989Z</time></trkpt><trkpt lat="43.3184683" lon="13.2133883"><ele>516.0</ele><time>2026-03-22T10:39:33.989Z</time></trkpt><trkpt lat="43.3185483" lon="13.21341"><ele>513.0</ele><time>2026-03-22T10:39:34.989Z</time></trkpt><trkpt lat="43.3186217" lon="13.213425"><ele>510.0</ele><time>2026-03-22T10:39:35.989Z</time></trkpt><trkpt lat="43.3187433" lon="13.2134433"><ele>507.0</ele><time>2026-03-22T10:39:37.989Z</time></trkpt><trkpt lat="43.31886" lon="13.2134733"><ele>505.6666666666667</ele><time>2026-03-22T10:39:39.989Z</time></trkpt><trkpt lat="43.31892" lon="13.21355"><ele>504.33333333333337</ele><time>2026-03-22T10:39:42.989Z</time></trkpt><trkpt lat="43.3189367" lon="13.21365"><ele>503.0</ele><time>2026-03-22T10:39:45.989Z</time></trkpt><trkpt lat="43.319005" lon="13.2136383"><ele>501.6666666666667</ele><time>2026-03-22T10:39:49.99Z</time></trkpt><trkpt lat="43.319015" lon="13.21354"><ele>500.33333333333337</ele><time>2026-03-22T10:39:51.989Z</time></trkpt><trkpt lat="43.3190017" lon="13.2134233"><ele>499.0</ele><time>2026-03-22T10:39:53.989Z</time></trkpt><trkpt lat="43.3189733" lon="13.213325"><ele>499.0</ele><time>2026-03-22T10:39:55.989Z</time></trkpt><trkpt lat="43.3189283" lon="13.2131933"><ele>499.0</ele><time>2026-03-22T10:39:57.99Z</time></trkpt><trkpt lat="43.31888" lon="13.21307"><ele>499.0</ele><time>2026-03-22T10:39:59.99Z</time></trkpt><trkpt lat="43.31882" lon="13.2130283"><ele>499.0</ele><time>2026-03-22T10:40:02.989Z</time></trkpt><trkpt lat="43.3187233" lon="13.2130083"><ele>499.0</ele><time>2026-03-22T10:40:05.99Z</time></trkpt><trkpt lat="43.3186467" lon="13.2130367"><ele>500.33333333333337</ele><time>2026-03-22T10:40:07.99Z</time></trkpt><trkpt lat="43.3185783" lon="13.213055"><ele>501.6666666666667</ele><time>2026-03-22T10:40:09.989Z</time></trkpt><trkpt lat="43.318505" lon="13.2130333"><ele>503.0</ele><time>2026-03-22T10:40:11.989Z</time></trkpt><trkpt lat="43.3184267" lon="13.2129967"><ele>504.33333333333337</ele><time>2026-03-22T10:40:13.989Z</time></trkpt><trkpt lat="43.3183667" lon="13.2129633"><ele>505.6666666666667</ele><time>2026-03-22T10:40:15.989Z</time></trkpt><trkpt lat="43.3182867" lon="13.2130417"><ele>507.0</ele><time>2026-03-22T10:40:24.989Z</time></trkpt><trkpt lat="43.3182117" lon="13.2130733"><ele>507.0</ele><time>2026-03-22T10:40:28.989Z</time></trkpt><trkpt lat="43.3181467" lon="13.2130217"><ele>507.0</ele><time>2026-03-22T10:40:32.99Z</time></trkpt><trkpt lat="43.31807" lon="13.21299"><ele>507.0</ele><time>2026-03-22T10:40:34.989Z</time></trkpt><trkpt lat="43.3179783" lon="13.2129483"><ele>507.0</ele><time>2026-03-22T10:40:36.99Z</time></trkpt><trkpt lat="43.317905" lon="13.2128933"><ele>507.0</ele><time>2026-03-22T10:40:38.989Z</time></trkpt><trkpt lat="43.3178367" lon="13.2129133"><ele>507.0</ele><time>2026-03-22T10:40:40.989Z</time></trkpt><trkpt lat="43.317765" lon="13.2128567"><ele>508.3333333333333</ele><time>2026-03-22T10:40:44.99Z</time></trkpt><trkpt lat="43.3177033" lon="13.2127967"><ele>509.66666666666663</ele><time>2026-03-22T10:40:46.99Z</time></trkpt><trkpt lat="43.3176317" lon="13.2127233"><ele>511.0</ele><time>2026-03-22T10:40:48.989Z</time></trkpt><trkpt lat="43.3175683" lon="13.2126533"><ele>512.3333333333333</ele><time>2026-03-22T10:40:50.989Z</time></trkpt><trkpt lat="43.3175233" lon="13.2125733"><ele>513.6666666666666</ele><time>2026-03-22T10:40:53.989Z</time></trkpt><trkpt lat="43.3174883" lon="13.2124817"><ele>515.0</ele><time>2026-03-22T10:40:56.99Z</time></trkpt><trkpt lat="43.317435" lon="13.2124067"><ele>515.0</ele><time>2026-03-22T10:40:59.989Z</time></trkpt><trkpt lat="43.3173633" lon="13.21236"><ele>515.0</ele><time>2026-03-22T10:41:02.989Z</time></trkpt><trkpt lat="43.3173067" lon="13.2123183"><ele>515.0</ele><time>2026-03-22T10:41:04.989Z</time></trkpt><trkpt lat="43.3172383" lon="13.212245"><ele>515.0</ele><time>2026-03-22T10:41:06.989Z</time></trkpt><trkpt lat="43.317175" lon="13.2121683"><ele>515.0</ele><time>2026-03-22T10:41:08.989Z</time></trkpt><trkpt lat="43.317105" lon="13.2121233"><ele>515.0</ele><time>2026-03-22T10:41:10.989Z</time></trkpt><trkpt lat="43.31701" lon="13.2121483"><ele>517.4285714285714</ele><time>2026-03-22T10:41:13.99Z</time></trkpt><trkpt lat="43.31694" lon="13.2121367"><ele>519.8571428571429</ele><time>2026-03-22T10:41:15.989Z</time></trkpt><trkpt lat="43.3168767" lon="13.2121033"><ele>522.2857142857142</ele><time>2026-03-22T10:41:17.99Z</time></trkpt><trkpt lat="43.31681" lon="13.2120667"><ele>524.7142857142858</ele><time>2026-03-22T10:41:19.989Z</time></trkpt><trkpt lat="43.3167417" lon="13.212055"><ele>527.1428571428571</ele><time>2026-03-22T10:41:21.99Z</time></trkpt><trkpt lat="43.3166633" lon="13.2120617"><ele>529.5714285714286</ele><time>2026-03-22T10:41:24.99Z</time></trkpt><trkpt lat="43.3165833" lon="13.2120417"><ele>532.0</ele><time>2026-03-22T10:41:28.989Z</time></trkpt><trkpt lat="43.3165183" lon="13.21203"><ele>532.0</ele><time>2026-03-22T10:41:31.989Z</time></trkpt><trkpt lat="43.3164267" lon="13.2120767"><ele>532.0</ele><time>2026-03-22T10:41:34.99Z</time></trkpt><trkpt lat="43.3163483" lon="13.21211"><ele>532.0</ele><time>2026-03-22T10:41:37.989Z</time></trkpt><trkpt lat="43.31629" lon="13.2121783"><ele>532.0</ele><time>2026-03-22T10:41:40.99Z</time></trkpt><trkpt lat="43.31623" lon="13.2122217"><ele>532.0</ele><time>2026-03-22T10:41:42.99Z</time></trkpt><trkpt lat="43.3161617" lon="13.2122483"><ele>532.0</ele><time>2026-03-22T10:41:45.99Z</time></trkpt><trkpt lat="43.3160833" lon="13.2122467"><ele>533.1666666666667</ele><time>2026-03-22T10:41:49.989Z</time></trkpt><trkpt lat="43.3160083" lon="13.2121967"><ele>534.3333333333334</ele><time>2026-03-22T10:41:53.989Z</time></trkpt><trkpt lat="43.3159917" lon="13.2120833"><ele>535.5</ele><time>2026-03-22T10:41:57.989Z</time></trkpt><trkpt lat="43.315955" lon="13.211945"><ele>536.6666666666666</ele><time>2026-03-22T10:42:06.989Z</time></trkpt><trkpt lat="43.3158883" lon="13.2118917"><ele>537.8333333333333</ele><time>2026-03-22T10:42:09.989Z</time></trkpt><trkpt lat="43.315845" lon="13.2118217"><ele>539.0</ele><time>2026-03-22T10:42:12.99Z</time></trkpt><trkpt lat="43.3158067" lon="13.21175"><ele>539.0</ele><time>2026-03-22T10:42:15.989Z</time></trkpt><trkpt lat="43.3157517" lon="13.2117033"><ele>539.0</ele><time>2026-03-22T10:42:18.989Z</time></trkpt><trkpt lat="43.31569" lon="13.211675"><ele>539.0</ele><time>2026-03-22T10:42:21.99Z</time></trkpt><trkpt lat="43.3156233" lon="13.2116367"><ele>539.0</ele><time>2026-03-22T10:42:24.989Z</time></trkpt><trkpt lat="43.31556" lon="13.2115867"><ele>539.0</ele><time>2026-03-22T10:42:28.99Z</time></trkpt><trkpt lat="43.3154867" lon="13.21155"><ele>539.0</ele><time>2026-03-22T10:42:31.99Z</time></trkpt><trkpt lat="43.3154183" lon="13.2114983"><ele>539.0</ele><time>2026-03-22T10:42:34.989Z</time></trkpt><trkpt lat="43.31534" lon="13.2114433"><ele>542.5714285714286</ele><time>2026-03-22T10:42:37.99Z</time></trkpt><trkpt lat="43.3152767" lon="13.211385"><ele>546.1428571428571</ele><time>2026-03-22T10:42:40.989Z</time></trkpt><trkpt lat="43.315215" lon="13.21136"><ele>549.7142857142858</ele><time>2026-03-22T10:42:43.989Z</time></trkpt><trkpt lat="43.315135" lon="13.2113233"><ele>553.2857142857142</ele><time>2026-03-22T10:42:46.99Z</time></trkpt><trkpt lat="43.3150717" lon="13.2113017"><ele>556.8571428571429</ele><time>2026-03-22T10:42:48.989Z</time></trkpt><trkpt lat="43.315" lon="13.211265"><ele>560.4285714285714</ele><time>2026-03-22T10:42:51.99Z</time></trkpt><trkpt lat="43.3149717" lon="13.211185"><ele>564.0</ele><time>2026-03-22T10:42:54.99Z</time></trkpt><trkpt lat="43.3149233" lon="13.2111167"><ele>564.0</ele><time>2026-03-22T10:42:58.989Z</time></trkpt><trkpt lat="43.3148567" lon="13.2110917"><ele>564.0</ele><time>2026-03-22T10:43:03.99Z</time></trkpt><trkpt lat="43.3147883" lon="13.21105"><ele>564.0</ele><time>2026-03-22T10:43:07.989Z</time></trkpt><trkpt lat="43.3147233" lon="13.2110267"><ele>564.0</ele><time>2026-03-22T10:43:10.989Z</time></trkpt><trkpt lat="43.31465" lon="13.2109933"><ele>564.0</ele><time>2026-03-22T10:43:13.989Z</time></trkpt><trkpt lat="43.314555" lon="13.2109583"><ele>564.0</ele><time>2026-03-22T10:43:16.99Z</time></trkpt><trkpt lat="43.31447" lon="13.2109233"><ele>565.0</ele><time>2026-03-22T10:43:19.989Z</time></trkpt><trkpt lat="43.3144017" lon="13.2108967"><ele>566.0</ele><time>2026-03-22T10:43:22.989Z</time></trkpt><trkpt lat="43.31433" lon="13.2108717"><ele>567.0</ele><time>2026-03-22T10:43:26.99Z</time></trkpt><trkpt lat="43.3142767" lon="13.2108233"><ele>568.0</ele><time>2026-03-22T10:43:28.989Z</time></trkpt><trkpt lat="43.3142017" lon="13.210765"><ele>569.0</ele><time>2026-03-22T10:43:31.989Z</time></trkpt><trkpt lat="43.3141317" lon="13.2106917"><ele>570.0</ele><time>2026-03-22T10:43:34.989Z</time></trkpt><trkpt lat="43.3140583" lon="13.2106483"><ele>574.0</ele><time>2026-03-22T10:43:37.989Z</time></trkpt><trkpt lat="43.314" lon="13.210615"><ele>578.0</ele><time>2026-03-22T10:43:39.989Z</time></trkpt><trkpt lat="43.31392" lon="13.2105733"><ele>582.0</ele><time>2026-03-22T10:43:42.989Z</time></trkpt><trkpt lat="43.31376" lon="13.210545"><ele>586.0</ele><time>2026-03-22T10:43:50.989Z</time></trkpt><trkpt lat="43.3136933" lon="13.2105567"><ele>590.0</ele><time>2026-03-22T10:43:52.989Z</time></trkpt><trkpt lat="43.3135967" lon="13.2105833"><ele>589.6666666666666</ele><time>2026-03-22T10:43:55.989Z</time></trkpt><trkpt lat="43.3135133" lon="13.2106033"><ele>589.3333333333333</ele><time>2026-03-22T10:43:58.989Z</time></trkpt><trkpt lat="43.3134433" lon="13.2106267"><ele>589.0</ele><time>2026-03-22T10:44:00.99Z</time></trkpt><trkpt lat="43.3133733" lon="13.21068"><ele>588.6666666666666</ele><time>2026-03-22T10:44:03.989Z</time></trkpt><trkpt lat="43.3133317" lon="13.21076"><ele>588.3333333333334</ele><time>2026-03-22T10:44:07.989Z</time></trkpt><trkpt lat="43.3132867" lon="13.2108483"><ele>588.0</ele><time>2026-03-22T10:44:10.989Z</time></trkpt><trkpt lat="43.313225" lon="13.2108983"><ele>588.0</ele><time>2026-03-22T10:44:14.989Z</time></trkpt><trkpt lat="43.31316" lon="13.2109383"><ele>588.0</ele><time>2026-03-22T10:44:20.989Z</time></trkpt><trkpt lat="43.3131133" lon="13.211045"><ele>588.0</ele><time>2026-03-22T10:44:24.99Z</time></trkpt><trkpt lat="43.313065" lon="13.2111417"><ele>588.0</ele><time>2026-03-22T10:44:27.99Z</time></trkpt><trkpt lat="43.31305" lon="13.21125"><ele>588.0</ele><time>2026-03-22T10:44:32.989Z</time></trkpt><trkpt lat="43.3130183" lon="13.211335"><ele>588.0</ele><time>2026-03-22T10:44:35.989Z</time></trkpt><trkpt lat="43.3129867" lon="13.21143"><ele>593.5</ele><time>2026-03-22T10:44:38.989Z</time></trkpt><trkpt lat="43.3129417" lon="13.211525"><ele>599.0</ele><time>2026-03-22T10:44:41.989Z</time></trkpt><trkpt lat="43.3128967" lon="13.2116217"><ele>604.5</ele><time>2026-03-22T10:44:44.989Z</time></trkpt><trkpt lat="43.3128733" lon="13.2117033"><ele>610.0</ele><time>2026-03-22T10:44:46.989Z</time></trkpt><trkpt lat="43.3128233" lon="13.2118067"><ele>615.5</ele><time>2026-03-22T10:44:48.989Z</time></trkpt><trkpt lat="43.3127817" lon="13.2118883"><ele>621.0</ele><time>2026-03-22T10:44:50.989Z</time></trkpt><trkpt lat="43.31273" lon="13.2119733"><ele>621.0</ele><time>2026-03-22T10:44:52.989Z</time></trkpt><trkpt lat="43.3126883" lon="13.2120617"><ele>621.0</ele><time>2026-03-22T10:44:54.989Z</time></trkpt><trkpt lat="43.3126317" lon="13.2121383"><ele>621.0</ele><time>2026-03-22T10:44:56.99Z</time></trkpt><trkpt lat="43.3125767" lon="13.2121933"><ele>621.0</ele><time>2026-03-22T10:44:59.989Z</time></trkpt><trkpt lat="43.31258" lon="13.2120867"><ele>621.0</ele><time>2026-03-22T10:49:37.99Z</time></trkpt><trkpt lat="43.3125933" lon="13.2119833"><ele>621.0</ele><time>2026-03-22T10:49:38.99Z</time></trkpt><trkpt lat="43.3126083" lon="13.2118533"><ele>621.0</ele><time>2026-03-22T10:49:39.99Z</time></trkpt><trkpt lat="43.3126133" lon="13.2116983"><ele>621.0</ele><time>2026-03-22T10:49:40.991Z</time></trkpt><trkpt lat="43.312605" lon="13.211545"><ele>621.0</ele><time>2026-03-22T10:49:41.991Z</time></trkpt><trkpt lat="43.3125933" lon="13.2113983"><ele>621.0</ele><time>2026-03-22T10:49:42.991Z</time></trkpt><trkpt lat="43.3125917" lon="13.2112583"><ele>621.0</ele><time>2026-03-22T10:49:43.99Z</time></trkpt><trkpt lat="43.3125917" lon="13.2111267"><ele>620.8333333333334</ele><time>2026-03-22T10:49:44.99Z</time></trkpt><trkpt lat="43.3125933" lon="13.210995"><ele>620.6666666666666</ele><time>2026-03-22T10:49:45.991Z</time></trkpt><trkpt lat="43.3126017" lon="13.210865"><ele>620.5</ele><time>2026-03-22T10:49:46.99Z</time></trkpt><trkpt lat="43.3126117" lon="13.210745"><ele>620.3333333333333</ele><time>2026-03-22T10:49:47.99Z</time></trkpt><trkpt lat="43.3126167" lon="13.2106333"><ele>620.1666666666666</ele><time>2026-03-22T10:49:48.99Z</time></trkpt><trkpt lat="43.3126033" lon="13.210525"><ele>620.0</ele><time>2026-03-22T10:49:49.99Z</time></trkpt><trkpt lat="43.3125767" lon="13.2104067"><ele>620.0</ele><time>2026-03-22T10:49:50.991Z</time></trkpt><trkpt lat="43.3125533" lon="13.2102917"><ele>620.0</ele><time>2026-03-22T10:49:51.99Z</time></trkpt><trkpt lat="43.3125383" lon="13.2101767"><ele>620.0</ele><time>2026-03-22T10:49:52.99Z</time></trkpt><trkpt lat="43.3125517" lon="13.2100733"><ele>620.0</ele><time>2026-03-22T10:49:53.99Z</time></trkpt><trkpt lat="43.31257" lon="13.2099617"><ele>620.0</ele><time>2026-03-22T10:49:54.991Z</time></trkpt><trkpt lat="43.3126" lon="13.2098417"><ele>620.0</ele><time>2026-03-22T10:49:55.99Z</time></trkpt><trkpt lat="43.3126283" lon="13.2097233"><ele>619.2</ele><time>2026-03-22T10:49:56.99Z</time></trkpt><trkpt lat="43.3126483" lon="13.209615"><ele>618.4</ele><time>2026-03-22T10:49:57.99Z</time></trkpt><trkpt lat="43.3126517" lon="13.2095267"><ele>617.6</ele><time>2026-03-22T10:49:58.99Z</time></trkpt><trkpt lat="43.3127" lon="13.209385"><ele>616.8</ele><time>2026-03-22T10:50:00.99Z</time></trkpt><trkpt lat="43.3128083" lon="13.20928"><ele>616.0</ele><time>2026-03-22T10:50:02.99Z</time></trkpt><trkpt lat="43.31287" lon="13.2092617"><ele>616.0</ele><time>2026-03-22T10:50:03.99Z</time></trkpt><trkpt lat="43.3129483" lon="13.2092433"><ele>616.0</ele><time>2026-03-22T10:50:04.99Z</time></trkpt><trkpt lat="43.313035" lon="13.2092333"><ele>616.0</ele><time>2026-03-22T10:50:05.99Z</time></trkpt><trkpt lat="43.313125" lon="13.209215"><ele>616.0</ele><time>2026-03-22T10:50:06.99Z</time></trkpt><trkpt lat="43.3132067" lon="13.2092017"><ele>616.0</ele><time>2026-03-22T10:50:07.991Z</time></trkpt><trkpt lat="43.3132733" lon="13.2091933"><ele>616.0</ele><time>2026-03-22T10:50:08.991Z</time></trkpt><trkpt lat="43.3133417" lon="13.2091933"><ele>614.8333333333334</ele><time>2026-03-22T10:50:09.991Z</time></trkpt><trkpt lat="43.313415" lon="13.2091917"><ele>613.6666666666667</ele><time>2026-03-22T10:50:10.991Z</time></trkpt><trkpt lat="43.3134833" lon="13.2091883"><ele>612.5</ele><time>2026-03-22T10:50:11.99Z</time></trkpt><trkpt lat="43.3135517" lon="13.209185"><ele>611.3333333333334</ele><time>2026-03-22T10:50:12.99Z</time></trkpt><trkpt lat="43.3136233" lon="13.2091817"><ele>610.1666666666666</ele><time>2026-03-22T10:50:13.99Z</time></trkpt><trkpt lat="43.31371" lon="13.20919"><ele>609.0</ele><time>2026-03-22T10:50:14.99Z</time></trkpt><trkpt lat="43.3138033" lon="13.2091933"><ele>609.0</ele><time>2026-03-22T10:50:15.99Z</time></trkpt><trkpt lat="43.3138967" lon="13.2091983"><ele>609.0</ele><time>2026-03-22T10:50:16.99Z</time></trkpt><trkpt lat="43.3139983" lon="13.2092117"><ele>609.0</ele><time>2026-03-22T10:50:17.99Z</time></trkpt><trkpt lat="43.314105" lon="13.2092317"><ele>609.0</ele><time>2026-03-22T10:50:18.99Z</time></trkpt><trkpt lat="43.3142217" lon="13.209245"><ele>609.0</ele><time>2026-03-22T10:50:19.991Z</time></trkpt><trkpt lat="43.314345" lon="13.209265"><ele>609.25</ele><time>2026-03-22T10:50:20.99Z</time></trkpt><trkpt lat="43.3144717" lon="13.2092767"><ele>609.5</ele><time>2026-03-22T10:50:21.99Z</time></trkpt><trkpt lat="43.3146033" lon="13.209285"><ele>609.75</ele><time>2026-03-22T10:50:22.991Z</time></trkpt><trkpt lat="43.3147433" lon="13.2092867"><ele>610.0</ele><time>2026-03-22T10:50:23.99Z</time></trkpt><trkpt lat="43.3148733" lon="13.2093033"><ele>611.75</ele><time>2026-03-22T10:50:24.99Z</time></trkpt><trkpt lat="43.3150083" lon="13.2093233"><ele>613.5</ele><time>2026-03-22T10:50:25.991Z</time></trkpt><trkpt lat="43.315145" lon="13.2093367"><ele>615.25</ele><time>2026-03-22T10:50:26.99Z</time></trkpt><trkpt lat="43.3152767" lon="13.2093533"><ele>617.0</ele><time>2026-03-22T10:50:27.991Z</time></trkpt><trkpt lat="43.31539" lon="13.2093733"><ele>617.0</ele><time>2026-03-22T10:50:28.991Z</time></trkpt><trkpt lat="43.3155067" lon="13.2094067"><ele>617.0</ele><time>2026-03-22T10:50:29.99Z</time></trkpt><trkpt lat="43.3156217" lon="13.2094367"><ele>617.0</ele><time>2026-03-22T10:50:30.991Z</time></trkpt><trkpt lat="43.3157367" lon="13.209465"><ele>617.0</ele><time>2026-03-22T10:50:31.99Z</time></trkpt><trkpt lat="43.31585" lon="13.2095067"><ele>616.6</ele><time>2026-03-22T10:50:32.99Z</time></trkpt><trkpt lat="43.31596" lon="13.2095333"><ele>616.2</ele><time>2026-03-22T10:50:33.99Z</time></trkpt><trkpt lat="43.31607" lon="13.209545"><ele>615.8</ele><time>2026-03-22T10:50:34.99Z</time></trkpt><trkpt lat="43.31617" lon="13.2095333"><ele>615.4</ele><time>2026-03-22T10:50:35.99Z</time></trkpt><trkpt lat="43.316255" lon="13.2095117"><ele>615.0</ele><time>2026-03-22T10:50:36.991Z</time></trkpt><trkpt lat="43.3163383" lon="13.2094683"><ele>614.0</ele><time>2026-03-22T10:50:37.99Z</time></trkpt><trkpt lat="43.3164083" lon="13.209415"><ele>613.0</ele><time>2026-03-22T10:50:38.991Z</time></trkpt><trkpt lat="43.3164783" lon="13.2093417"><ele>612.0</ele><time>2026-03-22T10:50:39.99Z</time></trkpt><trkpt lat="43.3165467" lon="13.2092667"><ele>611.0</ele><time>2026-03-22T10:50:40.99Z</time></trkpt><trkpt lat="43.3166133" lon="13.209205"><ele>610.0</ele><time>2026-03-22T10:50:41.99Z</time></trkpt><trkpt lat="43.3166817" lon="13.2091567"><ele>609.0</ele><time>2026-03-22T10:50:42.99Z</time></trkpt><trkpt lat="43.3167467" lon="13.2091133"><ele>609.0</ele><time>2026-03-22T10:50:43.991Z</time></trkpt><trkpt lat="43.3168617" lon="13.2090617"><ele>609.0</ele><time>2026-03-22T10:50:45.99Z</time></trkpt><trkpt lat="43.3169633" lon="13.2090767"><ele>609.0</ele><time>2026-03-22T10:50:47.991Z</time></trkpt><trkpt lat="43.3170267" lon="13.2091417"><ele>609.0</ele><time>2026-03-22T10:50:49.99Z</time></trkpt><trkpt lat="43.3170567" lon="13.2092417"><ele>609.0</ele><time>2026-03-22T10:50:52.99Z</time></trkpt><trkpt lat="43.3170783" lon="13.209335"><ele>609.0</ele><time>2026-03-22T10:50:55.99Z</time></trkpt><trkpt lat="43.3171117" lon="13.2094233"><ele>609.0</ele><time>2026-03-22T10:50:58.99Z</time></trkpt><trkpt lat="43.317155" lon="13.2095083"><ele>609.0</ele><time>2026-03-22T10:51:00.99Z</time></trkpt><trkpt lat="43.3172267" lon="13.2095983"><ele>609.0</ele><time>2026-03-22T10:51:02.99Z</time></trkpt><trkpt lat="43.3173017" lon="13.209665"><ele>609.0</ele><time>2026-03-22T10:51:04.991Z</time></trkpt><trkpt lat="43.3173583" lon="13.2097567"><ele>609.0</ele><time>2026-03-22T10:51:06.99Z</time></trkpt><trkpt lat="43.3174283" lon="13.2098567"><ele>606.0</ele><time>2026-03-22T10:51:08.99Z</time></trkpt><trkpt lat="43.3175317" lon="13.20997"><ele>603.0</ele><time>2026-03-22T10:51:10.99Z</time></trkpt><trkpt lat="43.3175883" lon="13.2100267"><ele>600.0</ele><time>2026-03-22T10:51:11.991Z</time></trkpt><trkpt lat="43.3176467" lon="13.21009"><ele>597.0</ele><time>2026-03-22T10:51:12.991Z</time></trkpt><trkpt lat="43.3176983" lon="13.2101483"><ele>594.0</ele><time>2026-03-22T10:51:13.99Z</time></trkpt><trkpt lat="43.3177533" lon="13.2102033"><ele>591.0</ele><time>2026-03-22T10:51:14.99Z</time></trkpt><trkpt lat="43.3178433" lon="13.2103017"><ele>591.0</ele><time>2026-03-22T10:51:16.99Z</time></trkpt><trkpt lat="43.3179533" lon="13.2103567"><ele>591.0</ele><time>2026-03-22T10:51:18.991Z</time></trkpt><trkpt lat="43.318015" lon="13.2103783"><ele>591.0</ele><time>2026-03-22T10:51:19.99Z</time></trkpt><trkpt lat="43.3180767" lon="13.2104067"><ele>591.0</ele><time>2026-03-22T10:51:20.991Z</time></trkpt><trkpt lat="43.3181383" lon="13.2104417"><ele>591.0</ele><time>2026-03-22T10:51:21.99Z</time></trkpt><trkpt lat="43.3182083" lon="13.21048"><ele>591.0</ele><time>2026-03-22T10:51:22.99Z</time></trkpt><trkpt lat="43.3182717" lon="13.2105217"><ele>591.4285714285714</ele><time>2026-03-22T10:51:23.991Z</time></trkpt><trkpt lat="43.318335" lon="13.21056"><ele>591.8571428571429</ele><time>2026-03-22T10:51:24.991Z</time></trkpt><trkpt lat="43.3184017" lon="13.2106"><ele>592.2857142857143</ele><time>2026-03-22T10:51:25.991Z</time></trkpt><trkpt lat="43.3184733" lon="13.2106333"><ele>592.7142857142858</ele><time>2026-03-22T10:51:26.99Z</time></trkpt><trkpt lat="43.3185367" lon="13.210665"><ele>593.1428571428572</ele><time>2026-03-22T10:51:27.99Z</time></trkpt><trkpt lat="43.3185983" lon="13.2107083"><ele>593.5714285714286</ele><time>2026-03-22T10:51:28.99Z</time></trkpt><trkpt lat="43.3186583" lon="13.2107517"><ele>594.0</ele><time>2026-03-22T10:51:29.991Z</time></trkpt><trkpt lat="43.31872" lon="13.21079"><ele>589.8333333333334</ele><time>2026-03-22T10:51:30.99Z</time></trkpt><trkpt lat="43.31878" lon="13.2108317"><ele>585.6666666666666</ele><time>2026-03-22T10:51:31.99Z</time></trkpt><trkpt lat="43.3188867" lon="13.21091"><ele>581.5</ele><time>2026-03-22T10:51:33.99Z</time></trkpt><trkpt lat="43.3189783" lon="13.2109783"><ele>577.3333333333333</ele><time>2026-03-22T10:51:35.991Z</time></trkpt><trkpt lat="43.319035" lon="13.21102"><ele>573.1666666666666</ele><time>2026-03-22T10:51:36.99Z</time></trkpt><trkpt lat="43.3190967" lon="13.2110633"><ele>569.0</ele><time>2026-03-22T10:51:37.99Z</time></trkpt><trkpt lat="43.3191583" lon="13.2111117"><ele>569.0</ele><time>2026-03-22T10:51:38.99Z</time></trkpt><trkpt lat="43.3192183" lon="13.2111483"><ele>569.0</ele><time>2026-03-22T10:51:39.99Z</time></trkpt><trkpt lat="43.3193217" lon="13.21121"><ele>569.0</ele><time>2026-03-22T10:51:41.99Z</time></trkpt><trkpt lat="43.31943" lon="13.2112583"><ele>569.0</ele><time>2026-03-22T10:51:43.991Z</time></trkpt><trkpt lat="43.3195483" lon="13.2113367"><ele>569.0</ele><time>2026-03-22T10:51:45.99Z</time></trkpt><trkpt lat="43.3196067" lon="13.2113783"><ele>569.0</ele><time>2026-03-22T10:51:46.99Z</time></trkpt><trkpt lat="43.3197067" lon="13.211455"><ele>569.0</ele><time>2026-03-22T10:51:48.99Z</time></trkpt><trkpt lat="43.3197917" lon="13.2115117"><ele>569.0</ele><time>2026-03-22T10:51:50.99Z</time></trkpt><trkpt lat="43.3198717" lon="13.2115733"><ele>569.0</ele><time>2026-03-22T10:51:52.99Z</time></trkpt><trkpt lat="43.3199567" lon="13.211645"><ele>569.0</ele><time>2026-03-22T10:51:54.99Z</time></trkpt><trkpt lat="43.3200367" lon="13.211725"><ele>562.4</ele><time>2026-03-22T10:51:56.99Z</time></trkpt><trkpt lat="43.3201233" lon="13.2118167"><ele>555.8</ele><time>2026-03-22T10:51:58.99Z</time></trkpt><trkpt lat="43.320215" lon="13.2119183"><ele>549.2</ele><time>2026-03-22T10:52:00.99Z</time></trkpt><trkpt lat="43.3202983" lon="13.212005"><ele>542.6</ele><time>2026-03-22T10:52:02.99Z</time></trkpt><trkpt lat="43.32038" lon="13.2120883"><ele>536.0</ele><time>2026-03-22T10:52:04.99Z</time></trkpt><trkpt lat="43.3204567" lon="13.2121633"><ele>536.0</ele><time>2026-03-22T10:52:06.991Z</time></trkpt><trkpt lat="43.320555" lon="13.212265"><ele>536.0</ele><time>2026-03-22T10:52:08.99Z</time></trkpt><trkpt lat="43.3206767" lon="13.212335"><ele>536.0</ele><time>2026-03-22T10:52:10.99Z</time></trkpt><trkpt lat="43.32077" lon="13.2124133"><ele>536.0</ele><time>2026-03-22T10:52:12.99Z</time></trkpt><trkpt lat="43.320815" lon="13.2124867"><ele>536.0</ele><time>2026-03-22T10:52:15.99Z</time></trkpt><trkpt lat="43.320885" lon="13.2124633"><ele>537.4</ele><time>2026-03-22T10:52:18.99Z</time></trkpt><trkpt lat="43.3209633" lon="13.2124017"><ele>538.8</ele><time>2026-03-22T10:52:21.99Z</time></trkpt><trkpt lat="43.321045" lon="13.2123667"><ele>540.1999999999999</ele><time>2026-03-22T10:52:23.991Z</time></trkpt><trkpt lat="43.32117" lon="13.2123183"><ele>541.6</ele><time>2026-03-22T10:52:25.991Z</time></trkpt><trkpt lat="43.32127" lon="13.2122417"><ele>543.0</ele><time>2026-03-22T10:52:27.99Z</time></trkpt><trkpt lat="43.3213217" lon="13.2121833"><ele>543.0</ele><time>2026-03-22T10:52:28.99Z</time></trkpt><trkpt lat="43.321385" lon="13.21213"><ele>543.0</ele><time>2026-03-22T10:52:29.99Z</time></trkpt><trkpt lat="43.3214433" lon="13.2120617"><ele>543.0</ele><time>2026-03-22T10:52:30.99Z</time></trkpt><trkpt lat="43.3215067" lon="13.2119983"><ele>543.0</ele><time>2026-03-22T10:52:31.99Z</time></trkpt><trkpt lat="43.3215667" lon="13.2119467"><ele>543.0</ele><time>2026-03-22T10:52:32.991Z</time></trkpt><trkpt lat="43.3216417" lon="13.211905"><ele>543.0</ele><time>2026-03-22T10:52:33.99Z</time></trkpt><trkpt lat="43.32172" lon="13.2118717"><ele>543.3333333333334</ele><time>2026-03-22T10:52:34.991Z</time></trkpt><trkpt lat="43.3218033" lon="13.2118283"><ele>543.6666666666666</ele><time>2026-03-22T10:52:35.99Z</time></trkpt><trkpt lat="43.3218867" lon="13.2117933"><ele>544.0</ele><time>2026-03-22T10:52:36.991Z</time></trkpt><trkpt lat="43.3219667" lon="13.21177"><ele>544.3333333333333</ele><time>2026-03-22T10:52:37.99Z</time></trkpt><trkpt lat="43.3220417" lon="13.2117467"><ele>544.6666666666666</ele><time>2026-03-22T10:52:38.99Z</time></trkpt><trkpt lat="43.3221033" lon="13.2117267"><ele>545.0</ele><time>2026-03-22T10:52:39.991Z</time></trkpt><trkpt lat="43.322165" lon="13.2117083"><ele>545.0</ele><time>2026-03-22T10:52:40.991Z</time></trkpt><trkpt lat="43.3222283" lon="13.2116917"><ele>545.0</ele><time>2026-03-22T10:52:41.991Z</time></trkpt><trkpt lat="43.3223067" lon="13.21167"><ele>545.0</ele><time>2026-03-22T10:52:42.99Z</time></trkpt><trkpt lat="43.3224" lon="13.21164"><ele>545.0</ele><time>2026-03-22T10:52:43.99Z</time></trkpt><trkpt lat="43.3224917" lon="13.2116217"><ele>545.0</ele><time>2026-03-22T10:52:44.99Z</time></trkpt><trkpt lat="43.3225867" lon="13.2115983"><ele>545.0</ele><time>2026-03-22T10:52:45.99Z</time></trkpt><trkpt lat="43.3226717" lon="13.2115767"><ele>545.6666666666666</ele><time>2026-03-22T10:52:46.99Z</time></trkpt><trkpt lat="43.3227467" lon="13.2115483"><ele>546.3333333333333</ele><time>2026-03-22T10:52:47.99Z</time></trkpt><trkpt lat="43.322815" lon="13.2115067"><ele>547.0</ele><time>2026-03-22T10:52:48.99Z</time></trkpt><trkpt lat="43.3228833" lon="13.211455"><ele>547.6666666666666</ele><time>2026-03-22T10:52:49.99Z</time></trkpt><trkpt lat="43.3229367" lon="13.2113967"><ele>548.3333333333334</ele><time>2026-03-22T10:52:50.991Z</time></trkpt><trkpt lat="43.3230067" lon="13.21127"><ele>549.0</ele><time>2026-03-22T10:52:52.99Z</time></trkpt><trkpt lat="43.3230433" lon="13.2111483"><ele>555.2</ele><time>2026-03-22T10:52:54.99Z</time></trkpt><trkpt lat="43.3230533" lon="13.211025"><ele>561.4</ele><time>2026-03-22T10:52:56.99Z</time></trkpt><trkpt lat="43.3230517" lon="13.2108467"><ele>567.6</ele><time>2026-03-22T10:52:58.991Z</time></trkpt><trkpt lat="43.3230467" lon="13.2107533"><ele>573.8</ele><time>2026-03-22T10:52:59.99Z</time></trkpt><trkpt lat="43.32304" lon="13.2106483"><ele>580.0</ele><time>2026-03-22T10:53:00.991Z</time></trkpt><trkpt lat="43.32303" lon="13.2105167"><ele>583.8</ele><time>2026-03-22T10:53:01.991Z</time></trkpt><trkpt lat="43.32302" lon="13.21039"><ele>587.6</ele><time>2026-03-22T10:53:02.99Z</time></trkpt><trkpt lat="43.3229983" lon="13.210255"><ele>591.4</ele><time>2026-03-22T10:53:03.991Z</time></trkpt><trkpt lat="43.3229683" lon="13.21012"><ele>595.2</ele><time>2026-03-22T10:53:04.991Z</time></trkpt><trkpt lat="43.3229283" lon="13.2099933"><ele>599.0</ele><time>2026-03-22T10:53:05.991Z</time></trkpt><trkpt lat="43.322905" lon="13.2098567"><ele>598.2</ele><time>2026-03-22T10:53:06.99Z</time></trkpt><trkpt lat="43.3228567" lon="13.2097417"><ele>597.4</ele><time>2026-03-22T10:53:07.991Z</time></trkpt><trkpt lat="43.3228033" lon="13.2096417"><ele>596.6</ele><time>2026-03-22T10:53:08.991Z</time></trkpt><trkpt lat="43.3227567" lon="13.2095383"><ele>595.8</ele><time>2026-03-22T10:53:09.99Z</time></trkpt><trkpt lat="43.3227017" lon="13.2094317"><ele>595.0</ele><time>2026-03-22T10:53:10.99Z</time></trkpt><trkpt lat="43.3226383" lon="13.2093317"><ele>595.0</ele><time>2026-03-22T10:53:11.99Z</time></trkpt><trkpt lat="43.3225733" lon="13.2092133"><ele>595.0</ele><time>2026-03-22T10:53:12.99Z</time></trkpt><trkpt lat="43.3225117" lon="13.2090867"><ele>595.0</ele><time>2026-03-22T10:53:13.99Z</time></trkpt><trkpt lat="43.322455" lon="13.2089333"><ele>595.0</ele><time>2026-03-22T10:53:14.99Z</time></trkpt><trkpt lat="43.3224033" lon="13.2087617"><ele>595.25</ele><time>2026-03-22T10:53:15.991Z</time></trkpt><trkpt lat="43.3223567" lon="13.2086133"><ele>595.5</ele><time>2026-03-22T10:53:16.99Z</time></trkpt><trkpt lat="43.3223167" lon="13.208465"><ele>595.75</ele><time>2026-03-22T10:53:17.99Z</time></trkpt><trkpt lat="43.3222883" lon="13.208315"><ele>596.0</ele><time>2026-03-22T10:53:18.99Z</time></trkpt><trkpt lat="43.3222617" lon="13.20815"><ele>597.8</ele><time>2026-03-22T10:53:19.99Z</time></trkpt><trkpt lat="43.3222217" lon="13.20799"><ele>599.6</ele><time>2026-03-22T10:53:20.99Z</time></trkpt><trkpt lat="43.3222017" lon="13.2078417"><ele>601.4</ele><time>2026-03-22T10:53:21.99Z</time></trkpt><trkpt lat="43.32218" lon="13.207685"><ele>603.2</ele><time>2026-03-22T10:53:22.991Z</time></trkpt><trkpt lat="43.32218" lon="13.2075533"><ele>605.0</ele><time>2026-03-22T10:53:23.99Z</time></trkpt><trkpt lat="43.3221917" lon="13.2074267"><ele>604.8333333333333</ele><time>2026-03-22T10:53:24.99Z</time></trkpt><trkpt lat="43.322215" lon="13.207285"><ele>604.6666666666666</ele><time>2026-03-22T10:53:26.99Z</time></trkpt><trkpt lat="43.3222633" lon="13.2072"><ele>604.5</ele><time>2026-03-22T10:53:28.99Z</time></trkpt><trkpt lat="43.322305" lon="13.20711"><ele>604.3333333333334</ele><time>2026-03-22T10:53:30.99Z</time></trkpt><trkpt lat="43.3223606" lon="13.2070135"><ele>604.1666666666667</ele><time>2026-03-22T10:53:33.991Z</time></trkpt><trkpt lat="43.3224131" lon="13.206961"><ele>604.0</ele><time>2026-03-22T10:53:35.99Z</time></trkpt><trkpt lat="43.3224941" lon="13.2068807"><ele>604.0</ele><time>2026-03-22T10:53:37.99Z</time></trkpt><trkpt lat="43.3225856" lon="13.2067853"><ele>604.0</ele><time>2026-03-22T10:53:39.991Z</time></trkpt><trkpt lat="43.3226745" lon="13.2067174"><ele>604.0</ele><time>2026-03-22T10:53:41.99Z</time></trkpt><trkpt lat="43.3227611" lon="13.2066599"><ele>604.0</ele><time>2026-03-22T10:53:43.99Z</time></trkpt><trkpt lat="43.3228453" lon="13.2066182"><ele>604.0</ele><time>2026-03-22T10:53:45.99Z</time></trkpt><trkpt lat="43.322925" lon="13.2065721"><ele>604.0</ele><time>2026-03-22T10:53:47.991Z</time></trkpt><trkpt lat="43.3230258" lon="13.2065245"><ele>604.0</ele><time>2026-03-22T10:53:49.991Z</time></trkpt><trkpt lat="43.3231253" lon="13.2064495"><ele>604.0</ele><time>2026-03-22T10:53:51.99Z</time></trkpt><trkpt lat="43.3232362" lon="13.2063652"><ele>604.0</ele><time>2026-03-22T10:53:53.99Z</time></trkpt><trkpt lat="43.3232995" lon="13.2063189"><ele>604.0</ele><time>2026-03-22T10:53:54.99Z</time></trkpt><trkpt lat="43.3233642" lon="13.2062679"><ele>604.6666666666667</ele><time>2026-03-22T10:53:55.99Z</time></trkpt><trkpt lat="43.3234308" lon="13.2062169"><ele>605.3333333333334</ele><time>2026-03-22T10:53:56.99Z</time></trkpt><trkpt lat="43.3235019" lon="13.2061768"><ele>606.0</ele><time>2026-03-22T10:53:57.99Z</time></trkpt><trkpt lat="43.3235872" lon="13.2061466"><ele>606.6666666666666</ele><time>2026-03-22T10:53:58.99Z</time></trkpt><trkpt lat="43.3236794" lon="13.2061268"><ele>607.3333333333333</ele><time>2026-03-22T10:53:59.99Z</time></trkpt><trkpt lat="43.3237785" lon="13.2061164"><ele>608.0</ele><time>2026-03-22T10:54:00.991Z</time></trkpt><trkpt lat="43.3238727" lon="13.2061283"><ele>607.6666666666666</ele><time>2026-03-22T10:54:01.991Z</time></trkpt><trkpt lat="43.3239577" lon="13.2061533"><ele>607.3333333333333</ele><time>2026-03-22T10:54:02.99Z</time></trkpt><trkpt lat="43.3240373" lon="13.2061693"><ele>607.0</ele><time>2026-03-22T10:54:03.99Z</time></trkpt><trkpt lat="43.324121" lon="13.2061717"><ele>606.6666666666666</ele><time>2026-03-22T10:54:04.99Z</time></trkpt><trkpt lat="43.3242103" lon="13.2061663"><ele>606.3333333333334</ele><time>2026-03-22T10:54:05.991Z</time></trkpt><trkpt lat="43.3243103" lon="13.2061483"><ele>606.0</ele><time>2026-03-22T10:54:06.99Z</time></trkpt><trkpt lat="43.324407" lon="13.2061285"><ele>606.0</ele><time>2026-03-22T10:54:07.99Z</time></trkpt><trkpt lat="43.3244954" lon="13.206104"><ele>606.0</ele><time>2026-03-22T10:54:08.99Z</time></trkpt><trkpt lat="43.3245736" lon="13.2060742"><ele>606.0</ele><time>2026-03-22T10:54:09.99Z</time></trkpt><trkpt lat="43.3246481" lon="13.2060433"><ele>606.0</ele><time>2026-03-22T10:54:10.99Z</time></trkpt><trkpt lat="43.3247282" lon="13.206017"><ele>606.0</ele><time>2026-03-22T10:54:11.99Z</time></trkpt><trkpt lat="43.3247997" lon="13.2060081"><ele>606.0</ele><time>2026-03-22T10:54:12.99Z</time></trkpt><trkpt lat="43.3248662" lon="13.2060372"><ele>606.0</ele><time>2026-03-22T10:54:13.99Z</time></trkpt><trkpt lat="43.3249293" lon="13.206098"><ele>606.0</ele><time>2026-03-22T10:54:14.991Z</time></trkpt><trkpt lat="43.3249841" lon="13.2061706"><ele>606.0</ele><time>2026-03-22T10:54:15.99Z</time></trkpt><trkpt lat="43.325033" lon="13.2062567"><ele>606.0</ele><time>2026-03-22T10:54:16.991Z</time></trkpt><trkpt lat="43.325078" lon="13.2063562"><ele>606.0</ele><time>2026-03-22T10:54:17.991Z</time></trkpt><trkpt lat="43.325116" lon="13.2064572"><ele>606.0</ele><time>2026-03-22T10:54:18.99Z</time></trkpt><trkpt lat="43.3251541" lon="13.2065529"><ele>605.0</ele><time>2026-03-22T10:54:19.99Z</time></trkpt><trkpt lat="43.3251968" lon="13.2066456"><ele>604.0</ele><time>2026-03-22T10:54:20.99Z</time></trkpt><trkpt lat="43.3252469" lon="13.2067316"><ele>603.0</ele><time>2026-03-22T10:54:21.99Z</time></trkpt><trkpt lat="43.3253017" lon="13.2068126"><ele>602.0</ele><time>2026-03-22T10:54:22.99Z</time></trkpt><trkpt lat="43.325353" lon="13.2068813"><ele>601.0</ele><time>2026-03-22T10:54:23.99Z</time></trkpt><trkpt lat="43.3254217" lon="13.2069954"><ele>600.0</ele><time>2026-03-22T10:54:25.99Z</time></trkpt><trkpt lat="43.3254333" lon="13.2070903"><ele>600.0</ele><time>2026-03-22T10:54:27.99Z</time></trkpt><trkpt lat="43.325422" lon="13.207211"><ele>600.0</ele><time>2026-03-22T10:54:29.991Z</time></trkpt><trkpt lat="43.3254456" lon="13.2072996"><ele>600.0</ele><time>2026-03-22T10:54:31.991Z</time></trkpt><trkpt lat="43.3254962" lon="13.2073919"><ele>600.0</ele><time>2026-03-22T10:54:33.99Z</time></trkpt><trkpt lat="43.3255401" lon="13.2074978"><ele>600.0</ele><time>2026-03-22T10:54:35.99Z</time></trkpt><trkpt lat="43.3255839" lon="13.207618"><ele>600.0</ele><time>2026-03-22T10:54:37.991Z</time></trkpt><trkpt lat="43.3256352" lon="13.2077445"><ele>596.8</ele><time>2026-03-22T10:54:39.99Z</time></trkpt><trkpt lat="43.325688" lon="13.2078621"><ele>593.6</ele><time>2026-03-22T10:54:41.99Z</time></trkpt><trkpt lat="43.3257534" lon="13.2079618"><ele>590.4</ele><time>2026-03-22T10:54:43.99Z</time></trkpt><trkpt lat="43.3258011" lon="13.2080762"><ele>587.2</ele><time>2026-03-22T10:54:45.991Z</time></trkpt><trkpt lat="43.3258215" lon="13.2082118"><ele>584.0</ele><time>2026-03-22T10:54:47.99Z</time></trkpt><trkpt lat="43.3258559" lon="13.2083374"><ele>580.3333333333333</ele><time>2026-03-22T10:54:49.99Z</time></trkpt><trkpt lat="43.3259124" lon="13.208404"><ele>576.6666666666666</ele><time>2026-03-22T10:54:52.99Z</time></trkpt><trkpt lat="43.3259918" lon="13.2083493"><ele>573.0</ele><time>2026-03-22T10:54:55.99Z</time></trkpt><trkpt lat="43.3260707" lon="13.2083704"><ele>569.3333333333334</ele><time>2026-03-22T10:54:58.99Z</time></trkpt><trkpt lat="43.326158" lon="13.2084781"><ele>565.6666666666667</ele><time>2026-03-22T10:55:00.99Z</time></trkpt><trkpt lat="43.3262161" lon="13.2085398"><ele>562.0</ele><time>2026-03-22T10:55:01.99Z</time></trkpt><trkpt lat="43.3262775" lon="13.2086003"><ele>562.0</ele><time>2026-03-22T10:55:02.99Z</time></trkpt><trkpt lat="43.3263404" lon="13.2086538"><ele>562.0</ele><time>2026-03-22T10:55:03.99Z</time></trkpt><trkpt lat="43.326398" lon="13.208694"><ele>562.0</ele><time>2026-03-22T10:55:04.991Z</time></trkpt><trkpt lat="43.3264591" lon="13.2087277"><ele>562.0</ele><time>2026-03-22T10:55:05.99Z</time></trkpt><trkpt lat="43.3265279" lon="13.2087708"><ele>562.0</ele><time>2026-03-22T10:55:06.99Z</time></trkpt><trkpt lat="43.3266116" lon="13.2088135"><ele>562.0</ele><time>2026-03-22T10:55:07.99Z</time></trkpt><trkpt lat="43.3267068" lon="13.2088538"><ele>562.2</ele><time>2026-03-22T10:55:08.99Z</time></trkpt><trkpt lat="43.3268019" lon="13.2088819"><ele>562.4000000000001</ele><time>2026-03-22T10:55:09.99Z</time></trkpt><trkpt lat="43.3268872" lon="13.2089025"><ele>562.5999999999999</ele><time>2026-03-22T10:55:10.99Z</time></trkpt><trkpt lat="43.3269577" lon="13.2088972"><ele>562.8</ele><time>2026-03-22T10:55:11.991Z</time></trkpt><trkpt lat="43.3270475" lon="13.2088345"><ele>563.0</ele><time>2026-03-22T10:55:13.99Z</time></trkpt><trkpt lat="43.3271283" lon="13.2087233"><ele>563.0</ele><time>2026-03-22T10:55:15.99Z</time></trkpt><trkpt lat="43.3271867" lon="13.208665"><ele>563.0</ele><time>2026-03-22T10:55:16.99Z</time></trkpt><trkpt lat="43.3272533" lon="13.2086017"><ele>563.0</ele><time>2026-03-22T10:55:17.99Z</time></trkpt><trkpt lat="43.32731" lon="13.20855"><ele>563.0</ele><time>2026-03-22T10:55:18.99Z</time></trkpt><trkpt lat="43.327385" lon="13.2084933"><ele>563.0</ele><time>2026-03-22T10:55:20.991Z</time></trkpt><trkpt lat="43.32745" lon="13.2084717"><ele>563.0</ele><time>2026-03-22T10:55:30.99Z</time></trkpt><trkpt lat="43.32751" lon="13.2084083"><ele>563.0</ele><time>2026-03-22T10:55:33.99Z</time></trkpt><trkpt lat="43.3275433" lon="13.2083033"><ele>563.5714285714286</ele><time>2026-03-22T10:55:36.99Z</time></trkpt><trkpt lat="43.3275617" lon="13.2082133"><ele>564.1428571428571</ele><time>2026-03-22T10:55:38.99Z</time></trkpt><trkpt lat="43.3275817" lon="13.20811"><ele>564.7142857142858</ele><time>2026-03-22T10:55:40.991Z</time></trkpt><trkpt lat="43.3276083" lon="13.208025"><ele>565.2857142857142</ele><time>2026-03-22T10:55:42.991Z</time></trkpt><trkpt lat="43.3276367" lon="13.2079467"><ele>565.8571428571429</ele><time>2026-03-22T10:55:44.99Z</time></trkpt><trkpt lat="43.32767" lon="13.2078567"><ele>566.4285714285714</ele><time>2026-03-22T10:55:46.991Z</time></trkpt><trkpt lat="43.3277317" lon="13.2077683"><ele>567.0</ele><time>2026-03-22T10:55:49.99Z</time></trkpt><trkpt lat="43.32777" lon="13.2076667"><ele>567.0</ele><time>2026-03-22T10:55:51.991Z</time></trkpt><trkpt lat="43.3278017" lon="13.2075667"><ele>567.0</ele><time>2026-03-22T10:55:53.99Z</time></trkpt><trkpt lat="43.3278467" lon="13.2074833"><ele>567.0</ele><time>2026-03-22T10:55:55.99Z</time></trkpt><trkpt lat="43.3278933" lon="13.2073867"><ele>567.0</ele><time>2026-03-22T10:55:57.99Z</time></trkpt><trkpt lat="43.3279317" lon="13.2073083"><ele>567.0</ele><time>2026-03-22T10:56:00.99Z</time></trkpt><trkpt lat="43.328005" lon="13.2073017"><ele>567.0</ele><time>2026-03-22T10:56:19.99Z</time></trkpt><trkpt lat="43.3279867" lon="13.2071917"><ele>567.4</ele><time>2026-03-22T10:56:21.991Z</time></trkpt><trkpt lat="43.3279717" lon="13.207"><ele>567.8000000000001</ele><time>2026-03-22T10:56:23.991Z</time></trkpt><trkpt lat="43.32799" lon="13.2068583"><ele>568.2</ele><time>2026-03-22T10:56:24.99Z</time></trkpt><trkpt lat="43.327995" lon="13.206755"><ele>568.6</ele><time>2026-03-22T10:56:25.99Z</time></trkpt><trkpt lat="43.3280017" lon="13.2066617"><ele>569.0</ele><time>2026-03-22T10:56:26.99Z</time></trkpt><trkpt lat="43.3280083" lon="13.206565"><ele>568.6666666666666</ele><time>2026-03-22T10:56:27.99Z</time></trkpt><trkpt lat="43.328015" lon="13.2064683"><ele>568.3333333333333</ele><time>2026-03-22T10:56:28.99Z</time></trkpt><trkpt lat="43.3280267" lon="13.206365"><ele>568.0</ele><time>2026-03-22T10:56:29.99Z</time></trkpt><trkpt lat="43.3280467" lon="13.2062667"><ele>567.6666666666666</ele><time>2026-03-22T10:56:30.99Z</time></trkpt><trkpt lat="43.3281" lon="13.20612"><ele>567.3333333333334</ele><time>2026-03-22T10:56:32.991Z</time></trkpt><trkpt lat="43.328155" lon="13.2060283"><ele>567.0</ele><time>2026-03-22T10:56:34.99Z</time></trkpt><trkpt lat="43.3281883" lon="13.205915"><ele>559.1666666666666</ele><time>2026-03-22T10:56:36.99Z</time></trkpt><trkpt lat="43.3281967" lon="13.2058233"><ele>551.3333333333334</ele><time>2026-03-22T10:56:37.99Z</time></trkpt><trkpt lat="43.3282117" lon="13.2057033"><ele>543.5</ele><time>2026-03-22T10:56:38.99Z</time></trkpt><trkpt lat="43.3282367" lon="13.20558"><ele>535.6666666666667</ele><time>2026-03-22T10:56:39.99Z</time></trkpt><trkpt lat="43.3282617" lon="13.2054583"><ele>527.8333333333334</ele><time>2026-03-22T10:56:40.99Z</time></trkpt><trkpt lat="43.3282733" lon="13.2053317"><ele>520.0</ele><time>2026-03-22T10:56:41.99Z</time></trkpt><trkpt lat="43.32828" lon="13.2051983"><ele>520.0</ele><time>2026-03-22T10:56:42.99Z</time></trkpt><trkpt lat="43.3282917" lon="13.2050567"><ele>520.0</ele><time>2026-03-22T10:56:43.99Z</time></trkpt><trkpt lat="43.3282983" lon="13.2049083"><ele>520.0</ele><time>2026-03-22T10:56:44.991Z</time></trkpt><trkpt lat="43.3282833" lon="13.2047417"><ele>520.0</ele><time>2026-03-22T10:56:45.99Z</time></trkpt><trkpt lat="43.3282533" lon="13.2045717"><ele>518.6</ele><time>2026-03-22T10:56:46.99Z</time></trkpt><trkpt lat="43.3282317" lon="13.2044067"><ele>517.2</ele><time>2026-03-22T10:56:47.99Z</time></trkpt><trkpt lat="43.32821" lon="13.20425"><ele>515.8</ele><time>2026-03-22T10:56:48.99Z</time></trkpt><trkpt lat="43.3281917" lon="13.2041117"><ele>514.4</ele><time>2026-03-22T10:56:49.991Z</time></trkpt><trkpt lat="43.3281667" lon="13.2039867"><ele>513.0</ele><time>2026-03-22T10:56:50.99Z</time></trkpt><trkpt lat="43.3281567" lon="13.203875"><ele>510.8333333333333</ele><time>2026-03-22T10:56:51.991Z</time></trkpt><trkpt lat="43.328135" lon="13.2037833"><ele>508.66666666666663</ele><time>2026-03-22T10:56:52.99Z</time></trkpt><trkpt lat="43.328115" lon="13.2036833"><ele>506.5</ele><time>2026-03-22T10:56:54.99Z</time></trkpt><trkpt lat="43.3281167" lon="13.2035833"><ele>504.3333333333333</ele><time>2026-03-22T10:56:56.991Z</time></trkpt><trkpt lat="43.32813" lon="13.2034617"><ele>502.16666666666663</ele><time>2026-03-22T10:56:58.99Z</time></trkpt><trkpt lat="43.3281167" lon="13.2033433"><ele>500.0</ele><time>2026-03-22T10:57:00.99Z</time></trkpt><trkpt lat="43.3280933" lon="13.2032317"><ele>497.16666666666663</ele><time>2026-03-22T10:57:02.99Z</time></trkpt><trkpt lat="43.328065" lon="13.203135"><ele>494.3333333333333</ele><time>2026-03-22T10:57:04.99Z</time></trkpt><trkpt lat="43.3280267" lon="13.20302"><ele>491.5</ele><time>2026-03-22T10:57:06.99Z</time></trkpt><trkpt lat="43.328" lon="13.202935"><ele>488.66666666666663</ele><time>2026-03-22T10:57:08.99Z</time></trkpt><trkpt lat="43.3279833" lon="13.202815"><ele>485.8333333333333</ele><time>2026-03-22T10:57:14.99Z</time></trkpt><trkpt lat="43.3280467" lon="13.2028783"><ele>483.0</ele><time>2026-03-22T10:57:22.99Z</time></trkpt><trkpt lat="43.3281017" lon="13.2029617"><ele>483.0</ele><time>2026-03-22T10:57:24.991Z</time></trkpt><trkpt lat="43.3281283" lon="13.2030433"><ele>483.0</ele><time>2026-03-22T10:57:26.99Z</time></trkpt><trkpt lat="43.3281383" lon="13.203145"><ele>483.0</ele><time>2026-03-22T10:57:29.99Z</time></trkpt><trkpt lat="43.3282033" lon="13.2032483"><ele>483.0</ele><time>2026-03-22T10:57:32.99Z</time></trkpt><trkpt lat="43.3282517" lon="13.2033317"><ele>483.0</ele><time>2026-03-22T10:57:34.99Z</time></trkpt><trkpt lat="43.3282833" lon="13.2034083"><ele>483.0</ele><time>2026-03-22T10:57:35.99Z</time></trkpt><trkpt lat="43.32832" lon="13.20349"><ele>485.8333333333333</ele><time>2026-03-22T10:57:36.99Z</time></trkpt><trkpt lat="43.3283583" lon="13.2035817"><ele>488.66666666666663</ele><time>2026-03-22T10:57:37.99Z</time></trkpt><trkpt lat="43.3284117" lon="13.2036883"><ele>491.5</ele><time>2026-03-22T10:57:38.991Z</time></trkpt><trkpt lat="43.3284567" lon="13.2037833"><ele>494.3333333333333</ele><time>2026-03-22T10:57:39.991Z</time></trkpt><trkpt lat="43.3284983" lon="13.203885"><ele>497.16666666666663</ele><time>2026-03-22T10:57:40.99Z</time></trkpt><trkpt lat="43.32853" lon="13.20399"><ele>500.0</ele><time>2026-03-22T10:57:41.99Z</time></trkpt><trkpt lat="43.3285567" lon="13.204105"><ele>502.6</ele><time>2026-03-22T10:57:42.99Z</time></trkpt><trkpt lat="43.328585" lon="13.2042383"><ele>505.2</ele><time>2026-03-22T10:57:43.99Z</time></trkpt><trkpt lat="43.3286083" lon="13.2043583"><ele>507.79999999999995</ele><time>2026-03-22T10:57:44.991Z</time></trkpt><trkpt lat="43.3286217" lon="13.2044617"><ele>510.4</ele><time>2026-03-22T10:57:45.99Z</time></trkpt><trkpt lat="43.32865" lon="13.2045617"><ele>513.0</ele><time>2026-03-22T10:57:46.99Z</time></trkpt><trkpt lat="43.328675" lon="13.204715"><ele>513.0</ele><time>2026-03-22T10:57:48.99Z</time></trkpt><trkpt lat="43.3286983" lon="13.204825"><ele>513.0</ele><time>2026-03-22T10:57:50.99Z</time></trkpt><trkpt lat="43.3287883" lon="13.2048833"><ele>513.0</ele><time>2026-03-22T10:57:53.99Z</time></trkpt><trkpt lat="43.3289167" lon="13.20496"><ele>513.0</ele><time>2026-03-22T10:57:55.99Z</time></trkpt><trkpt lat="43.3290017" lon="13.2050233"><ele>513.0</ele><time>2026-03-22T10:57:56.99Z</time></trkpt><trkpt lat="43.3290667" lon="13.2050867"><ele>507.8333333333333</ele><time>2026-03-22T10:57:57.991Z</time></trkpt><trkpt lat="43.3291383" lon="13.2051433"><ele>502.66666666666663</ele><time>2026-03-22T10:57:58.99Z</time></trkpt><trkpt lat="43.3292" lon="13.2052117"><ele>497.5</ele><time>2026-03-22T10:57:59.99Z</time></trkpt><trkpt lat="43.3292533" lon="13.2052717"><ele>492.3333333333333</ele><time>2026-03-22T10:58:00.99Z</time></trkpt><trkpt lat="43.3293283" lon="13.2052967"><ele>487.16666666666663</ele><time>2026-03-22T10:58:02.99Z</time></trkpt><trkpt lat="43.3293783" lon="13.2052033"><ele>482.0</ele><time>2026-03-22T10:58:05.99Z</time></trkpt><trkpt lat="43.3293917" lon="13.2050983"><ele>482.0</ele><time>2026-03-22T10:58:15.991Z</time></trkpt><trkpt lat="43.3293983" lon="13.2049517"><ele>482.00000000000006</ele><time>2026-03-22T10:58:17.991Z</time></trkpt><trkpt lat="43.3294233" lon="13.2048367"><ele>482.00000000000006</ele><time>2026-03-22T10:58:19.991Z</time></trkpt><trkpt lat="43.3294767" lon="13.204735"><ele>482.0</ele><time>2026-03-22T10:58:21.99Z</time></trkpt><trkpt lat="43.3294783" lon="13.2045867"><ele>482.0</ele><time>2026-03-22T10:58:23.99Z</time></trkpt><trkpt lat="43.3294517" lon="13.204495"><ele>480.40000000000003</ele><time>2026-03-22T10:58:24.99Z</time></trkpt><trkpt lat="43.3294083" lon="13.2043733"><ele>478.80000000000007</ele><time>2026-03-22T10:58:25.99Z</time></trkpt><trkpt lat="43.3293617" lon="13.204225"><ele>477.2</ele><time>2026-03-22T10:58:26.991Z</time></trkpt><trkpt lat="43.3293133" lon="13.2040867"><ele>475.6</ele><time>2026-03-22T10:58:27.991Z</time></trkpt><trkpt lat="43.3292667" lon="13.203975"><ele>474.0</ele><time>2026-03-22T10:58:28.99Z</time></trkpt><trkpt lat="43.32922" lon="13.2038733"><ele>471.6666666666667</ele><time>2026-03-22T10:58:29.991Z</time></trkpt><trkpt lat="43.32919" lon="13.2037917"><ele>469.33333333333337</ele><time>2026-03-22T10:58:30.991Z</time></trkpt><trkpt lat="43.3291267" lon="13.20368"><ele>467.0</ele><time>2026-03-22T10:58:32.99Z</time></trkpt><trkpt lat="43.3291283" lon="13.20354"><ele>464.6666666666667</ele><time>2026-03-22T10:58:34.99Z</time></trkpt><trkpt lat="43.32911" lon="13.203435"><ele>462.33333333333337</ele><time>2026-03-22T10:58:35.99Z</time></trkpt><trkpt lat="43.3290817" lon="13.20333"><ele>460.0</ele><time>2026-03-22T10:58:36.99Z</time></trkpt><trkpt lat="43.32904" lon="13.2032217"><ele>459.50000000000006</ele><time>2026-03-22T10:58:37.99Z</time></trkpt><trkpt lat="43.3290033" lon="13.20313"><ele>459.0</ele><time>2026-03-22T10:58:38.991Z</time></trkpt><trkpt lat="43.32895" lon="13.2030283"><ele>458.5</ele><time>2026-03-22T10:58:40.99Z</time></trkpt><trkpt lat="43.3289517" lon="13.2029033"><ele>458.0</ele><time>2026-03-22T10:58:49.99Z</time></trkpt><trkpt lat="43.32894" lon="13.202795"><ele>457.50000000000006</ele><time>2026-03-22T10:58:53.99Z</time></trkpt><trkpt lat="43.328955" lon="13.2027"><ele>457.0</ele><time>2026-03-22T10:58:56.99Z</time></trkpt><trkpt lat="43.3289833" lon="13.2026217"><ele>457.0</ele><time>2026-03-22T10:58:59.99Z</time></trkpt><trkpt lat="43.328995" lon="13.2025333"><ele>457.00000000000006</ele><time>2026-03-22T10:59:02.99Z</time></trkpt><trkpt lat="43.328945" lon="13.20245"><ele>457.00000000000006</ele><time>2026-03-22T10:59:14.99Z</time></trkpt><trkpt lat="43.3288817" lon="13.20237"><ele>457.0</ele><time>2026-03-22T10:59:16.99Z</time></trkpt><trkpt lat="43.3287417" lon="13.202425"><ele>457.0</ele><time>2026-03-22T10:59:33.99Z</time></trkpt><trkpt lat="43.3286667" lon="13.20236"><ele>458.83333333333337</ele><time>2026-03-22T10:59:36.99Z</time></trkpt><trkpt lat="43.328595" lon="13.2022333"><ele>460.6666666666667</ele><time>2026-03-22T10:59:38.99Z</time></trkpt><trkpt lat="43.3285533" lon="13.2021133"><ele>462.5</ele><time>2026-03-22T10:59:40.991Z</time></trkpt><trkpt lat="43.3285267" lon="13.2020083"><ele>464.33333333333337</ele><time>2026-03-22T10:59:42.991Z</time></trkpt><trkpt lat="43.3284867" lon="13.20193"><ele>466.1666666666667</ele><time>2026-03-22T10:59:44.991Z</time></trkpt><trkpt lat="43.328435" lon="13.2018583"><ele>468.0</ele><time>2026-03-22T10:59:46.99Z</time></trkpt><trkpt lat="43.32838" lon="13.20177"><ele>468.0</ele><time>2026-03-22T10:59:48.991Z</time></trkpt><trkpt lat="43.32831" lon="13.20166"><ele>467.99999999999994</ele><time>2026-03-22T10:59:50.99Z</time></trkpt><trkpt lat="43.32826" lon="13.20153"><ele>467.99999999999994</ele><time>2026-03-22T10:59:52.99Z</time></trkpt><trkpt lat="43.32823" lon="13.2014317"><ele>468.0</ele><time>2026-03-22T10:59:53.99Z</time></trkpt><trkpt lat="43.3282033" lon="13.2013317"><ele>468.0</ele><time>2026-03-22T10:59:54.99Z</time></trkpt><trkpt lat="43.3281867" lon="13.2012133"><ele>467.0</ele><time>2026-03-22T10:59:55.99Z</time></trkpt><trkpt lat="43.3281767" lon="13.2011083"><ele>465.99999999999994</ele><time>2026-03-22T10:59:56.991Z</time></trkpt><trkpt lat="43.3281117" lon="13.2009483"><ele>464.99999999999994</ele><time>2026-03-22T10:59:58.99Z</time></trkpt><trkpt lat="43.3280533" lon="13.2008733"><ele>464.0</ele><time>2026-03-22T10:59:59.991Z</time></trkpt><trkpt lat="43.32799" lon="13.2007983"><ele>463.0</ele><time>2026-03-22T11:00:00.99Z</time></trkpt><trkpt lat="43.32791" lon="13.2007267"><ele>463.50000000000006</ele><time>2026-03-22T11:00:01.99Z</time></trkpt><trkpt lat="43.3278417" lon="13.20065"><ele>464.0</ele><time>2026-03-22T11:00:02.991Z</time></trkpt><trkpt lat="43.3277767" lon="13.2005567"><ele>464.5</ele><time>2026-03-22T11:00:03.991Z</time></trkpt><trkpt lat="43.3277183" lon="13.2004533"><ele>465.0</ele><time>2026-03-22T11:00:04.99Z</time></trkpt><trkpt lat="43.3276533" lon="13.2003583"><ele>465.50000000000006</ele><time>2026-03-22T11:00:05.99Z</time></trkpt><trkpt lat="43.3275967" lon="13.2002933"><ele>466.0</ele><time>2026-03-22T11:00:06.991Z</time></trkpt><trkpt lat="43.32754" lon="13.2002317"><ele>466.00000000000006</ele><time>2026-03-22T11:00:07.99Z</time></trkpt><trkpt lat="43.327455" lon="13.2001217"><ele>466.0</ele><time>2026-03-22T11:00:09.99Z</time></trkpt><trkpt lat="43.3274117" lon="13.2000233"><ele>466.0</ele><time>2026-03-22T11:00:11.99Z</time></trkpt><trkpt lat="43.3274083" lon="13.1999233"><ele>466.0</ele><time>2026-03-22T11:00:14.99Z</time></trkpt><trkpt lat="43.3274317" lon="13.1998367"><ele>466.00000000000006</ele><time>2026-03-22T11:00:17.99Z</time></trkpt><trkpt lat="43.3274783" lon="13.1997533"><ele>466.0</ele><time>2026-03-22T11:00:19.991Z</time></trkpt><trkpt lat="43.3275333" lon="13.1996267"><ele>466.1666666666667</ele><time>2026-03-22T11:00:21.99Z</time></trkpt><trkpt lat="43.3275383" lon="13.1994917"><ele>466.33333333333337</ele><time>2026-03-22T11:00:23.99Z</time></trkpt><trkpt lat="43.3275383" lon="13.199395"><ele>466.5</ele><time>2026-03-22T11:00:25.99Z</time></trkpt><trkpt lat="43.3275983" lon="13.199455"><ele>466.66666666666663</ele><time>2026-03-22T11:00:32.99Z</time></trkpt><trkpt lat="43.3276383" lon="13.19955"><ele>466.8333333333333</ele><time>2026-03-22T11:00:35.991Z</time></trkpt><trkpt lat="43.3276683" lon="13.1996483"><ele>467.0</ele><time>2026-03-22T11:00:38.99Z</time></trkpt><trkpt lat="43.3277083" lon="13.1997383"><ele>466.99999999999994</ele><time>2026-03-22T11:00:42.99Z</time></trkpt><trkpt lat="43.32775" lon="13.1998033"><ele>467.0</ele><time>2026-03-22T11:00:45.99Z</time></trkpt><trkpt lat="43.3277933" lon="13.1998783"><ele>467.0</ele><time>2026-03-22T11:00:48.99Z</time></trkpt><trkpt lat="43.327845" lon="13.1999533"><ele>467.0</ele><time>2026-03-22T11:00:52.99Z</time></trkpt><trkpt lat="43.3278983" lon="13.2000267"><ele>466.99999999999994</ele><time>2026-03-22T11:00:56.991Z</time></trkpt><trkpt lat="43.3279583" lon="13.2001117"><ele>467.0</ele><time>2026-03-22T11:01:11.99Z</time></trkpt><trkpt lat="43.3280283" lon="13.2001867"><ele>467.40000000000003</ele><time>2026-03-22T11:01:31.99Z</time></trkpt><trkpt lat="43.328085" lon="13.2002467"><ele>467.80000000000007</ele><time>2026-03-22T11:01:32.99Z</time></trkpt><trkpt lat="43.3281517" lon="13.200315"><ele>468.2</ele><time>2026-03-22T11:01:33.99Z</time></trkpt><trkpt lat="43.3282317" lon="13.2004033"><ele>468.6</ele><time>2026-03-22T11:01:34.991Z</time></trkpt><trkpt lat="43.3283183" lon="13.200525"><ele>469.0</ele><time>2026-03-22T11:01:35.99Z</time></trkpt><trkpt lat="43.3284133" lon="13.2006583"><ele>467.5</ele><time>2026-03-22T11:01:36.991Z</time></trkpt><trkpt lat="43.3284983" lon="13.200805"><ele>466.0</ele><time>2026-03-22T11:01:37.99Z</time></trkpt><trkpt lat="43.3285733" lon="13.200935"><ele>464.5</ele><time>2026-03-22T11:01:38.991Z</time></trkpt><trkpt lat="43.3286433" lon="13.2010517"><ele>463.0</ele><time>2026-03-22T11:01:39.99Z</time></trkpt><trkpt lat="43.3287117" lon="13.2011667"><ele>463.0</ele><time>2026-03-22T11:01:40.99Z</time></trkpt><trkpt lat="43.3287817" lon="13.201275"><ele>463.0</ele><time>2026-03-22T11:01:41.99Z</time></trkpt><trkpt lat="43.3288517" lon="13.2014017"><ele>463.0</ele><time>2026-03-22T11:01:42.99Z</time></trkpt><trkpt lat="43.3289317" lon="13.2015383"><ele>463.0</ele><time>2026-03-22T11:01:43.991Z</time></trkpt><trkpt lat="43.32901" lon="13.2016717"><ele>462.75</ele><time>2026-03-22T11:01:44.99Z</time></trkpt><trkpt lat="43.329085" lon="13.2018067"><ele>462.5</ele><time>2026-03-22T11:01:45.99Z</time></trkpt><trkpt lat="43.329165" lon="13.2019533"><ele>462.25</ele><time>2026-03-22T11:01:46.99Z</time></trkpt><trkpt lat="43.3292483" lon="13.2020933"><ele>462.0</ele><time>2026-03-22T11:01:47.99Z</time></trkpt><trkpt lat="43.3293433" lon="13.2022133"><ele>462.75</ele><time>2026-03-22T11:01:48.991Z</time></trkpt><trkpt lat="43.3294433" lon="13.2023417"><ele>463.5</ele><time>2026-03-22T11:01:49.991Z</time></trkpt><trkpt lat="43.3295433" lon="13.202465"><ele>464.25</ele><time>2026-03-22T11:01:50.99Z</time></trkpt><trkpt lat="43.3296467" lon="13.202585"><ele>465.0</ele><time>2026-03-22T11:01:51.991Z</time></trkpt><trkpt lat="43.3297483" lon="13.2027083"><ele>465.0</ele><time>2026-03-22T11:01:52.991Z</time></trkpt><trkpt lat="43.3298417" lon="13.2028317"><ele>465.0</ele><time>2026-03-22T11:01:53.99Z</time></trkpt><trkpt lat="43.3299467" lon="13.2029467"><ele>465.0</ele><time>2026-03-22T11:01:54.991Z</time></trkpt><trkpt lat="43.3300567" lon="13.20306"><ele>465.0</ele><time>2026-03-22T11:01:55.99Z</time></trkpt><trkpt lat="43.330165" lon="13.2031983"><ele>462.75</ele><time>2026-03-22T11:01:56.991Z</time></trkpt><trkpt lat="43.3302683" lon="13.2033383"><ele>460.5</ele><time>2026-03-22T11:01:57.99Z</time></trkpt><trkpt lat="43.3303583" lon="13.2034883"><ele>458.25</ele><time>2026-03-22T11:01:58.99Z</time></trkpt><trkpt lat="43.3304517" lon="13.2036417"><ele>456.0</ele><time>2026-03-22T11:01:59.99Z</time></trkpt><trkpt lat="43.3305417" lon="13.20377"><ele>457.75</ele><time>2026-03-22T11:02:00.991Z</time></trkpt><trkpt lat="43.330635" lon="13.2039117"><ele>459.5</ele><time>2026-03-22T11:02:01.99Z</time></trkpt><trkpt lat="43.3307317" lon="13.2040533"><ele>461.25</ele><time>2026-03-22T11:02:02.99Z</time></trkpt><trkpt lat="43.3308317" lon="13.2042"><ele>463.0</ele><time>2026-03-22T11:02:03.99Z</time></trkpt><trkpt lat="43.33091" lon="13.2043733"><ele>463.0</ele><time>2026-03-22T11:02:04.991Z</time></trkpt><trkpt lat="43.3309833" lon="13.2045583"><ele>463.0</ele><time>2026-03-22T11:02:05.99Z</time></trkpt><trkpt lat="43.33106" lon="13.2047233"><ele>463.0</ele><time>2026-03-22T11:02:06.991Z</time></trkpt><trkpt lat="43.3311333" lon="13.2048933"><ele>463.0</ele><time>2026-03-22T11:02:07.99Z</time></trkpt><trkpt lat="43.3311983" lon="13.2050817"><ele>460.75</ele><time>2026-03-22T11:02:08.99Z</time></trkpt><trkpt lat="43.3312633" lon="13.2052617"><ele>458.5</ele><time>2026-03-22T11:02:09.99Z</time></trkpt><trkpt lat="43.3313217" lon="13.205455"><ele>456.25</ele><time>2026-03-22T11:02:10.991Z</time></trkpt><trkpt lat="43.3313683" lon="13.2056467"><ele>454.0</ele><time>2026-03-22T11:02:11.99Z</time></trkpt><trkpt lat="43.3314133" lon="13.2058483"><ele>457.5</ele><time>2026-03-22T11:02:12.991Z</time></trkpt><trkpt lat="43.331445" lon="13.2060533"><ele>461.0</ele><time>2026-03-22T11:02:13.991Z</time></trkpt><trkpt lat="43.3314667" lon="13.20625"><ele>464.5</ele><time>2026-03-22T11:02:14.99Z</time></trkpt><trkpt lat="43.3314917" lon="13.20644"><ele>468.0</ele><time>2026-03-22T11:02:15.99Z</time></trkpt><trkpt lat="43.3315067" lon="13.20662"><ele>468.0</ele><time>2026-03-22T11:02:16.991Z</time></trkpt><trkpt lat="43.3315267" lon="13.2067983"><ele>468.0</ele><time>2026-03-22T11:02:17.99Z</time></trkpt><trkpt lat="43.3315483" lon="13.2069583"><ele>468.0</ele><time>2026-03-22T11:02:18.99Z</time></trkpt><trkpt lat="43.3315767" lon="13.2071317"><ele>468.0</ele><time>2026-03-22T11:02:19.99Z</time></trkpt><trkpt lat="43.3316117" lon="13.2073033"><ele>466.25</ele><time>2026-03-22T11:02:20.99Z</time></trkpt><trkpt lat="43.3316617" lon="13.207485"><ele>464.5</ele><time>2026-03-22T11:02:21.99Z</time></trkpt><trkpt lat="43.33172" lon="13.2076767"><ele>462.75</ele><time>2026-03-22T11:02:22.99Z</time></trkpt><trkpt lat="43.3317783" lon="13.2078733"><ele>461.0</ele><time>2026-03-22T11:02:23.99Z</time></trkpt><trkpt lat="43.3318433" lon="13.2080683"><ele>459.25</ele><time>2026-03-22T11:02:24.99Z</time></trkpt><trkpt lat="43.3319033" lon="13.208255"><ele>457.5</ele><time>2026-03-22T11:02:25.99Z</time></trkpt><trkpt lat="43.3319533" lon="13.2084333"><ele>455.75</ele><time>2026-03-22T11:02:26.99Z</time></trkpt><trkpt lat="43.331995" lon="13.2086133"><ele>454.0</ele><time>2026-03-22T11:02:27.991Z</time></trkpt><trkpt lat="43.332015" lon="13.2087867"><ele>454.0</ele><time>2026-03-22T11:02:28.991Z</time></trkpt><trkpt lat="43.3320217" lon="13.2089617"><ele>454.0</ele><time>2026-03-22T11:02:29.99Z</time></trkpt><trkpt lat="43.3319983" lon="13.2091517"><ele>454.0</ele><time>2026-03-22T11:02:30.99Z</time></trkpt><trkpt lat="43.3319883" lon="13.2093433"><ele>454.0</ele><time>2026-03-22T11:02:31.99Z</time></trkpt><trkpt lat="43.331995" lon="13.2095317"><ele>453.25</ele><time>2026-03-22T11:02:32.99Z</time></trkpt><trkpt lat="43.3320217" lon="13.209725"><ele>452.5</ele><time>2026-03-22T11:02:33.99Z</time></trkpt><trkpt lat="43.3320433" lon="13.209905"><ele>451.75</ele><time>2026-03-22T11:02:34.99Z</time></trkpt><trkpt lat="43.33205" lon="13.2100667"><ele>451.0</ele><time>2026-03-22T11:02:35.991Z</time></trkpt><trkpt lat="43.33204" lon="13.2102217"><ele>450.20000000000005</ele><time>2026-03-22T11:02:36.99Z</time></trkpt><trkpt lat="43.3320117" lon="13.2103717"><ele>449.40000000000003</ele><time>2026-03-22T11:02:37.99Z</time></trkpt><trkpt lat="43.3319783" lon="13.2105133"><ele>448.6</ele><time>2026-03-22T11:02:38.99Z</time></trkpt><trkpt lat="43.3319467" lon="13.2106467"><ele>447.8</ele><time>2026-03-22T11:02:39.99Z</time></trkpt><trkpt lat="43.33192" lon="13.2107733"><ele>447.0</ele><time>2026-03-22T11:02:40.99Z</time></trkpt><trkpt lat="43.331895" lon="13.2108933"><ele>446.6666666666667</ele><time>2026-03-22T11:02:41.99Z</time></trkpt><trkpt lat="43.3318767" lon="13.2110167"><ele>446.33333333333337</ele><time>2026-03-22T11:02:42.99Z</time></trkpt><trkpt lat="43.3318533" lon="13.2111317"><ele>446.0</ele><time>2026-03-22T11:02:43.991Z</time></trkpt><trkpt lat="43.33183" lon="13.2112333"><ele>445.6666666666667</ele><time>2026-03-22T11:02:44.99Z</time></trkpt><trkpt lat="43.3317917" lon="13.21133"><ele>445.33333333333337</ele><time>2026-03-22T11:02:46.99Z</time></trkpt><trkpt lat="43.3317217" lon="13.2112267"><ele>445.0</ele><time>2026-03-22T11:02:49.991Z</time></trkpt><trkpt lat="43.3317017" lon="13.21112"><ele>445.0</ele><time>2026-03-22T11:02:50.99Z</time></trkpt><trkpt lat="43.3316867" lon="13.2110217"><ele>445.0</ele><time>2026-03-22T11:02:51.991Z</time></trkpt><trkpt lat="43.3316733" lon="13.210935"><ele>445.0</ele><time>2026-03-22T11:02:52.99Z</time></trkpt><trkpt lat="43.3316483" lon="13.2107967"><ele>445.0</ele><time>2026-03-22T11:02:54.99Z</time></trkpt><trkpt lat="43.3316267" lon="13.2107033"><ele>445.0</ele><time>2026-03-22T11:02:56.99Z</time></trkpt><trkpt lat="43.33161" lon="13.210615"><ele>445.0</ele><time>2026-03-22T11:02:58.99Z</time></trkpt><trkpt lat="43.3315567" lon="13.2106717"><ele>445.0</ele><time>2026-03-22T11:03:17.991Z</time></trkpt><trkpt lat="43.3315533" lon="13.210815"><ele>445.00000000000006</ele><time>2026-03-22T11:03:19.991Z</time></trkpt><trkpt lat="43.3315167" lon="13.2109567"><ele>445.0</ele><time>2026-03-22T11:03:21.99Z</time></trkpt><trkpt lat="43.3314617" lon="13.2110583"><ele>445.0</ele><time>2026-03-22T11:03:23.991Z</time></trkpt><trkpt lat="43.331395" lon="13.2111633"><ele>445.0</ele><time>2026-03-22T11:03:25.991Z</time></trkpt><trkpt lat="43.33135" lon="13.2112367"><ele>445.00000000000006</ele><time>2026-03-22T11:03:26.99Z</time></trkpt><trkpt lat="43.3313083" lon="13.2113167"><ele>445.0</ele><time>2026-03-22T11:03:27.991Z</time></trkpt><trkpt lat="43.3312567" lon="13.2113917"><ele>447.50000000000006</ele><time>2026-03-22T11:03:28.99Z</time></trkpt><trkpt lat="43.331195" lon="13.2114633"><ele>450.0</ele><time>2026-03-22T11:03:29.991Z</time></trkpt><trkpt lat="43.3311233" lon="13.2115217"><ele>452.5</ele><time>2026-03-22T11:03:30.991Z</time></trkpt><trkpt lat="43.3310633" lon="13.2115767"><ele>455.0</ele><time>2026-03-22T11:03:31.99Z</time></trkpt><trkpt lat="43.331005" lon="13.211655"><ele>457.50000000000006</ele><time>2026-03-22T11:03:32.99Z</time></trkpt><trkpt lat="43.3309567" lon="13.2117517"><ele>460.0</ele><time>2026-03-22T11:03:33.991Z</time></trkpt><trkpt lat="43.3309083" lon="13.2118383"><ele>460.6666666666667</ele><time>2026-03-22T11:03:34.99Z</time></trkpt><trkpt lat="43.3308533" lon="13.2119267"><ele>461.33333333333337</ele><time>2026-03-22T11:03:35.99Z</time></trkpt><trkpt lat="43.330785" lon="13.2120067"><ele>462.0</ele><time>2026-03-22T11:03:36.991Z</time></trkpt><trkpt lat="43.3307167" lon="13.2120867"><ele>462.66666666666663</ele><time>2026-03-22T11:03:37.991Z</time></trkpt><trkpt lat="43.3306433" lon="13.21217"><ele>463.3333333333333</ele><time>2026-03-22T11:03:38.99Z</time></trkpt><trkpt lat="43.3305817" lon="13.21225"><ele>464.0</ele><time>2026-03-22T11:03:39.99Z</time></trkpt><trkpt lat="43.3305233" lon="13.2123183"><ele>468.00000000000006</ele><time>2026-03-22T11:03:40.99Z</time></trkpt><trkpt lat="43.330475" lon="13.2124"><ele>472.0</ele><time>2026-03-22T11:03:41.99Z</time></trkpt><trkpt lat="43.330435" lon="13.2124867"><ele>476.00000000000006</ele><time>2026-03-22T11:03:42.99Z</time></trkpt><trkpt lat="43.3303933" lon="13.212575"><ele>480.00000000000006</ele><time>2026-03-22T11:03:43.99Z</time></trkpt><trkpt lat="43.3303467" lon="13.2126567"><ele>484.0</ele><time>2026-03-22T11:03:44.99Z</time></trkpt><trkpt lat="43.3303117" lon="13.2127367"><ele>488.00000000000006</ele><time>2026-03-22T11:03:45.99Z</time></trkpt><trkpt lat="43.330265" lon="13.2128167"><ele>492.00000000000006</ele><time>2026-03-22T11:03:46.991Z</time></trkpt><trkpt lat="43.3302183" lon="13.212905"><ele>492.0</ele><time>2026-03-22T11:03:47.99Z</time></trkpt><trkpt lat="43.3301783" lon="13.2129867"><ele>492.0</ele><time>2026-03-22T11:03:48.99Z</time></trkpt><trkpt lat="43.330145" lon="13.2130717"><ele>492.0</ele><time>2026-03-22T11:03:49.99Z</time></trkpt><trkpt lat="43.3301167" lon="13.21316"><ele>492.0</ele><time>2026-03-22T11:03:50.99Z</time></trkpt><trkpt lat="43.3300733" lon="13.213245"><ele>492.0</ele><time>2026-03-22T11:03:51.991Z</time></trkpt><trkpt lat="43.3299967" lon="13.21337"><ele>492.0</ele><time>2026-03-22T11:03:53.99Z</time></trkpt><trkpt lat="43.3299333" lon="13.213435"><ele>490.8333333333333</ele><time>2026-03-22T11:03:55.99Z</time></trkpt><trkpt lat="43.3298267" lon="13.2135117"><ele>489.66666666666663</ele><time>2026-03-22T11:04:15.99Z</time></trkpt><trkpt lat="43.3297417" lon="13.2135283"><ele>488.5</ele><time>2026-03-22T11:04:18.991Z</time></trkpt><trkpt lat="43.3296683" lon="13.2135133"><ele>487.3333333333333</ele><time>2026-03-22T11:04:20.99Z</time></trkpt><trkpt lat="43.3295817" lon="13.21348"><ele>486.16666666666663</ele><time>2026-03-22T11:04:22.991Z</time></trkpt><trkpt lat="43.3295067" lon="13.213475"><ele>485.0</ele><time>2026-03-22T11:04:24.991Z</time></trkpt><trkpt lat="43.3294417" lon="13.2135"><ele>487.49999999999994</ele><time>2026-03-22T11:04:26.99Z</time></trkpt><trkpt lat="43.3293767" lon="13.2135167"><ele>490.0</ele><time>2026-03-22T11:04:54.99Z</time></trkpt><trkpt lat="43.3293217" lon="13.213435"><ele>492.5</ele><time>2026-03-22T11:04:57.99Z</time></trkpt><trkpt lat="43.32926" lon="13.2133067"><ele>495.0</ele><time>2026-03-22T11:04:59.991Z</time></trkpt><trkpt lat="43.3292267" lon="13.21323"><ele>497.49999999999994</ele><time>2026-03-22T11:05:00.991Z</time></trkpt><trkpt lat="43.329195" lon="13.21315"><ele>500.0</ele><time>2026-03-22T11:05:01.99Z</time></trkpt><trkpt lat="43.329145" lon="13.2129983"><ele>499.99999999999994</ele><time>2026-03-22T11:05:03.99Z</time></trkpt><trkpt lat="43.3291383" lon="13.212875"><ele>500.0</ele><time>2026-03-22T11:05:05.99Z</time></trkpt><trkpt lat="43.3291833" lon="13.2127967"><ele>500.0</ele><time>2026-03-22T11:05:07.99Z</time></trkpt><trkpt lat="43.3292183" lon="13.21271"><ele>500.0</ele><time>2026-03-22T11:05:09.991Z</time></trkpt><trkpt lat="43.3292717" lon="13.2126267"><ele>499.99999999999994</ele><time>2026-03-22T11:05:11.991Z</time></trkpt><trkpt lat="43.3293217" lon="13.212535"><ele>500.0</ele><time>2026-03-22T11:05:13.99Z</time></trkpt><trkpt lat="43.32936" lon="13.2124483"><ele>499.99999999999994</ele><time>2026-03-22T11:05:15.991Z</time></trkpt><trkpt lat="43.329405" lon="13.2123683"><ele>500.0</ele><time>2026-03-22T11:05:17.99Z</time></trkpt><trkpt lat="43.32945" lon="13.2122933"><ele>500.0</ele><time>2026-03-22T11:05:19.99Z</time></trkpt><trkpt lat="43.3295233" lon="13.2122067"><ele>500.0</ele><time>2026-03-22T11:05:21.99Z</time></trkpt><trkpt lat="43.3296033" lon="13.2121367"><ele>499.99999999999994</ele><time>2026-03-22T11:05:23.99Z</time></trkpt><trkpt lat="43.3296683" lon="13.2120883"><ele>500.0</ele><time>2026-03-22T11:05:25.99Z</time></trkpt><trkpt lat="43.3297183" lon="13.2120233"><ele>497.66666666666663</ele><time>2026-03-22T11:05:27.991Z</time></trkpt><trkpt lat="43.3297617" lon="13.2119033"><ele>495.3333333333333</ele><time>2026-03-22T11:05:30.99Z</time></trkpt><trkpt lat="43.3297833" lon="13.2117983"><ele>493.0</ele><time>2026-03-22T11:05:32.991Z</time></trkpt><trkpt lat="43.3298033" lon="13.2116883"><ele>490.66666666666663</ele><time>2026-03-22T11:05:34.99Z</time></trkpt><trkpt lat="43.3298483" lon="13.2115967"><ele>488.3333333333333</ele><time>2026-03-22T11:05:36.99Z</time></trkpt><trkpt lat="43.3299017" lon="13.211525"><ele>486.0</ele><time>2026-03-22T11:05:38.99Z</time></trkpt><trkpt lat="43.32996" lon="13.21144"><ele>483.71428571428567</ele><time>2026-03-22T11:05:40.99Z</time></trkpt><trkpt lat="43.33001" lon="13.2113483"><ele>481.42857142857144</ele><time>2026-03-22T11:05:42.99Z</time></trkpt><trkpt lat="43.33004" lon="13.2112667"><ele>479.1428571428571</ele><time>2026-03-22T11:05:44.99Z</time></trkpt><trkpt lat="43.330075" lon="13.2111867"><ele>476.85714285714283</ele><time>2026-03-22T11:05:46.99Z</time></trkpt><trkpt lat="43.3301133" lon="13.2110983"><ele>474.57142857142856</ele><time>2026-03-22T11:05:48.991Z</time></trkpt><trkpt lat="43.33014" lon="13.2110183"><ele>472.2857142857143</ele><time>2026-03-22T11:05:50.99Z</time></trkpt><trkpt lat="43.3301833" lon="13.2109167"><ele>470.0</ele><time>2026-03-22T11:05:53.99Z</time></trkpt><trkpt lat="43.3302167" lon="13.2108067"><ele>469.99999999999994</ele><time>2026-03-22T11:05:56.99Z</time></trkpt><trkpt lat="43.33023" lon="13.2106983"><ele>470.0</ele><time>2026-03-22T11:05:58.99Z</time></trkpt><trkpt lat="43.3302317" lon="13.2105767"><ele>470.0</ele><time>2026-03-22T11:06:00.99Z</time></trkpt><trkpt lat="43.33023" lon="13.2104417"><ele>470.0</ele><time>2026-03-22T11:06:02.991Z</time></trkpt><trkpt lat="43.3302283" lon="13.2103133"><ele>469.99999999999994</ele><time>2026-03-22T11:06:04.99Z</time></trkpt><trkpt lat="43.3302283" lon="13.2102033"><ele>470.0</ele><time>2026-03-22T11:06:06.991Z</time></trkpt><trkpt lat="43.3302283" lon="13.2101133"><ele>467.0</ele><time>2026-03-22T11:06:08.99Z</time></trkpt><trkpt lat="43.3302167" lon="13.2100033"><ele>464.0</ele><time>2026-03-22T11:06:10.991Z</time></trkpt><trkpt lat="43.3301983" lon="13.2098733"><ele>461.0</ele><time>2026-03-22T11:06:12.991Z</time></trkpt><trkpt lat="43.33021" lon="13.2097433"><ele>458.0</ele><time>2026-03-22T11:06:14.99Z</time></trkpt><trkpt lat="43.3302433" lon="13.2096283"><ele>455.0</ele><time>2026-03-22T11:06:16.99Z</time></trkpt><trkpt lat="43.33015" lon="13.2095867"><ele>454.66666666666663</ele><time>2026-03-22T11:06:21.99Z</time></trkpt><trkpt lat="43.3300717" lon="13.2096117"><ele>454.3333333333333</ele><time>2026-03-22T11:06:22.991Z</time></trkpt><trkpt lat="43.3299833" lon="13.2096333"><ele>454.0</ele><time>2026-03-22T11:06:23.99Z</time></trkpt><trkpt lat="43.3298883" lon="13.209645"><ele>453.66666666666663</ele><time>2026-03-22T11:06:24.99Z</time></trkpt><trkpt lat="43.3298083" lon="13.2096633"><ele>453.3333333333333</ele><time>2026-03-22T11:06:25.99Z</time></trkpt><trkpt lat="43.3297317" lon="13.2097033"><ele>453.0</ele><time>2026-03-22T11:06:26.99Z</time></trkpt><trkpt lat="43.3296567" lon="13.2097483"><ele>453.0</ele><time>2026-03-22T11:06:27.99Z</time></trkpt><trkpt lat="43.329585" lon="13.2097967"><ele>453.0</ele><time>2026-03-22T11:06:28.991Z</time></trkpt><trkpt lat="43.32951" lon="13.2098567"><ele>453.0</ele><time>2026-03-22T11:06:29.99Z</time></trkpt><trkpt lat="43.3294333" lon="13.2099183"><ele>453.0</ele><time>2026-03-22T11:06:30.99Z</time></trkpt><trkpt lat="43.3293583" lon="13.209985"><ele>453.0</ele><time>2026-03-22T11:06:31.99Z</time></trkpt><trkpt lat="43.329285" lon="13.2100633"><ele>453.0</ele><time>2026-03-22T11:06:32.99Z</time></trkpt><trkpt lat="43.3292" lon="13.210165"><ele>453.0</ele><time>2026-03-22T11:06:33.99Z</time></trkpt><trkpt lat="43.329105" lon="13.2102633"><ele>452.99999999999994</ele><time>2026-03-22T11:06:34.99Z</time></trkpt><trkpt lat="43.32902" lon="13.2103483"><ele>452.99999999999994</ele><time>2026-03-22T11:06:35.991Z</time></trkpt><trkpt lat="43.3289333" lon="13.2104233"><ele>453.0</ele><time>2026-03-22T11:06:36.99Z</time></trkpt><trkpt lat="43.3288467" lon="13.2104983"><ele>453.0</ele><time>2026-03-22T11:06:37.991Z</time></trkpt><trkpt lat="43.3287583" lon="13.210585"><ele>454.75</ele><time>2026-03-22T11:06:38.99Z</time></trkpt><trkpt lat="43.3286733" lon="13.210695"><ele>456.5</ele><time>2026-03-22T11:06:39.99Z</time></trkpt><trkpt lat="43.3285917" lon="13.2108117"><ele>458.25</ele><time>2026-03-22T11:06:40.991Z</time></trkpt><trkpt lat="43.3285167" lon="13.210925"><ele>460.0</ele><time>2026-03-22T11:06:41.99Z</time></trkpt><trkpt lat="43.328445" lon="13.21103"><ele>460.00000000000006</ele><time>2026-03-22T11:06:42.99Z</time></trkpt><trkpt lat="43.3283817" lon="13.2111183"><ele>460.0</ele><time>2026-03-22T11:06:43.991Z</time></trkpt><trkpt lat="43.32833" lon="13.2111767"><ele>460.0</ele><time>2026-03-22T11:06:44.991Z</time></trkpt><trkpt lat="43.3282583" lon="13.211255"><ele>460.0</ele><time>2026-03-22T11:06:46.99Z</time></trkpt><trkpt lat="43.3281917" lon="13.21131"><ele>460.00000000000006</ele><time>2026-03-22T11:06:48.99Z</time></trkpt><trkpt lat="43.328115" lon="13.211235"><ele>460.0</ele><time>2026-03-22T11:06:52.99Z</time></trkpt><trkpt lat="43.3280217" lon="13.2111483"><ele>461.1666666666667</ele><time>2026-03-22T11:06:54.99Z</time></trkpt><trkpt lat="43.327905" lon="13.211115"><ele>462.33333333333337</ele><time>2026-03-22T11:06:56.99Z</time></trkpt><trkpt lat="43.327835" lon="13.211105"><ele>463.5</ele><time>2026-03-22T11:06:57.99Z</time></trkpt><trkpt lat="43.3277583" lon="13.211105"><ele>464.66666666666663</ele><time>2026-03-22T11:06:58.99Z</time></trkpt><trkpt lat="43.32769" lon="13.211105"><ele>465.8333333333333</ele><time>2026-03-22T11:06:59.991Z</time></trkpt><trkpt lat="43.3276267" lon="13.2110767"><ele>467.0</ele><time>2026-03-22T11:07:00.99Z</time></trkpt><trkpt lat="43.3275283" lon="13.2110333"><ele>466.99999999999994</ele><time>2026-03-22T11:07:02.991Z</time></trkpt><trkpt lat="43.32744" lon="13.2110567"><ele>467.0</ele><time>2026-03-22T11:07:05.99Z</time></trkpt><trkpt lat="43.3273583" lon="13.2110517"><ele>467.0</ele><time>2026-03-22T11:07:08.99Z</time></trkpt><trkpt lat="43.32729" lon="13.2109967"><ele>467.0</ele><time>2026-03-22T11:07:11.99Z</time></trkpt><trkpt lat="43.327225" lon="13.21097"><ele>466.99999999999994</ele><time>2026-03-22T11:07:15.991Z</time></trkpt><trkpt lat="43.3271067" lon="13.21101"><ele>467.0</ele><time>2026-03-22T11:07:53.992Z</time></trkpt><trkpt lat="43.326965" lon="13.21095"><ele>468.20000000000005</ele><time>2026-03-22T11:10:54.991Z</time></trkpt><trkpt lat="43.326895" lon="13.210955"><ele>469.40000000000003</ele><time>2026-03-22T11:12:36.991Z</time></trkpt><trkpt lat="43.3267633" lon="13.2109667"><ele>470.59999999999997</ele><time>2026-03-22T11:13:29.991Z</time></trkpt><trkpt lat="43.32668" lon="13.2109983"><ele>471.79999999999995</ele><time>2026-03-22T11:13:41.991Z</time></trkpt><trkpt lat="43.3266167" lon="13.2110317"><ele>473.0</ele><time>2026-03-22T11:13:44.992Z</time></trkpt><trkpt lat="43.3265167" lon="13.2110867"><ele>472.99999999999994</ele><time>2026-03-22T11:14:39.991Z</time></trkpt><trkpt lat="43.3264583" lon="13.21114"><ele>473.0</ele><time>2026-03-22T11:17:36.992Z</time></trkpt><trkpt lat="43.3264167" lon="13.21107"><ele>473.0</ele><time>2026-03-22T11:23:46.991Z</time></trkpt><trkpt lat="43.3263267" lon="13.2110683"><ele>473.0</ele><time>2026-03-22T11:23:47.991Z</time></trkpt><trkpt lat="43.3262983" lon="13.210975"><ele>472.99999999999994</ele><time>2026-03-22T11:24:38.992Z</time></trkpt><trkpt lat="43.3262633" lon="13.2108867"><ele>473.0</ele><time>2026-03-22T11:24:42.992Z</time></trkpt><trkpt lat="43.3261683" lon="13.2108967"><ele>475.49999999999994</ele><time>2026-03-22T11:24:45.992Z</time></trkpt><trkpt lat="43.3260817" lon="13.21091"><ele>478.0</ele><time>2026-03-22T11:24:47.991Z</time></trkpt><trkpt lat="43.3259633" lon="13.2109383"><ele>480.5</ele><time>2026-03-22T11:24:49.991Z</time></trkpt><trkpt lat="43.3258983" lon="13.2109633"><ele>483.0</ele><time>2026-03-22T11:24:50.991Z</time></trkpt><trkpt lat="43.3258" lon="13.21102"><ele>485.49999999999994</ele><time>2026-03-22T11:24:52.991Z</time></trkpt><trkpt lat="43.3257433" lon="13.2110583"><ele>488.0</ele><time>2026-03-22T11:24:53.991Z</time></trkpt><trkpt lat="43.3256667" lon="13.21112"><ele>488.0</ele><time>2026-03-22T11:24:55.991Z</time></trkpt><trkpt lat="43.3256183" lon="13.2111967"><ele>487.99999999999994</ele><time>2026-03-22T11:24:57.991Z</time></trkpt><trkpt lat="43.325545" lon="13.2113017"><ele>487.99999999999994</ele><time>2026-03-22T11:24:59.991Z</time></trkpt><trkpt lat="43.3254683" lon="13.2114283"><ele>488.0</ele><time>2026-03-22T11:25:01.991Z</time></trkpt><trkpt lat="43.3254217" lon="13.2115383"><ele>488.0</ele><time>2026-03-22T11:25:03.991Z</time></trkpt><trkpt lat="43.325385" lon="13.2116133"><ele>486.99999999999994</ele><time>2026-03-22T11:25:05.991Z</time></trkpt><trkpt lat="43.3253117" lon="13.211685"><ele>486.0</ele><time>2026-03-22T11:25:08.991Z</time></trkpt><trkpt lat="43.3252517" lon="13.2117383"><ele>485.0</ele><time>2026-03-22T11:25:10.991Z</time></trkpt><trkpt lat="43.3251817" lon="13.21178"><ele>484.0</ele><time>2026-03-22T11:25:12.991Z</time></trkpt><trkpt lat="43.3251067" lon="13.2118433"><ele>482.99999999999994</ele><time>2026-03-22T11:25:14.991Z</time></trkpt><trkpt lat="43.3250567" lon="13.2119067"><ele>482.0</ele><time>2026-03-22T11:25:16.992Z</time></trkpt><trkpt lat="43.32505" lon="13.212145"><ele>481.99999999999994</ele><time>2026-03-22T11:27:44.992Z</time></trkpt><trkpt lat="43.32499" lon="13.2121833"><ele>482.0</ele><time>2026-03-22T11:27:48.992Z</time></trkpt><trkpt lat="43.324935" lon="13.2122383"><ele>482.0</ele><time>2026-03-22T11:27:50.992Z</time></trkpt><trkpt lat="43.32487" lon="13.2123167"><ele>482.0</ele><time>2026-03-22T11:27:53.991Z</time></trkpt><trkpt lat="43.324805" lon="13.2123567"><ele>481.99999999999994</ele><time>2026-03-22T11:27:56.992Z</time></trkpt><trkpt lat="43.3247317" lon="13.2124033"><ele>482.0</ele><time>2026-03-22T11:27:59.991Z</time></trkpt><trkpt lat="43.3246733" lon="13.2125233"><ele>483.8333333333333</ele><time>2026-03-22T11:29:22.991Z</time></trkpt><trkpt lat="43.3246333" lon="13.2126017"><ele>485.66666666666663</ele><time>2026-03-22T11:29:27.991Z</time></trkpt><trkpt lat="43.3245217" lon="13.2126667"><ele>487.5</ele><time>2026-03-22T11:33:58.992Z</time></trkpt><trkpt lat="43.3244533" lon="13.212645"><ele>489.33333333333337</ele><time>2026-03-22T11:34:02.991Z</time></trkpt><trkpt lat="43.3244083" lon="13.2127083"><ele>491.1666666666667</ele><time>2026-03-22T11:34:04.992Z</time></trkpt><trkpt lat="43.324365" lon="13.212815"><ele>493.0</ele><time>2026-03-22T11:34:06.991Z</time></trkpt><trkpt lat="43.3243267" lon="13.2129133"><ele>493.0</ele><time>2026-03-22T11:34:08.991Z</time></trkpt><trkpt lat="43.3242783" lon="13.213015"><ele>492.99999999999994</ele><time>2026-03-22T11:34:10.991Z</time></trkpt><trkpt lat="43.324195" lon="13.2131117"><ele>492.99999999999994</ele><time>2026-03-22T11:34:12.992Z</time></trkpt><trkpt lat="43.32408" lon="13.2131683"><ele>493.0</ele><time>2026-03-22T11:34:14.992Z</time></trkpt><trkpt lat="43.3240167" lon="13.213205"><ele>493.0</ele><time>2026-03-22T11:34:15.991Z</time></trkpt><trkpt lat="43.3239317" lon="13.2132667"><ele>491.50000000000006</ele><time>2026-03-22T11:34:16.991Z</time></trkpt><trkpt lat="43.3238383" lon="13.2133367"><ele>490.0</ele><time>2026-03-22T11:34:17.991Z</time></trkpt><trkpt lat="43.3237717" lon="13.213415"><ele>488.5</ele><time>2026-03-22T11:34:18.991Z</time></trkpt><trkpt lat="43.3237183" lon="13.2134833"><ele>487.0</ele><time>2026-03-22T11:34:19.991Z</time></trkpt><trkpt lat="43.3236533" lon="13.2135317"><ele>485.50000000000006</ele><time>2026-03-22T11:34:20.991Z</time></trkpt><trkpt lat="43.323585" lon="13.2135733"><ele>484.0</ele><time>2026-03-22T11:34:21.991Z</time></trkpt><trkpt lat="43.3235217" lon="13.213605"><ele>484.00000000000006</ele><time>2026-03-22T11:34:22.992Z</time></trkpt><trkpt lat="43.323445" lon="13.2136417"><ele>484.0</ele><time>2026-03-22T11:34:23.991Z</time></trkpt><trkpt lat="43.32336" lon="13.21368"><ele>484.0</ele><time>2026-03-22T11:34:24.991Z</time></trkpt><trkpt lat="43.3232733" lon="13.2137133"><ele>484.0</ele><time>2026-03-22T11:34:25.991Z</time></trkpt><trkpt lat="43.3231867" lon="13.2137517"><ele>484.00000000000006</ele><time>2026-03-22T11:34:26.991Z</time></trkpt><trkpt lat="43.323105" lon="13.21381"><ele>484.0</ele><time>2026-03-22T11:34:27.992Z</time></trkpt><trkpt lat="43.3230383" lon="13.2138833"><ele>483.79999999999995</ele><time>2026-03-22T11:34:28.992Z</time></trkpt><trkpt lat="43.322995" lon="13.2139567"><ele>483.59999999999997</ele><time>2026-03-22T11:34:29.991Z</time></trkpt><trkpt lat="43.322965" lon="13.2140983"><ele>483.4</ele><time>2026-03-22T11:34:31.991Z</time></trkpt><trkpt lat="43.3230117" lon="13.2142017"><ele>483.2</ele><time>2026-03-22T11:34:33.991Z</time></trkpt><trkpt lat="43.3231167" lon="13.2142417"><ele>483.0</ele><time>2026-03-22T11:34:35.991Z</time></trkpt><trkpt lat="43.3232317" lon="13.2142783"><ele>482.79999999999995</ele><time>2026-03-22T11:34:37.991Z</time></trkpt><trkpt lat="43.323335" lon="13.2143167"><ele>482.59999999999997</ele><time>2026-03-22T11:34:39.991Z</time></trkpt><trkpt lat="43.323455" lon="13.2143667"><ele>482.40000000000003</ele><time>2026-03-22T11:34:41.991Z</time></trkpt><trkpt lat="43.3235267" lon="13.2143983"><ele>482.20000000000005</ele><time>2026-03-22T11:34:42.991Z</time></trkpt><trkpt lat="43.3235983" lon="13.2144383"><ele>482.0</ele><time>2026-03-22T11:34:43.992Z</time></trkpt><trkpt lat="43.3236733" lon="13.2144883"><ele>481.99999999999994</ele><time>2026-03-22T11:34:44.992Z</time></trkpt><trkpt lat="43.3237483" lon="13.2145383"><ele>482.0</ele><time>2026-03-22T11:34:45.991Z</time></trkpt><trkpt lat="43.3238083" lon="13.21459"><ele>482.0</ele><time>2026-03-22T11:34:46.991Z</time></trkpt><trkpt lat="43.323875" lon="13.214665"><ele>482.0</ele><time>2026-03-22T11:34:48.991Z</time></trkpt><trkpt lat="43.323845" lon="13.21475"><ele>481.99999999999994</ele><time>2026-03-22T11:34:51.991Z</time></trkpt><trkpt lat="43.3237733" lon="13.2147883"><ele>482.0</ele><time>2026-03-22T11:34:53.991Z</time></trkpt><trkpt lat="43.3236567" lon="13.2147967"><ele>482.0</ele><time>2026-03-22T11:34:55.991Z</time></trkpt><trkpt lat="43.323585" lon="13.2148183"><ele>482.00000000000006</ele><time>2026-03-22T11:34:56.992Z</time></trkpt><trkpt lat="43.3234967" lon="13.2148517"><ele>482.00000000000006</ele><time>2026-03-22T11:34:57.991Z</time></trkpt><trkpt lat="43.3234033" lon="13.2148883"><ele>482.0</ele><time>2026-03-22T11:34:58.991Z</time></trkpt><trkpt lat="43.3233067" lon="13.21492"><ele>482.0</ele><time>2026-03-22T11:34:59.992Z</time></trkpt><trkpt lat="43.32321" lon="13.2149583"><ele>484.40000000000003</ele><time>2026-03-22T11:35:00.991Z</time></trkpt><trkpt lat="43.3231133" lon="13.2149867"><ele>486.80000000000007</ele><time>2026-03-22T11:35:01.991Z</time></trkpt><trkpt lat="43.3230083" lon="13.21502"><ele>489.2</ele><time>2026-03-22T11:35:02.991Z</time></trkpt><trkpt lat="43.3229017" lon="13.2150583"><ele>491.6</ele><time>2026-03-22T11:35:03.991Z</time></trkpt><trkpt lat="43.3227933" lon="13.2150883"><ele>494.0</ele><time>2026-03-22T11:35:04.991Z</time></trkpt><trkpt lat="43.3226817" lon="13.2151067"><ele>494.75</ele><time>2026-03-22T11:35:05.991Z</time></trkpt><trkpt lat="43.3225667" lon="13.21512"><ele>495.5</ele><time>2026-03-22T11:35:06.992Z</time></trkpt><trkpt lat="43.3224567" lon="13.2151283"><ele>496.25</ele><time>2026-03-22T11:35:07.991Z</time></trkpt><trkpt lat="43.3223417" lon="13.2151367"><ele>497.0</ele><time>2026-03-22T11:35:08.991Z</time></trkpt><trkpt lat="43.3222167" lon="13.215145"><ele>498.0</ele><time>2026-03-22T11:35:09.991Z</time></trkpt><trkpt lat="43.32209" lon="13.2151583"><ele>499.0</ele><time>2026-03-22T11:35:10.992Z</time></trkpt><trkpt lat="43.3219733" lon="13.2151517"><ele>500.0</ele><time>2026-03-22T11:35:11.991Z</time></trkpt><trkpt lat="43.321855" lon="13.2151433"><ele>501.0</ele><time>2026-03-22T11:35:12.991Z</time></trkpt><trkpt lat="43.32174" lon="13.21513"><ele>501.0</ele><time>2026-03-22T11:35:13.991Z</time></trkpt><trkpt lat="43.3216317" lon="13.2151083"><ele>501.0</ele><time>2026-03-22T11:35:14.991Z</time></trkpt><trkpt lat="43.3215283" lon="13.2150867"><ele>501.0</ele><time>2026-03-22T11:35:15.991Z</time></trkpt><trkpt lat="43.32142" lon="13.2150467"><ele>501.0</ele><time>2026-03-22T11:35:16.991Z</time></trkpt><trkpt lat="43.3213217" lon="13.215"><ele>501.0</ele><time>2026-03-22T11:35:17.991Z</time></trkpt><trkpt lat="43.3212333" lon="13.2149667"><ele>502.20000000000005</ele><time>2026-03-22T11:35:18.991Z</time></trkpt><trkpt lat="43.3211383" lon="13.2149183"><ele>503.40000000000003</ele><time>2026-03-22T11:35:19.992Z</time></trkpt><trkpt lat="43.3210383" lon="13.2148633"><ele>504.6</ele><time>2026-03-22T11:35:20.991Z</time></trkpt><trkpt lat="43.320935" lon="13.21481"><ele>505.8</ele><time>2026-03-22T11:35:21.991Z</time></trkpt><trkpt lat="43.32083" lon="13.2147433"><ele>507.0</ele><time>2026-03-22T11:35:22.992Z</time></trkpt><trkpt lat="43.3207283" lon="13.2146717"><ele>506.0</ele><time>2026-03-22T11:35:23.991Z</time></trkpt><trkpt lat="43.3206233" lon="13.214605"><ele>505.00000000000006</ele><time>2026-03-22T11:35:24.991Z</time></trkpt><trkpt lat="43.3205317" lon="13.214545"><ele>504.00000000000006</ele><time>2026-03-22T11:35:25.991Z</time></trkpt><trkpt lat="43.3204533" lon="13.2144967"><ele>503.0</ele><time>2026-03-22T11:35:26.992Z</time></trkpt><trkpt lat="43.3203917" lon="13.2144467"><ele>502.0</ele><time>2026-03-22T11:35:27.991Z</time></trkpt><trkpt lat="43.320305" lon="13.2143667"><ele>502.00000000000006</ele><time>2026-03-22T11:35:29.991Z</time></trkpt><trkpt lat="43.3202317" lon="13.2144"><ele>502.0</ele><time>2026-03-22T11:35:31.991Z</time></trkpt><trkpt lat="43.3202233" lon="13.2145217"><ele>502.0</ele><time>2026-03-22T11:35:33.991Z</time></trkpt><trkpt lat="43.3202717" lon="13.2146867"><ele>502.0</ele><time>2026-03-22T11:35:35.992Z</time></trkpt><trkpt lat="43.3203017" lon="13.2147683"><ele>502.00000000000006</ele><time>2026-03-22T11:35:36.991Z</time></trkpt><trkpt lat="43.3203317" lon="13.2148567"><ele>502.0</ele><time>2026-03-22T11:35:37.991Z</time></trkpt><trkpt lat="43.320385" lon="13.2149917"><ele>503.0</ele><time>2026-03-22T11:35:39.991Z</time></trkpt><trkpt lat="43.320465" lon="13.2151133"><ele>504.00000000000006</ele><time>2026-03-22T11:35:41.991Z</time></trkpt><trkpt lat="43.320515" lon="13.2152"><ele>505.00000000000006</ele><time>2026-03-22T11:35:42.992Z</time></trkpt><trkpt lat="43.32057" lon="13.2152967"><ele>506.0</ele><time>2026-03-22T11:35:43.991Z</time></trkpt><trkpt lat="43.3206283" lon="13.2153983"><ele>507.0</ele><time>2026-03-22T11:35:44.992Z</time></trkpt><trkpt lat="43.3206867" lon="13.2155133"><ele>507.0</ele><time>2026-03-22T11:35:45.991Z</time></trkpt><trkpt lat="43.32075" lon="13.2156267"><ele>507.00000000000006</ele><time>2026-03-22T11:35:46.991Z</time></trkpt><trkpt lat="43.3208233" lon="13.21573"><ele>507.00000000000006</ele><time>2026-03-22T11:35:47.991Z</time></trkpt><trkpt lat="43.3209" lon="13.215825"><ele>507.0</ele><time>2026-03-22T11:35:48.992Z</time></trkpt><trkpt lat="43.3209833" lon="13.215915"><ele>507.0</ele><time>2026-03-22T11:35:49.991Z</time></trkpt><trkpt lat="43.3210667" lon="13.2160133"><ele>512.2</ele><time>2026-03-22T11:35:50.992Z</time></trkpt><trkpt lat="43.32115" lon="13.2161067"><ele>517.4000000000001</ele><time>2026-03-22T11:35:51.991Z</time></trkpt><trkpt lat="43.3212267" lon="13.21622"><ele>522.5999999999999</ele><time>2026-03-22T11:35:52.992Z</time></trkpt><trkpt lat="43.3213" lon="13.2163367"><ele>527.8</ele><time>2026-03-22T11:35:53.991Z</time></trkpt><trkpt lat="43.321375" lon="13.2164483"><ele>533.0</ele><time>2026-03-22T11:35:54.991Z</time></trkpt><trkpt lat="43.3214467" lon="13.2165483"><ele>536.0</ele><time>2026-03-22T11:35:55.991Z</time></trkpt><trkpt lat="43.32151" lon="13.2166417"><ele>539.0</ele><time>2026-03-22T11:35:56.991Z</time></trkpt><trkpt lat="43.3215717" lon="13.216725"><ele>542.0</ele><time>2026-03-22T11:35:57.991Z</time></trkpt><trkpt lat="43.3216233" lon="13.2167917"><ele>545.0</ele><time>2026-03-22T11:35:58.991Z</time></trkpt><trkpt lat="43.321705" lon="13.2168767"><ele>548.0</ele><time>2026-03-22T11:36:00.991Z</time></trkpt><trkpt lat="43.3217967" lon="13.2169667"><ele>548.0</ele><time>2026-03-22T11:36:02.991Z</time></trkpt><trkpt lat="43.3218533" lon="13.21704"><ele>548.0</ele><time>2026-03-22T11:36:03.992Z</time></trkpt><trkpt lat="43.3219217" lon="13.217125"><ele>548.0</ele><time>2026-03-22T11:36:04.991Z</time></trkpt><trkpt lat="43.3219967" lon="13.2172083"><ele>548.0</ele><time>2026-03-22T11:36:05.991Z</time></trkpt><trkpt lat="43.32207" lon="13.217305"><ele>548.0</ele><time>2026-03-22T11:36:06.991Z</time></trkpt><trkpt lat="43.3221433" lon="13.2173983"><ele>551.1999999999999</ele><time>2026-03-22T11:36:07.991Z</time></trkpt><trkpt lat="43.32221" lon="13.2175033"><ele>554.4</ele><time>2026-03-22T11:36:08.991Z</time></trkpt><trkpt lat="43.322265" lon="13.2176133"><ele>557.5999999999999</ele><time>2026-03-22T11:36:09.991Z</time></trkpt><trkpt lat="43.3223276" lon="13.217721"><ele>560.8</ele><time>2026-03-22T11:36:10.992Z</time></trkpt><trkpt lat="43.3223881" lon="13.2178261"><ele>564.0</ele><time>2026-03-22T11:36:11.992Z</time></trkpt><trkpt lat="43.3224456" lon="13.2179376"><ele>564.0</ele><time>2026-03-22T11:36:12.991Z</time></trkpt><trkpt lat="43.3224996" lon="13.2180553"><ele>564.0</ele><time>2026-03-22T11:36:13.991Z</time></trkpt><trkpt lat="43.3225631" lon="13.2181687"><ele>564.0</ele><time>2026-03-22T11:36:14.992Z</time></trkpt><trkpt lat="43.3226202" lon="13.2182818"><ele>564.0</ele><time>2026-03-22T11:36:15.991Z</time></trkpt><trkpt lat="43.3226652" lon="13.2184067"><ele>564.0</ele><time>2026-03-22T11:36:16.991Z</time></trkpt><trkpt lat="43.3227045" lon="13.2185466"><ele>569.0</ele><time>2026-03-22T11:36:17.991Z</time></trkpt><trkpt lat="43.3227325" lon="13.2186932"><ele>574.0</ele><time>2026-03-22T11:36:18.991Z</time></trkpt><trkpt lat="43.3227565" lon="13.218824"><ele>579.0</ele><time>2026-03-22T11:36:19.991Z</time></trkpt><trkpt lat="43.3227836" lon="13.2189476"><ele>584.0</ele><time>2026-03-22T11:36:20.991Z</time></trkpt><trkpt lat="43.3228193" lon="13.2190717"><ele>589.0</ele><time>2026-03-22T11:36:21.991Z</time></trkpt><trkpt lat="43.3228529" lon="13.2191992"><ele>593.8</ele><time>2026-03-22T11:36:22.991Z</time></trkpt><trkpt lat="43.3228736" lon="13.219329"><ele>598.5999999999999</ele><time>2026-03-22T11:36:23.991Z</time></trkpt><trkpt lat="43.3228928" lon="13.2194603"><ele>603.4</ele><time>2026-03-22T11:36:24.991Z</time></trkpt><trkpt lat="43.3229133" lon="13.2195967"><ele>608.1999999999999</ele><time>2026-03-22T11:36:25.991Z</time></trkpt><trkpt lat="43.322954" lon="13.2197303"><ele>613.0</ele><time>2026-03-22T11:36:26.991Z</time></trkpt><trkpt lat="43.3230089" lon="13.2198478"><ele>614.1999999999999</ele><time>2026-03-22T11:36:27.991Z</time></trkpt><trkpt lat="43.3230624" lon="13.2199539"><ele>615.4</ele><time>2026-03-22T11:36:28.991Z</time></trkpt><trkpt lat="43.3231044" lon="13.2200627"><ele>616.5999999999999</ele><time>2026-03-22T11:36:29.991Z</time></trkpt><trkpt lat="43.3231353" lon="13.2201838"><ele>617.8</ele><time>2026-03-22T11:36:30.991Z</time></trkpt><trkpt lat="43.3231562" lon="13.2203103"><ele>619.0</ele><time>2026-03-22T11:36:31.991Z</time></trkpt><trkpt lat="43.3231666" lon="13.220422"><ele>619.0</ele><time>2026-03-22T11:36:32.991Z</time></trkpt><trkpt lat="43.3231746" lon="13.2205182"><ele>619.0</ele><time>2026-03-22T11:36:33.991Z</time></trkpt><trkpt lat="43.3231893" lon="13.220681"><ele>619.0</ele><time>2026-03-22T11:36:35.992Z</time></trkpt><trkpt lat="43.3232129" lon="13.2208167"><ele>619.0</ele><time>2026-03-22T11:36:37.991Z</time></trkpt><trkpt lat="43.3232349" lon="13.2209368"><ele>619.0</ele><time>2026-03-22T11:36:39.991Z</time></trkpt><trkpt lat="43.3232407" lon="13.2210766"><ele>619.25</ele><time>2026-03-22T11:36:41.991Z</time></trkpt><trkpt lat="43.3232322" lon="13.2212296"><ele>619.5</ele><time>2026-03-22T11:36:43.992Z</time></trkpt><trkpt lat="43.3232044" lon="13.2213765"><ele>619.75</ele><time>2026-03-22T11:36:45.991Z</time></trkpt><trkpt lat="43.3231689" lon="13.2215181"><ele>620.0</ele><time>2026-03-22T11:36:47.991Z</time></trkpt><trkpt lat="43.3231077" lon="13.2216643"><ele>620.1428571428571</ele><time>2026-03-22T11:36:49.991Z</time></trkpt><trkpt lat="43.3230751" lon="13.2217522"><ele>620.2857142857142</ele><time>2026-03-22T11:36:50.991Z</time></trkpt><trkpt lat="43.3230443" lon="13.2218318"><ele>620.4285714285713</ele><time>2026-03-22T11:36:51.992Z</time></trkpt><trkpt lat="43.3230158" lon="13.221916"><ele>620.5714285714286</ele><time>2026-03-22T11:36:52.991Z</time></trkpt><trkpt lat="43.3229879" lon="13.2220142"><ele>620.7142857142857</ele><time>2026-03-22T11:36:53.991Z</time></trkpt><trkpt lat="43.3229613" lon="13.2221248"><ele>620.8571428571428</ele><time>2026-03-22T11:36:54.992Z</time></trkpt><trkpt lat="43.3229398" lon="13.2222316"><ele>621.0</ele><time>2026-03-22T11:36:55.992Z</time></trkpt><trkpt lat="43.3229249" lon="13.2223396"><ele>627.6666666666666</ele><time>2026-03-22T11:36:56.991Z</time></trkpt><trkpt lat="43.3229048" lon="13.2224504"><ele>634.3333333333334</ele><time>2026-03-22T11:36:57.991Z</time></trkpt><trkpt lat="43.3228822" lon="13.2225587"><ele>641.0</ele><time>2026-03-22T11:36:58.992Z</time></trkpt><trkpt lat="43.3228681" lon="13.222666"><ele>647.6666666666667</ele><time>2026-03-22T11:36:59.992Z</time></trkpt><trkpt lat="43.3228632" lon="13.2227743"><ele>654.3333333333334</ele><time>2026-03-22T11:37:00.992Z</time></trkpt><trkpt lat="43.3228695" lon="13.2228773"><ele>661.0</ele><time>2026-03-22T11:37:01.991Z</time></trkpt><trkpt lat="43.322881" lon="13.2229655"><ele>661.0</ele><time>2026-03-22T11:37:02.991Z</time></trkpt><trkpt lat="43.3229064" lon="13.2230875"><ele>661.0</ele><time>2026-03-22T11:37:04.992Z</time></trkpt><trkpt lat="43.3229009" lon="13.2231879"><ele>661.0</ele><time>2026-03-22T11:37:06.991Z</time></trkpt><trkpt lat="43.3228606" lon="13.2232746"><ele>661.0</ele><time>2026-03-22T11:37:08.991Z</time></trkpt><trkpt lat="43.3227945" lon="13.2233438"><ele>661.0</ele><time>2026-03-22T11:37:10.991Z</time></trkpt><trkpt lat="43.3227013" lon="13.223381"><ele>661.0</ele><time>2026-03-22T11:37:12.991Z</time></trkpt><trkpt lat="43.3226148" lon="13.2234126"><ele>664.0</ele><time>2026-03-22T11:37:14.991Z</time></trkpt><trkpt lat="43.3225203" lon="13.2234874"><ele>667.0</ele><time>2026-03-22T11:37:16.991Z</time></trkpt><trkpt lat="43.3224227" lon="13.2235976"><ele>670.0</ele><time>2026-03-22T11:37:18.991Z</time></trkpt><trkpt lat="43.3223511" lon="13.2237023"><ele>673.0</ele><time>2026-03-22T11:37:20.991Z</time></trkpt><trkpt lat="43.3223752" lon="13.223813"><ele>676.0</ele><time>2026-03-22T11:37:23.992Z</time></trkpt><trkpt lat="43.3224221" lon="13.2238903"><ele>676.0</ele><time>2026-03-22T11:37:25.991Z</time></trkpt><trkpt lat="43.3224627" lon="13.2239615"><ele>676.0</ele><time>2026-03-22T11:37:27.991Z</time></trkpt><trkpt lat="43.3225022" lon="13.2240335"><ele>676.0</ele><time>2026-03-22T11:37:29.991Z</time></trkpt><trkpt lat="43.3225506" lon="13.2241276"><ele>676.0</ele><time>2026-03-22T11:37:32.991Z</time></trkpt><trkpt lat="43.3225883" lon="13.2242227"><ele>676.0</ele><time>2026-03-22T11:37:35.992Z</time></trkpt><trkpt lat="43.3226299" lon="13.2243053"><ele>676.0</ele><time>2026-03-22T11:37:37.991Z</time></trkpt><trkpt lat="43.3226728" lon="13.2244207"><ele>678.0</ele><time>2026-03-22T11:37:39.992Z</time></trkpt><trkpt lat="43.3227011" lon="13.2245865"><ele>680.0</ele><time>2026-03-22T11:37:41.991Z</time></trkpt><trkpt lat="43.322715" lon="13.2246905"><ele>682.0</ele><time>2026-03-22T11:37:42.991Z</time></trkpt><trkpt lat="43.3227309" lon="13.2247995"><ele>684.0</ele><time>2026-03-22T11:37:43.991Z</time></trkpt><trkpt lat="43.3227434" lon="13.2249135"><ele>686.0</ele><time>2026-03-22T11:37:44.991Z</time></trkpt><trkpt lat="43.3227574" lon="13.2250311"><ele>689.5999999999999</ele><time>2026-03-22T11:37:45.991Z</time></trkpt><trkpt lat="43.3227686" lon="13.2251532"><ele>693.2</ele><time>2026-03-22T11:37:46.991Z</time></trkpt><trkpt lat="43.3227713" lon="13.2252883"><ele>696.8</ele><time>2026-03-22T11:37:47.991Z</time></trkpt><trkpt lat="43.3227578" lon="13.22543"><ele>700.4000000000001</ele><time>2026-03-22T11:37:48.991Z</time></trkpt><trkpt lat="43.3227457" lon="13.2255758"><ele>704.0</ele><time>2026-03-22T11:37:49.991Z</time></trkpt><trkpt lat="43.3227386" lon="13.2257219"><ele>706.8000000000001</ele><time>2026-03-22T11:37:50.991Z</time></trkpt><trkpt lat="43.3227333" lon="13.22588"><ele>709.6</ele><time>2026-03-22T11:37:51.991Z</time></trkpt><trkpt lat="43.3227183" lon="13.226025"><ele>712.4</ele><time>2026-03-22T11:37:52.991Z</time></trkpt><trkpt lat="43.3226967" lon="13.2261667"><ele>715.2</ele><time>2026-03-22T11:37:53.992Z</time></trkpt><trkpt lat="43.3226867" lon="13.2263133"><ele>718.0</ele><time>2026-03-22T11:37:54.991Z</time></trkpt><trkpt lat="43.3226867" lon="13.22647"><ele>720.0</ele><time>2026-03-22T11:37:55.992Z</time></trkpt><trkpt lat="43.322685" lon="13.2266217"><ele>722.0</ele><time>2026-03-22T11:37:56.991Z</time></trkpt><trkpt lat="43.3226817" lon="13.2267717"><ele>724.0</ele><time>2026-03-22T11:37:57.991Z</time></trkpt><trkpt lat="43.32268" lon="13.22691"><ele>726.0</ele><time>2026-03-22T11:37:58.991Z</time></trkpt><trkpt lat="43.322665" lon="13.227035"><ele>728.0</ele><time>2026-03-22T11:37:59.992Z</time></trkpt><trkpt lat="43.3226533" lon="13.2271417"><ele>728.0</ele><time>2026-03-22T11:38:00.992Z</time></trkpt><trkpt lat="43.322625" lon="13.2272433"><ele>728.0</ele><time>2026-03-22T11:38:01.992Z</time></trkpt><trkpt lat="43.322585" lon="13.227335"><ele>728.0</ele><time>2026-03-22T11:38:02.991Z</time></trkpt><trkpt lat="43.3225383" lon="13.2274217"><ele>728.0</ele><time>2026-03-22T11:38:03.991Z</time></trkpt><trkpt lat="43.3224917" lon="13.2274867"><ele>728.0</ele><time>2026-03-22T11:38:04.992Z</time></trkpt><trkpt lat="43.32238" lon="13.2275483"><ele>728.0</ele><time>2026-03-22T11:38:06.991Z</time></trkpt><trkpt lat="43.3222867" lon="13.2275983"><ele>734.4</ele><time>2026-03-22T11:38:08.991Z</time></trkpt><trkpt lat="43.3221983" lon="13.2276117"><ele>740.8</ele><time>2026-03-22T11:38:10.991Z</time></trkpt><trkpt lat="43.3220783" lon="13.2276"><ele>747.2</ele><time>2026-03-22T11:38:12.992Z</time></trkpt><trkpt lat="43.3220133" lon="13.2275917"><ele>753.6</ele><time>2026-03-22T11:38:13.991Z</time></trkpt><trkpt lat="43.32194" lon="13.227575"><ele>760.0</ele><time>2026-03-22T11:38:14.992Z</time></trkpt><trkpt lat="43.3218133" lon="13.2275817"><ele>760.0</ele><time>2026-03-22T11:38:16.992Z</time></trkpt><trkpt lat="43.3217467" lon="13.2276"><ele>760.0</ele><time>2026-03-22T11:38:17.991Z</time></trkpt><trkpt lat="43.3216767" lon="13.2276267"><ele>760.0</ele><time>2026-03-22T11:38:18.991Z</time></trkpt><trkpt lat="43.3216167" lon="13.22766"><ele>760.0</ele><time>2026-03-22T11:38:19.991Z</time></trkpt><trkpt lat="43.3215233" lon="13.2277267"><ele>760.0</ele><time>2026-03-22T11:38:21.992Z</time></trkpt><trkpt lat="43.3214217" lon="13.2278117"><ele>760.0</ele><time>2026-03-22T11:38:23.992Z</time></trkpt><trkpt lat="43.3213467" lon="13.2278467"><ele>761.6</ele><time>2026-03-22T11:38:24.991Z</time></trkpt><trkpt lat="43.3212517" lon="13.22788"><ele>763.2</ele><time>2026-03-22T11:38:25.991Z</time></trkpt><trkpt lat="43.3211617" lon="13.2279183"><ele>764.8</ele><time>2026-03-22T11:38:26.991Z</time></trkpt><trkpt lat="43.32106" lon="13.227975"><ele>766.4</ele><time>2026-03-22T11:38:27.991Z</time></trkpt><trkpt lat="43.3209617" lon="13.228035"><ele>768.0</ele><time>2026-03-22T11:38:28.991Z</time></trkpt><trkpt lat="43.320865" lon="13.2280817"><ele>768.0</ele><time>2026-03-22T11:38:29.991Z</time></trkpt><trkpt lat="43.3207733" lon="13.22812"><ele>768.0</ele><time>2026-03-22T11:38:30.991Z</time></trkpt><trkpt lat="43.32069" lon="13.22816"><ele>768.0</ele><time>2026-03-22T11:38:31.992Z</time></trkpt><trkpt lat="43.320605" lon="13.2281983"><ele>768.0</ele><time>2026-03-22T11:38:32.991Z</time></trkpt><trkpt lat="43.3205167" lon="13.2282367"><ele>768.0</ele><time>2026-03-22T11:38:33.991Z</time></trkpt><trkpt lat="43.3204267" lon="13.2282767"><ele>768.1666666666666</ele><time>2026-03-22T11:38:34.992Z</time></trkpt><trkpt lat="43.3203333" lon="13.22832"><ele>768.3333333333333</ele><time>2026-03-22T11:38:35.991Z</time></trkpt><trkpt lat="43.3202517" lon="13.228355"><ele>768.5</ele><time>2026-03-22T11:38:36.991Z</time></trkpt><trkpt lat="43.3201783" lon="13.2283867"><ele>768.6666666666666</ele><time>2026-03-22T11:38:37.991Z</time></trkpt><trkpt lat="43.320105" lon="13.2284133"><ele>768.8333333333333</ele><time>2026-03-22T11:38:38.991Z</time></trkpt><trkpt lat="43.3200383" lon="13.22844"><ele>769.0</ele><time>2026-03-22T11:38:39.991Z</time></trkpt><trkpt lat="43.3199583" lon="13.22847"><ele>768.9999999999999</ele><time>2026-03-22T11:38:40.991Z</time></trkpt><trkpt lat="43.3198883" lon="13.2284883"><ele>769.0</ele><time>2026-03-22T11:38:41.992Z</time></trkpt><trkpt lat="43.3197633" lon="13.22849"><ele>769.0</ele><time>2026-03-22T11:38:43.992Z</time></trkpt><trkpt lat="43.3196983" lon="13.2284717"><ele>769.0</ele><time>2026-03-22T11:38:44.992Z</time></trkpt><trkpt lat="43.31963" lon="13.22845"><ele>768.9999999999999</ele><time>2026-03-22T11:38:45.991Z</time></trkpt><trkpt lat="43.3195583" lon="13.22843"><ele>769.0</ele><time>2026-03-22T11:38:46.991Z</time></trkpt><trkpt lat="43.3194867" lon="13.2283967"><ele>770.6666666666666</ele><time>2026-03-22T11:38:47.991Z</time></trkpt><trkpt lat="43.3194083" lon="13.2283533"><ele>772.3333333333333</ele><time>2026-03-22T11:38:48.992Z</time></trkpt><trkpt lat="43.3193333" lon="13.2283133"><ele>774.0</ele><time>2026-03-22T11:38:49.991Z</time></trkpt><trkpt lat="43.3192617" lon="13.2282617"><ele>775.6666666666667</ele><time>2026-03-22T11:38:50.991Z</time></trkpt><trkpt lat="43.319195" lon="13.22822"><ele>777.3333333333334</ele><time>2026-03-22T11:38:51.991Z</time></trkpt><trkpt lat="43.3191267" lon="13.2281767"><ele>779.0</ele><time>2026-03-22T11:38:52.991Z</time></trkpt><trkpt lat="43.31906" lon="13.2281267"><ele>779.8333333333334</ele><time>2026-03-22T11:38:53.991Z</time></trkpt><trkpt lat="43.31899" lon="13.22808"><ele>780.6666666666667</ele><time>2026-03-22T11:38:54.992Z</time></trkpt><trkpt lat="43.3189117" lon="13.2280233"><ele>781.5</ele><time>2026-03-22T11:38:55.992Z</time></trkpt><trkpt lat="43.318835" lon="13.22797"><ele>782.3333333333333</ele><time>2026-03-22T11:38:56.991Z</time></trkpt><trkpt lat="43.3187533" lon="13.2279167"><ele>783.1666666666666</ele><time>2026-03-22T11:38:57.992Z</time></trkpt><trkpt lat="43.3186683" lon="13.2278583"><ele>784.0</ele><time>2026-03-22T11:38:58.992Z</time></trkpt><trkpt lat="43.31859" lon="13.2278017"><ele>784.8333333333333</ele><time>2026-03-22T11:38:59.992Z</time></trkpt><trkpt lat="43.3185183" lon="13.22775"><ele>785.6666666666666</ele><time>2026-03-22T11:39:00.991Z</time></trkpt><trkpt lat="43.3184417" lon="13.2277067"><ele>786.5</ele><time>2026-03-22T11:39:01.991Z</time></trkpt><trkpt lat="43.3183617" lon="13.22765"><ele>787.3333333333333</ele><time>2026-03-22T11:39:02.992Z</time></trkpt><trkpt lat="43.3182817" lon="13.2275883"><ele>788.1666666666666</ele><time>2026-03-22T11:39:03.992Z</time></trkpt><trkpt lat="43.3182067" lon="13.2275067"><ele>789.0</ele><time>2026-03-22T11:39:04.991Z</time></trkpt><trkpt lat="43.3181283" lon="13.2274167"><ele>789.4000000000001</ele><time>2026-03-22T11:39:05.991Z</time></trkpt><trkpt lat="43.3180533" lon="13.227325"><ele>789.8</ele><time>2026-03-22T11:39:06.991Z</time></trkpt><trkpt lat="43.3179767" lon="13.227235"><ele>790.2</ele><time>2026-03-22T11:39:07.992Z</time></trkpt><trkpt lat="43.3179017" lon="13.2271483"><ele>790.5999999999999</ele><time>2026-03-22T11:39:08.991Z</time></trkpt><trkpt lat="43.31782" lon="13.22706"><ele>791.0</ele><time>2026-03-22T11:39:09.991Z</time></trkpt><trkpt lat="43.3177367" lon="13.2269667"><ele>791.0</ele><time>2026-03-22T11:39:10.991Z</time></trkpt><trkpt lat="43.3176467" lon="13.2268633"><ele>791.0</ele><time>2026-03-22T11:39:11.991Z</time></trkpt><trkpt lat="43.31756" lon="13.2267417"><ele>791.0</ele><time>2026-03-22T11:39:12.991Z</time></trkpt><trkpt lat="43.31748" lon="13.2266183"><ele>791.0</ele><time>2026-03-22T11:39:13.992Z</time></trkpt><trkpt lat="43.3174067" lon="13.2265017"><ele>790.0</ele><time>2026-03-22T11:39:14.991Z</time></trkpt><trkpt lat="43.3173283" lon="13.226395"><ele>789.0</ele><time>2026-03-22T11:39:15.991Z</time></trkpt><trkpt lat="43.3172533" lon="13.2262867"><ele>788.0</ele><time>2026-03-22T11:39:16.991Z</time></trkpt><trkpt lat="43.31718" lon="13.2261867"><ele>787.0</ele><time>2026-03-22T11:39:17.991Z</time></trkpt><trkpt lat="43.3171117" lon="13.2260717"><ele>786.0</ele><time>2026-03-22T11:39:18.991Z</time></trkpt><trkpt lat="43.31704" lon="13.22596"><ele>786.0</ele><time>2026-03-22T11:39:19.992Z</time></trkpt><trkpt lat="43.3169633" lon="13.225845"><ele>786.0</ele><time>2026-03-22T11:39:20.992Z</time></trkpt><trkpt lat="43.3168817" lon="13.22573"><ele>786.0</ele><time>2026-03-22T11:39:21.991Z</time></trkpt><trkpt lat="43.316805" lon="13.2256133"><ele>786.0</ele><time>2026-03-22T11:39:22.991Z</time></trkpt><trkpt lat="43.3167183" lon="13.22549"><ele>788.0</ele><time>2026-03-22T11:39:23.991Z</time></trkpt><trkpt lat="43.3166283" lon="13.2253733"><ele>790.0</ele><time>2026-03-22T11:39:24.992Z</time></trkpt><trkpt lat="43.31654" lon="13.22526"><ele>792.0</ele><time>2026-03-22T11:39:25.991Z</time></trkpt><trkpt lat="43.316455" lon="13.2251517"><ele>794.0</ele><time>2026-03-22T11:39:26.991Z</time></trkpt><trkpt lat="43.3163717" lon="13.2250467"><ele>792.0</ele><time>2026-03-22T11:39:27.991Z</time></trkpt><trkpt lat="43.3162967" lon="13.2249433"><ele>790.0</ele><time>2026-03-22T11:39:28.991Z</time></trkpt><trkpt lat="43.316225" lon="13.224845"><ele>788.0</ele><time>2026-03-22T11:39:29.992Z</time></trkpt><trkpt lat="43.3161583" lon="13.2247483"><ele>786.0</ele><time>2026-03-22T11:39:30.991Z</time></trkpt><trkpt lat="43.316095" lon="13.2246517"><ele>784.0</ele><time>2026-03-22T11:39:31.992Z</time></trkpt><trkpt lat="43.316035" lon="13.2245517"><ele>784.0</ele><time>2026-03-22T11:39:32.992Z</time></trkpt><trkpt lat="43.3159733" lon="13.2244533"><ele>784.0</ele><time>2026-03-22T11:39:33.991Z</time></trkpt><trkpt lat="43.315915" lon="13.2243567"><ele>784.0</ele><time>2026-03-22T11:39:34.991Z</time></trkpt><trkpt lat="43.3158567" lon="13.2242683"><ele>784.0</ele><time>2026-03-22T11:39:35.991Z</time></trkpt><trkpt lat="43.3157883" lon="13.2241883"><ele>784.0</ele><time>2026-03-22T11:39:36.991Z</time></trkpt><trkpt lat="43.3157067" lon="13.2241033"><ele>784.0</ele><time>2026-03-22T11:39:37.992Z</time></trkpt><trkpt lat="43.3156167" lon="13.22402"><ele>784.0</ele><time>2026-03-22T11:39:38.992Z</time></trkpt><trkpt lat="43.3155083" lon="13.2239417"><ele>784.0</ele><time>2026-03-22T11:39:39.991Z</time></trkpt><trkpt lat="43.3154033" lon="13.2238683"><ele>784.0</ele><time>2026-03-22T11:39:40.991Z</time></trkpt><trkpt lat="43.3153117" lon="13.2238033"><ele>783.0</ele><time>2026-03-22T11:39:41.991Z</time></trkpt><trkpt lat="43.3152317" lon="13.2237417"><ele>782.0</ele><time>2026-03-22T11:39:42.992Z</time></trkpt><trkpt lat="43.31516" lon="13.2236717"><ele>781.0</ele><time>2026-03-22T11:39:43.992Z</time></trkpt><trkpt lat="43.3151017" lon="13.22361"><ele>780.0</ele><time>2026-03-22T11:39:44.991Z</time></trkpt><trkpt lat="43.31502" lon="13.2234983"><ele>779.0</ele><time>2026-03-22T11:39:46.991Z</time></trkpt><trkpt lat="43.31492" lon="13.2233967"><ele>779.0</ele><time>2026-03-22T11:39:48.991Z</time></trkpt><trkpt lat="43.31486" lon="13.2233433"><ele>779.0</ele><time>2026-03-22T11:39:49.991Z</time></trkpt><trkpt lat="43.3147733" lon="13.2232533"><ele>779.0</ele><time>2026-03-22T11:39:51.991Z</time></trkpt><trkpt lat="43.314715" lon="13.2231783"><ele>779.0</ele><time>2026-03-22T11:39:53.991Z</time></trkpt><trkpt lat="43.3146117" lon="13.22307"><ele>779.0</ele><time>2026-03-22T11:39:55.991Z</time></trkpt><trkpt lat="43.3145467" lon="13.223015"><ele>778.4000000000001</ele><time>2026-03-22T11:39:56.991Z</time></trkpt><trkpt lat="43.314475" lon="13.2229433"><ele>777.8</ele><time>2026-03-22T11:39:57.991Z</time></trkpt><trkpt lat="43.3144" lon="13.2228617"><ele>777.2</ele><time>2026-03-22T11:39:58.991Z</time></trkpt><trkpt lat="43.31432" lon="13.2227733"><ele>776.5999999999999</ele><time>2026-03-22T11:39:59.992Z</time></trkpt><trkpt lat="43.3142383" lon="13.2226833"><ele>776.0</ele><time>2026-03-22T11:40:00.992Z</time></trkpt><trkpt lat="43.3141567" lon="13.222595"><ele>776.0000000000001</ele><time>2026-03-22T11:40:01.992Z</time></trkpt><trkpt lat="43.314085" lon="13.2225217"><ele>776.0</ele><time>2026-03-22T11:40:02.991Z</time></trkpt><trkpt lat="43.3140217" lon="13.2224633"><ele>776.0</ele><time>2026-03-22T11:40:03.991Z</time></trkpt><trkpt lat="43.3139617" lon="13.2224"><ele>776.0</ele><time>2026-03-22T11:40:05.991Z</time></trkpt><trkpt lat="43.3139" lon="13.2223383"><ele>776.0000000000001</ele><time>2026-03-22T11:40:07.991Z</time></trkpt><trkpt lat="43.3138083" lon="13.2222283"><ele>776.0</ele><time>2026-03-22T11:40:09.991Z</time></trkpt><trkpt lat="43.31376" lon="13.222155"><ele>775.8333333333334</ele><time>2026-03-22T11:40:10.992Z</time></trkpt><trkpt lat="43.3137083" lon="13.2220667"><ele>775.6666666666667</ele><time>2026-03-22T11:40:11.991Z</time></trkpt><trkpt lat="43.313655" lon="13.2219683"><ele>775.5</ele><time>2026-03-22T11:40:12.991Z</time></trkpt><trkpt lat="43.3135933" lon="13.2218817"><ele>775.3333333333333</ele><time>2026-03-22T11:40:13.992Z</time></trkpt><trkpt lat="43.3135267" lon="13.2218083"><ele>775.1666666666666</ele><time>2026-03-22T11:40:14.991Z</time></trkpt><trkpt lat="43.313455" lon="13.2217483"><ele>775.0</ele><time>2026-03-22T11:40:15.991Z</time></trkpt><trkpt lat="43.3133767" lon="13.221705"><ele>774.9999999999999</ele><time>2026-03-22T11:40:16.991Z</time></trkpt><trkpt lat="43.3133067" lon="13.221675"><ele>775.0</ele><time>2026-03-22T11:40:17.991Z</time></trkpt><trkpt lat="43.3131833" lon="13.22166"><ele>775.0</ele><time>2026-03-22T11:40:19.991Z</time></trkpt><trkpt lat="43.313115" lon="13.2216683"><ele>775.0</ele><time>2026-03-22T11:40:20.992Z</time></trkpt><trkpt lat="43.3130167" lon="13.2216617"><ele>774.9999999999999</ele><time>2026-03-22T11:40:22.991Z</time></trkpt><trkpt lat="43.312945" lon="13.221655"><ele>775.0</ele><time>2026-03-22T11:40:26.991Z</time></trkpt><trkpt lat="43.3128583" lon="13.2216583"><ele>777.0</ele><time>2026-03-22T11:40:30.992Z</time></trkpt><trkpt lat="43.3127083" lon="13.2217067"><ele>779.0</ele><time>2026-03-22T11:40:32.991Z</time></trkpt><trkpt lat="43.31259" lon="13.2217333"><ele>781.0</ele><time>2026-03-22T11:40:33.992Z</time></trkpt><trkpt lat="43.3124667" lon="13.2217617"><ele>783.0</ele><time>2026-03-22T11:40:34.991Z</time></trkpt><trkpt lat="43.3123533" lon="13.2217817"><ele>783.0</ele><time>2026-03-22T11:40:35.991Z</time></trkpt><trkpt lat="43.31224" lon="13.2217917"><ele>783.0</ele><time>2026-03-22T11:40:36.991Z</time></trkpt><trkpt lat="43.3121417" lon="13.2218033"><ele>783.0</ele><time>2026-03-22T11:40:37.991Z</time></trkpt><trkpt lat="43.31206" lon="13.221815"><ele>783.0</ele><time>2026-03-22T11:40:38.991Z</time></trkpt><trkpt lat="43.3119967" lon="13.2218267"><ele>783.0</ele><time>2026-03-22T11:40:39.992Z</time></trkpt><trkpt lat="43.3118967" lon="13.22185"><ele>786.0</ele><time>2026-03-22T11:40:41.992Z</time></trkpt><trkpt lat="43.3117917" lon="13.2218733"><ele>789.0</ele><time>2026-03-22T11:40:43.991Z</time></trkpt><trkpt lat="43.31171" lon="13.221895"><ele>792.0</ele><time>2026-03-22T11:40:45.991Z</time></trkpt><trkpt lat="43.31164" lon="13.2219033"><ele>795.0</ele><time>2026-03-22T11:40:47.991Z</time></trkpt><trkpt lat="43.311555" lon="13.2219067"><ele>798.0</ele><time>2026-03-22T11:40:49.991Z</time></trkpt><trkpt lat="43.3114733" lon="13.2219183"><ele>801.0</ele><time>2026-03-22T11:40:51.992Z</time></trkpt><trkpt lat="43.31141" lon="13.2219283"><ele>800.6666666666666</ele><time>2026-03-22T11:40:54.991Z</time></trkpt><trkpt lat="43.3113433" lon="13.2219867"><ele>800.3333333333333</ele><time>2026-03-22T11:41:24.992Z</time></trkpt><trkpt lat="43.3112683" lon="13.22209"><ele>800.0</ele><time>2026-03-22T11:41:26.992Z</time></trkpt><trkpt lat="43.3112117" lon="13.2221383"><ele>799.6666666666666</ele><time>2026-03-22T11:41:27.993Z</time></trkpt><trkpt lat="43.3111533" lon="13.2221967"><ele>799.3333333333333</ele><time>2026-03-22T11:41:28.992Z</time></trkpt><trkpt lat="43.3111067" lon="13.2222617"><ele>799.0</ele><time>2026-03-22T11:41:29.992Z</time></trkpt><trkpt lat="43.31107" lon="13.2223367"><ele>798.0</ele><time>2026-03-22T11:41:30.992Z</time></trkpt><trkpt lat="43.311035" lon="13.2225017"><ele>797.0</ele><time>2026-03-22T11:41:32.993Z</time></trkpt><trkpt lat="43.3110367" lon="13.2225967"><ele>796.0</ele><time>2026-03-22T11:41:33.993Z</time></trkpt><trkpt lat="43.3110367" lon="13.2226833"><ele>795.0</ele><time>2026-03-22T11:41:34.993Z</time></trkpt><trkpt lat="43.311015" lon="13.2228483"><ele>794.0</ele><time>2026-03-22T11:41:36.992Z</time></trkpt><trkpt lat="43.3109983" lon="13.223005"><ele>792.4000000000001</ele><time>2026-03-22T11:41:38.992Z</time></trkpt><trkpt lat="43.3109817" lon="13.2231517"><ele>790.8</ele><time>2026-03-22T11:41:40.992Z</time></trkpt><trkpt lat="43.310905" lon="13.2232917"><ele>789.2</ele><time>2026-03-22T11:41:42.992Z</time></trkpt><trkpt lat="43.31087" lon="13.2233783"><ele>787.5999999999999</ele><time>2026-03-22T11:41:43.993Z</time></trkpt><trkpt lat="43.310825" lon="13.2234583"><ele>786.0</ele><time>2026-03-22T11:41:44.993Z</time></trkpt><trkpt lat="43.310775" lon="13.22354"><ele>786.0</ele><time>2026-03-22T11:41:45.992Z</time></trkpt><trkpt lat="43.3107217" lon="13.2236233"><ele>786.0</ele><time>2026-03-22T11:41:46.992Z</time></trkpt><trkpt lat="43.3106583" lon="13.223705"><ele>786.0</ele><time>2026-03-22T11:41:47.992Z</time></trkpt><trkpt lat="43.3105983" lon="13.2237867"><ele>786.0</ele><time>2026-03-22T11:41:48.992Z</time></trkpt><trkpt lat="43.3105467" lon="13.2238833"><ele>786.0</ele><time>2026-03-22T11:41:49.992Z</time></trkpt><trkpt lat="43.3105067" lon="13.2239883"><ele>786.0</ele><time>2026-03-22T11:41:50.992Z</time></trkpt><trkpt lat="43.3104767" lon="13.2240967"><ele>784.0</ele><time>2026-03-22T11:41:51.993Z</time></trkpt><trkpt lat="43.3104567" lon="13.224195"><ele>782.0</ele><time>2026-03-22T11:41:52.992Z</time></trkpt><trkpt lat="43.3104133" lon="13.2243383"><ele>780.0</ele><time>2026-03-22T11:41:54.992Z</time></trkpt><trkpt lat="43.31046" lon="13.2244467"><ele>778.0</ele><time>2026-03-22T11:41:57.993Z</time></trkpt><trkpt lat="43.310515" lon="13.224495"><ele>776.0</ele><time>2026-03-22T11:41:59.992Z</time></trkpt><trkpt lat="43.3105783" lon="13.2245517"><ele>774.0</ele><time>2026-03-22T11:42:01.992Z</time></trkpt><trkpt lat="43.310685" lon="13.224585"><ele>774.0</ele><time>2026-03-22T11:42:03.992Z</time></trkpt><trkpt lat="43.3107517" lon="13.2245917"><ele>774.0</ele><time>2026-03-22T11:42:04.992Z</time></trkpt><trkpt lat="43.3108233" lon="13.2245967"><ele>774.0</ele><time>2026-03-22T11:42:05.992Z</time></trkpt><trkpt lat="43.3108983" lon="13.2246017"><ele>774.0</ele><time>2026-03-22T11:42:06.993Z</time></trkpt><trkpt lat="43.3109883" lon="13.2246133"><ele>774.0</ele><time>2026-03-22T11:42:07.992Z</time></trkpt><trkpt lat="43.31108" lon="13.224625"><ele>774.0</ele><time>2026-03-22T11:42:08.992Z</time></trkpt><trkpt lat="43.3111817" lon="13.2246317"><ele>774.0</ele><time>2026-03-22T11:42:09.992Z</time></trkpt><trkpt lat="43.3112867" lon="13.22464"><ele>774.0</ele><time>2026-03-22T11:42:10.993Z</time></trkpt><trkpt lat="43.311395" lon="13.2246533"><ele>774.0</ele><time>2026-03-22T11:42:11.993Z</time></trkpt><trkpt lat="43.3115033" lon="13.2246683"><ele>774.0</ele><time>2026-03-22T11:42:12.992Z</time></trkpt><trkpt lat="43.3116233" lon="13.22468"><ele>774.0</ele><time>2026-03-22T11:42:13.993Z</time></trkpt><trkpt lat="43.3117433" lon="13.22469"><ele>774.25</ele><time>2026-03-22T11:42:14.993Z</time></trkpt><trkpt lat="43.3118683" lon="13.2246983"><ele>774.5</ele><time>2026-03-22T11:42:15.992Z</time></trkpt><trkpt lat="43.3119933" lon="13.2246933"><ele>774.75</ele><time>2026-03-22T11:42:16.992Z</time></trkpt><trkpt lat="43.3121117" lon="13.2246817"><ele>775.0</ele><time>2026-03-22T11:42:17.992Z</time></trkpt><trkpt lat="43.3122383" lon="13.22464"><ele>772.25</ele><time>2026-03-22T11:42:18.993Z</time></trkpt><trkpt lat="43.312365" lon="13.2245917"><ele>769.5</ele><time>2026-03-22T11:42:19.992Z</time></trkpt><trkpt lat="43.3124817" lon="13.2245283"><ele>766.75</ele><time>2026-03-22T11:42:20.993Z</time></trkpt><trkpt lat="43.312595" lon="13.22447"><ele>764.0</ele><time>2026-03-22T11:42:21.993Z</time></trkpt><trkpt lat="43.31271" lon="13.2244167"><ele>764.0</ele><time>2026-03-22T11:42:22.992Z</time></trkpt><trkpt lat="43.3128233" lon="13.2243817"><ele>764.0</ele><time>2026-03-22T11:42:23.992Z</time></trkpt><trkpt lat="43.3129383" lon="13.2243583"><ele>764.0</ele><time>2026-03-22T11:42:24.992Z</time></trkpt><trkpt lat="43.313055" lon="13.2243617"><ele>764.0</ele><time>2026-03-22T11:42:25.992Z</time></trkpt><trkpt lat="43.3131733" lon="13.2243917"><ele>761.5</ele><time>2026-03-22T11:42:26.992Z</time></trkpt><trkpt lat="43.3132833" lon="13.224445"><ele>759.0</ele><time>2026-03-22T11:42:27.992Z</time></trkpt><trkpt lat="43.3133833" lon="13.2245233"><ele>756.5</ele><time>2026-03-22T11:42:28.992Z</time></trkpt><trkpt lat="43.31347" lon="13.22462"><ele>754.0</ele><time>2026-03-22T11:42:29.992Z</time></trkpt><trkpt lat="43.313545" lon="13.22475"><ele>751.0</ele><time>2026-03-22T11:42:30.993Z</time></trkpt><trkpt lat="43.31362" lon="13.224895"><ele>748.0</ele><time>2026-03-22T11:42:31.992Z</time></trkpt><trkpt lat="43.3137" lon="13.225045"><ele>745.0</ele><time>2026-03-22T11:42:32.992Z</time></trkpt><trkpt lat="43.3137783" lon="13.2251967"><ele>742.0</ele><time>2026-03-22T11:42:33.993Z</time></trkpt><trkpt lat="43.31386" lon="13.225345"><ele>742.75</ele><time>2026-03-22T11:42:34.992Z</time></trkpt><trkpt lat="43.3139417" lon="13.2255033"><ele>743.5</ele><time>2026-03-22T11:42:35.992Z</time></trkpt><trkpt lat="43.3140183" lon="13.225665"><ele>744.25</ele><time>2026-03-22T11:42:36.992Z</time></trkpt><trkpt lat="43.3140933" lon="13.22583"><ele>745.0</ele><time>2026-03-22T11:42:37.992Z</time></trkpt><trkpt lat="43.31416" lon="13.2259917"><ele>741.5</ele><time>2026-03-22T11:42:38.992Z</time></trkpt><trkpt lat="43.3142167" lon="13.22616"><ele>738.0</ele><time>2026-03-22T11:42:39.992Z</time></trkpt><trkpt lat="43.3142717" lon="13.2263333"><ele>734.5</ele><time>2026-03-22T11:42:40.992Z</time></trkpt><trkpt lat="43.3143267" lon="13.2265"><ele>731.0</ele><time>2026-03-22T11:42:41.993Z</time></trkpt><trkpt lat="43.3143833" lon="13.22667"><ele>727.0</ele><time>2026-03-22T11:42:42.993Z</time></trkpt><trkpt lat="43.3144367" lon="13.2268383"><ele>723.0</ele><time>2026-03-22T11:42:43.993Z</time></trkpt><trkpt lat="43.3144867" lon="13.22701"><ele>719.0</ele><time>2026-03-22T11:42:44.992Z</time></trkpt><trkpt lat="43.3145383" lon="13.227175"><ele>715.0</ele><time>2026-03-22T11:42:45.992Z</time></trkpt><trkpt lat="43.3145867" lon="13.227335"><ele>715.75</ele><time>2026-03-22T11:42:46.993Z</time></trkpt><trkpt lat="43.3146367" lon="13.2275033"><ele>716.5</ele><time>2026-03-22T11:42:47.992Z</time></trkpt><trkpt lat="43.31469" lon="13.2276733"><ele>717.25</ele><time>2026-03-22T11:42:48.993Z</time></trkpt><trkpt lat="43.314745" lon="13.2278467"><ele>718.0</ele><time>2026-03-22T11:42:49.993Z</time></trkpt><trkpt lat="43.31481" lon="13.228015"><ele>713.5</ele><time>2026-03-22T11:42:50.993Z</time></trkpt><trkpt lat="43.3148817" lon="13.2281683"><ele>709.0</ele><time>2026-03-22T11:42:51.992Z</time></trkpt><trkpt lat="43.31496" lon="13.22832"><ele>704.5</ele><time>2026-03-22T11:42:52.993Z</time></trkpt><trkpt lat="43.3150583" lon="13.2284567"><ele>700.0</ele><time>2026-03-22T11:42:53.993Z</time></trkpt><trkpt lat="43.315165" lon="13.2285817"><ele>700.0</ele><time>2026-03-22T11:42:54.993Z</time></trkpt><trkpt lat="43.315265" lon="13.2287067"><ele>700.0</ele><time>2026-03-22T11:42:55.992Z</time></trkpt><trkpt lat="43.315355" lon="13.2288533"><ele>700.0</ele><time>2026-03-22T11:42:56.993Z</time></trkpt><trkpt lat="43.315445" lon="13.22899"><ele>700.0</ele><time>2026-03-22T11:42:57.992Z</time></trkpt><trkpt lat="43.315535" lon="13.2291183"><ele>699.75</ele><time>2026-03-22T11:42:58.992Z</time></trkpt><trkpt lat="43.3156233" lon="13.2292417"><ele>699.5</ele><time>2026-03-22T11:42:59.993Z</time></trkpt><trkpt lat="43.315715" lon="13.2293617"><ele>699.25</ele><time>2026-03-22T11:43:00.992Z</time></trkpt><trkpt lat="43.3158133" lon="13.2294783"><ele>699.0</ele><time>2026-03-22T11:43:01.992Z</time></trkpt><trkpt lat="43.315915" lon="13.2295783"><ele>699.0</ele><time>2026-03-22T11:43:02.993Z</time></trkpt><trkpt lat="43.316025" lon="13.2296833"><ele>699.0</ele><time>2026-03-22T11:43:03.993Z</time></trkpt><trkpt lat="43.316115" lon="13.22979"><ele>699.0</ele><time>2026-03-22T11:43:04.992Z</time></trkpt><trkpt lat="43.316185" lon="13.2299333"><ele>699.0</ele><time>2026-03-22T11:43:05.992Z</time></trkpt><trkpt lat="43.3162283" lon="13.2301017"><ele>691.5</ele><time>2026-03-22T11:43:06.992Z</time></trkpt><trkpt lat="43.316265" lon="13.2302683"><ele>684.0</ele><time>2026-03-22T11:43:07.992Z</time></trkpt><trkpt lat="43.3162983" lon="13.2304333"><ele>676.5</ele><time>2026-03-22T11:43:08.992Z</time></trkpt><trkpt lat="43.316335" lon="13.2306017"><ele>669.0</ele><time>2026-03-22T11:43:09.992Z</time></trkpt><trkpt lat="43.316375" lon="13.2307733"><ele>670.0</ele><time>2026-03-22T11:43:10.992Z</time></trkpt><trkpt lat="43.3164133" lon="13.2309467"><ele>671.0</ele><time>2026-03-22T11:43:11.992Z</time></trkpt><trkpt lat="43.316445" lon="13.2311183"><ele>672.0</ele><time>2026-03-22T11:43:12.992Z</time></trkpt><trkpt lat="43.3164817" lon="13.2312867"><ele>673.0</ele><time>2026-03-22T11:43:13.992Z</time></trkpt><trkpt lat="43.3165167" lon="13.2314583"><ele>670.75</ele><time>2026-03-22T11:43:14.993Z</time></trkpt><trkpt lat="43.3165517" lon="13.2316333"><ele>668.5</ele><time>2026-03-22T11:43:15.992Z</time></trkpt><trkpt lat="43.316585" lon="13.2318067"><ele>666.25</ele><time>2026-03-22T11:43:16.992Z</time></trkpt><trkpt lat="43.3166217" lon="13.2319617"><ele>664.0</ele><time>2026-03-22T11:43:17.992Z</time></trkpt><trkpt lat="43.3166567" lon="13.2321317"><ele>664.0</ele><time>2026-03-22T11:43:18.992Z</time></trkpt><trkpt lat="43.316695" lon="13.2323017"><ele>664.0</ele><time>2026-03-22T11:43:19.992Z</time></trkpt><trkpt lat="43.3167233" lon="13.2324667"><ele>664.0</ele><time>2026-03-22T11:43:20.992Z</time></trkpt><trkpt lat="43.3167617" lon="13.2326317"><ele>664.0</ele><time>2026-03-22T11:43:21.992Z</time></trkpt><trkpt lat="43.316795" lon="13.2327983"><ele>661.75</ele><time>2026-03-22T11:43:22.992Z</time></trkpt><trkpt lat="43.3168317" lon="13.2329667"><ele>659.5</ele><time>2026-03-22T11:43:23.992Z</time></trkpt><trkpt lat="43.3168667" lon="13.2331333"><ele>657.25</ele><time>2026-03-22T11:43:24.993Z</time></trkpt><trkpt lat="43.3169" lon="13.2333033"><ele>655.0</ele><time>2026-03-22T11:43:25.992Z</time></trkpt><trkpt lat="43.316935" lon="13.2334733"><ele>653.2</ele><time>2026-03-22T11:43:26.992Z</time></trkpt><trkpt lat="43.3169617" lon="13.2336367"><ele>651.4</ele><time>2026-03-22T11:43:27.992Z</time></trkpt><trkpt lat="43.3169583" lon="13.2337933"><ele>649.5999999999999</ele><time>2026-03-22T11:43:28.992Z</time></trkpt><trkpt lat="43.3169317" lon="13.23393"><ele>647.8</ele><time>2026-03-22T11:43:29.993Z</time></trkpt><trkpt lat="43.3168833" lon="13.2340283"><ele>646.0</ele><time>2026-03-22T11:43:30.992Z</time></trkpt><trkpt lat="43.316825" lon="13.2340967"><ele>646.0</ele><time>2026-03-22T11:43:31.992Z</time></trkpt><trkpt lat="43.3167617" lon="13.234125"><ele>646.0</ele><time>2026-03-22T11:43:32.992Z</time></trkpt><trkpt lat="43.3166833" lon="13.2340933"><ele>646.0</ele><time>2026-03-22T11:43:33.993Z</time></trkpt><trkpt lat="43.3166017" lon="13.2340317"><ele>646.0</ele><time>2026-03-22T11:43:34.992Z</time></trkpt><trkpt lat="43.3165383" lon="13.2339417"><ele>646.0</ele><time>2026-03-22T11:43:35.992Z</time></trkpt><trkpt lat="43.3164667" lon="13.23383"><ele>646.0</ele><time>2026-03-22T11:43:36.992Z</time></trkpt><trkpt lat="43.3163817" lon="13.2337083"><ele>642.4</ele><time>2026-03-22T11:43:37.992Z</time></trkpt><trkpt lat="43.3163033" lon="13.2336033"><ele>638.8</ele><time>2026-03-22T11:43:38.992Z</time></trkpt><trkpt lat="43.3162267" lon="13.2335017"><ele>635.1999999999999</ele><time>2026-03-22T11:43:39.992Z</time></trkpt><trkpt lat="43.3161633" lon="13.2333983"><ele>631.5999999999999</ele><time>2026-03-22T11:43:40.992Z</time></trkpt><trkpt lat="43.3161133" lon="13.2332917"><ele>628.0</ele><time>2026-03-22T11:43:41.993Z</time></trkpt><trkpt lat="43.3160833" lon="13.233185"><ele>629.8</ele><time>2026-03-22T11:43:42.993Z</time></trkpt><trkpt lat="43.3160567" lon="13.23308"><ele>631.5999999999999</ele><time>2026-03-22T11:43:43.993Z</time></trkpt><trkpt lat="43.316035" lon="13.232985"><ele>633.4000000000001</ele><time>2026-03-22T11:43:44.993Z</time></trkpt><trkpt lat="43.316005" lon="13.232825"><ele>635.2</ele><time>2026-03-22T11:43:46.992Z</time></trkpt><trkpt lat="43.3159683" lon="13.2326883"><ele>637.0</ele><time>2026-03-22T11:43:48.992Z</time></trkpt><trkpt lat="43.3158783" lon="13.2326033"><ele>637.0</ele><time>2026-03-22T11:43:50.992Z</time></trkpt><trkpt lat="43.31576" lon="13.2326"><ele>637.0</ele><time>2026-03-22T11:43:52.992Z</time></trkpt><trkpt lat="43.315705" lon="13.23265"><ele>637.0</ele><time>2026-03-22T11:43:53.992Z</time></trkpt><trkpt lat="43.3156633" lon="13.2327367"><ele>637.0</ele><time>2026-03-22T11:43:54.992Z</time></trkpt><trkpt lat="43.3156517" lon="13.2328317"><ele>637.0</ele><time>2026-03-22T11:43:55.992Z</time></trkpt><trkpt lat="43.3156683" lon="13.2329317"><ele>637.0</ele><time>2026-03-22T11:43:56.993Z</time></trkpt><trkpt lat="43.3156917" lon="13.2330567"><ele>637.0</ele><time>2026-03-22T11:43:58.992Z</time></trkpt><trkpt lat="43.3156167" lon="13.2330633"><ele>637.0</ele><time>2026-03-22T11:44:03.992Z</time></trkpt><trkpt lat="43.315525" lon="13.2330267"><ele>637.0</ele><time>2026-03-22T11:44:05.992Z</time></trkpt><trkpt lat="43.31542" lon="13.23299"><ele>637.0</ele><time>2026-03-22T11:44:07.992Z</time></trkpt><trkpt lat="43.3153583" lon="13.2329717"><ele>637.0</ele><time>2026-03-22T11:44:08.992Z</time></trkpt><trkpt lat="43.315245" lon="13.2329633"><ele>632.4</ele><time>2026-03-22T11:44:10.992Z</time></trkpt><trkpt lat="43.3151483" lon="13.23299"><ele>627.8000000000001</ele><time>2026-03-22T11:44:12.993Z</time></trkpt><trkpt lat="43.315055" lon="13.2330083"><ele>623.2</ele><time>2026-03-22T11:44:14.992Z</time></trkpt><trkpt lat="43.3149367" lon="13.2330167"><ele>618.6</ele><time>2026-03-22T11:44:16.992Z</time></trkpt><trkpt lat="43.3148117" lon="13.2330283"><ele>614.0</ele><time>2026-03-22T11:44:18.992Z</time></trkpt><trkpt lat="43.3147133" lon="13.2330117"><ele>609.4</ele><time>2026-03-22T11:44:20.992Z</time></trkpt><trkpt lat="43.314615" lon="13.2329733"><ele>604.8</ele><time>2026-03-22T11:44:22.993Z</time></trkpt><trkpt lat="43.3144933" lon="13.23291"><ele>600.2</ele><time>2026-03-22T11:44:24.992Z</time></trkpt><trkpt lat="43.314385" lon="13.2328433"><ele>595.6</ele><time>2026-03-22T11:44:26.992Z</time></trkpt><trkpt lat="43.3143267" lon="13.23281"><ele>591.0</ele><time>2026-03-22T11:44:27.993Z</time></trkpt><trkpt lat="43.314245" lon="13.2327733"><ele>591.0</ele><time>2026-03-22T11:44:28.993Z</time></trkpt><trkpt lat="43.31418" lon="13.2327367"><ele>591.0</ele><time>2026-03-22T11:44:29.992Z</time></trkpt><trkpt lat="43.3141117" lon="13.2327017"><ele>591.0</ele><time>2026-03-22T11:44:30.992Z</time></trkpt><trkpt lat="43.3140033" lon="13.2326417"><ele>591.0</ele><time>2026-03-22T11:44:32.992Z</time></trkpt><trkpt lat="43.3139417" lon="13.23259"><ele>591.0</ele><time>2026-03-22T11:44:34.992Z</time></trkpt><trkpt lat="43.3138767" lon="13.232525"><ele>591.0</ele><time>2026-03-22T11:44:37.993Z</time></trkpt><trkpt lat="43.3137833" lon="13.232455"><ele>586.2</ele><time>2026-03-22T11:44:43.992Z</time></trkpt><trkpt lat="43.3137217" lon="13.2324367"><ele>581.4000000000001</ele><time>2026-03-22T11:44:46.993Z</time></trkpt><trkpt lat="43.3135717" lon="13.2323033"><ele>576.6</ele><time>2026-03-22T11:44:59.992Z</time></trkpt><trkpt lat="43.3135083" lon="13.2322167"><ele>571.8000000000001</ele><time>2026-03-22T11:45:02.992Z</time></trkpt><trkpt lat="43.313465" lon="13.23214"><ele>567.0</ele><time>2026-03-22T11:45:04.992Z</time></trkpt><trkpt lat="43.31343" lon="13.2320533"><ele>567.0</ele><time>2026-03-22T11:45:06.992Z</time></trkpt><trkpt lat="43.3133367" lon="13.2320333"><ele>567.0</ele><time>2026-03-22T11:45:09.992Z</time></trkpt><trkpt lat="43.3132767" lon="13.232065"><ele>567.0</ele><time>2026-03-22T11:45:11.992Z</time></trkpt><trkpt lat="43.3132433" lon="13.23219"><ele>567.0</ele><time>2026-03-22T11:45:21.992Z</time></trkpt><trkpt lat="43.3132867" lon="13.232335"><ele>567.0</ele><time>2026-03-22T11:45:23.992Z</time></trkpt><trkpt lat="43.31332" lon="13.23241"><ele>567.0</ele><time>2026-03-22T11:45:24.992Z</time></trkpt><trkpt lat="43.313365" lon="13.23256"><ele>566.5</ele><time>2026-03-22T11:45:26.992Z</time></trkpt><trkpt lat="43.3133767" lon="13.2327167"><ele>566.0</ele><time>2026-03-22T11:45:28.992Z</time></trkpt><trkpt lat="43.3133667" lon="13.2328067"><ele>565.5</ele><time>2026-03-22T11:45:29.992Z</time></trkpt><trkpt lat="43.3133417" lon="13.23289"><ele>565.0</ele><time>2026-03-22T11:45:30.992Z</time></trkpt><trkpt lat="43.3133167" lon="13.2329733"><ele>564.5</ele><time>2026-03-22T11:45:31.993Z</time></trkpt><trkpt lat="43.3132617" lon="13.2331333"><ele>564.0</ele><time>2026-03-22T11:45:33.992Z</time></trkpt><trkpt lat="43.3132033" lon="13.2332767"><ele>562.5714285714286</ele><time>2026-03-22T11:45:35.992Z</time></trkpt><trkpt lat="43.313165" lon="13.233395"><ele>561.1428571428571</ele><time>2026-03-22T11:45:36.992Z</time></trkpt><trkpt lat="43.31314" lon="13.2334783"><ele>559.7142857142857</ele><time>2026-03-22T11:45:37.992Z</time></trkpt><trkpt lat="43.3131183" lon="13.2335633"><ele>558.2857142857142</ele><time>2026-03-22T11:45:38.993Z</time></trkpt><trkpt lat="43.3130933" lon="13.233645"><ele>556.8571428571428</ele><time>2026-03-22T11:45:39.992Z</time></trkpt><trkpt lat="43.3130667" lon="13.23373"><ele>555.4285714285714</ele><time>2026-03-22T11:45:40.992Z</time></trkpt><trkpt lat="43.313035" lon="13.233815"><ele>554.0</ele><time>2026-03-22T11:45:41.992Z</time></trkpt><trkpt lat="43.3130067" lon="13.23391"><ele>548.5</ele><time>2026-03-22T11:45:42.993Z</time></trkpt><trkpt lat="43.3129883" lon="13.234015"><ele>543.0</ele><time>2026-03-22T11:45:43.992Z</time></trkpt><trkpt lat="43.3129733" lon="13.2341233"><ele>537.5</ele><time>2026-03-22T11:45:44.992Z</time></trkpt><trkpt lat="43.3129617" lon="13.2342417"><ele>532.0</ele><time>2026-03-22T11:45:45.992Z</time></trkpt><trkpt lat="43.3129433" lon="13.2343783"><ele>526.5</ele><time>2026-03-22T11:45:46.992Z</time></trkpt><trkpt lat="43.3129283" lon="13.2345033"><ele>521.0</ele><time>2026-03-22T11:45:47.992Z</time></trkpt><trkpt lat="43.3129067" lon="13.23462"><ele>521.0</ele><time>2026-03-22T11:45:48.992Z</time></trkpt><trkpt lat="43.3128717" lon="13.234745"><ele>521.0</ele><time>2026-03-22T11:45:49.992Z</time></trkpt><trkpt lat="43.3128383" lon="13.2348667"><ele>521.0</ele><time>2026-03-22T11:45:50.993Z</time></trkpt><trkpt lat="43.3128067" lon="13.2349833"><ele>521.0</ele><time>2026-03-22T11:45:51.992Z</time></trkpt><trkpt lat="43.3127767" lon="13.2350967"><ele>521.0</ele><time>2026-03-22T11:45:52.992Z</time></trkpt><trkpt lat="43.3127517" lon="13.2352083"><ele>519.1666666666666</ele><time>2026-03-22T11:45:53.993Z</time></trkpt><trkpt lat="43.31273" lon="13.23533"><ele>517.3333333333333</ele><time>2026-03-22T11:45:54.993Z</time></trkpt><trkpt lat="43.312725" lon="13.2354483"><ele>515.5</ele><time>2026-03-22T11:45:55.992Z</time></trkpt><trkpt lat="43.3127033" lon="13.23557"><ele>513.6666666666666</ele><time>2026-03-22T11:45:56.993Z</time></trkpt><trkpt lat="43.312675" lon="13.235685"><ele>511.8333333333333</ele><time>2026-03-22T11:45:57.993Z</time></trkpt><trkpt lat="43.312635" lon="13.2357983"><ele>510.0</ele><time>2026-03-22T11:45:58.992Z</time></trkpt><trkpt lat="43.3125967" lon="13.2359117"><ele>508.3333333333333</ele><time>2026-03-22T11:45:59.992Z</time></trkpt><trkpt lat="43.312555" lon="13.2360217"><ele>506.66666666666663</ele><time>2026-03-22T11:46:00.992Z</time></trkpt><trkpt lat="43.3125433" lon="13.23612"><ele>505.0</ele><time>2026-03-22T11:46:01.992Z</time></trkpt><trkpt lat="43.3125233" lon="13.23622"><ele>503.3333333333333</ele><time>2026-03-22T11:46:02.992Z</time></trkpt><trkpt lat="43.312495" lon="13.2363267"><ele>501.66666666666663</ele><time>2026-03-22T11:46:03.992Z</time></trkpt><trkpt lat="43.312465" lon="13.236445"><ele>500.0</ele><time>2026-03-22T11:46:04.992Z</time></trkpt><trkpt lat="43.3124283" lon="13.2365617"><ele>499.3333333333333</ele><time>2026-03-22T11:46:05.992Z</time></trkpt><trkpt lat="43.3123883" lon="13.2366817"><ele>498.66666666666663</ele><time>2026-03-22T11:46:06.992Z</time></trkpt><trkpt lat="43.3123583" lon="13.2367917"><ele>498.0</ele><time>2026-03-22T11:46:07.992Z</time></trkpt><trkpt lat="43.3123417" lon="13.2369"><ele>497.33333333333337</ele><time>2026-03-22T11:46:08.993Z</time></trkpt><trkpt lat="43.3123417" lon="13.2369967"><ele>496.6666666666667</ele><time>2026-03-22T11:46:09.992Z</time></trkpt><trkpt lat="43.3123467" lon="13.2371033"><ele>496.0</ele><time>2026-03-22T11:46:10.992Z</time></trkpt><trkpt lat="43.31234" lon="13.2372083"><ele>495.50000000000006</ele><time>2026-03-22T11:46:11.992Z</time></trkpt><trkpt lat="43.31233" lon="13.2373117"><ele>495.0</ele><time>2026-03-22T11:46:12.993Z</time></trkpt><trkpt lat="43.3123217" lon="13.2374"><ele>494.5</ele><time>2026-03-22T11:46:13.992Z</time></trkpt><trkpt lat="43.3123183" lon="13.2375567"><ele>494.0</ele><time>2026-03-22T11:46:15.992Z</time></trkpt><trkpt lat="43.3123083" lon="13.2376517"><ele>493.50000000000006</ele><time>2026-03-22T11:46:16.993Z</time></trkpt><trkpt lat="43.3122933" lon="13.2377533"><ele>493.0</ele><time>2026-03-22T11:46:17.992Z</time></trkpt><trkpt lat="43.3122683" lon="13.2378733"><ele>491.2</ele><time>2026-03-22T11:46:18.992Z</time></trkpt><trkpt lat="43.3122267" lon="13.2380033"><ele>489.4</ele><time>2026-03-22T11:46:19.992Z</time></trkpt><trkpt lat="43.3121717" lon="13.2381333"><ele>487.59999999999997</ele><time>2026-03-22T11:46:20.992Z</time></trkpt><trkpt lat="43.31211" lon="13.2382567"><ele>485.79999999999995</ele><time>2026-03-22T11:46:21.993Z</time></trkpt><trkpt lat="43.3120417" lon="13.2383717"><ele>484.0</ele><time>2026-03-22T11:46:22.992Z</time></trkpt><trkpt lat="43.31198" lon="13.2384783"><ele>476.0</ele><time>2026-03-22T11:46:23.992Z</time></trkpt><trkpt lat="43.3119117" lon="13.23856"><ele>476.0</ele><time>2026-03-22T11:46:24.992Z</time></trkpt><trkpt lat="43.3118567" lon="13.238605"><ele>476.0</ele><time>2026-03-22T11:46:25.993Z</time></trkpt><trkpt lat="43.31178" lon="13.2386617"><ele>476.0</ele><time>2026-03-22T11:46:27.992Z</time></trkpt><trkpt lat="43.311705" lon="13.2387267"><ele>476.0</ele><time>2026-03-22T11:46:29.992Z</time></trkpt><trkpt lat="43.31165" lon="13.23877"><ele>476.0</ele><time>2026-03-22T11:46:31.992Z</time></trkpt></trkseg></trk></gpx>